GFSWCAN_250_spd_000.txt.gz
Wind_Speed
125 124 110 103 98 88 79 72 67 64 61 57 54 51 48 44 40 40 36 35 38 43 43 48 48 53 58 62 66 71 80 92 97 96 88 83 81 74 71 68 65 62 57 57 56 57 62 64 71 82 85 90 97 95
115 102 97 86 78 72 68 64 60 57 53 51 47 44 40 37 34 33 30 29 33 34 35 39 43 44 50 53 54 60 72 84 94 93 88 81 77 74 69 68 64 60 58 54 55 55 49 52 61 66 72 82 92 95
99 82 80 73 68 64 60 56 52 49 46 43 39 36 34 30 28 26 24 25 26 25 30 34 36 41 45 49 50 57 63 75 86 89 83 80 77 74 71 70 66 62 60 54 50 49 42 49 52 58 66 73 82 91
77 74 68 64 59 54 51 48 45 41 38 35 31 28 26 23 21 19 19 20 20 23 27 30 32 37 42 49 52 51 57 66 79 83 82 79 75 72 74 71 66 61 58 50 44 42 43 46 50 54 59 66 72 83
66 62 58 55 51 48 44 40 36 33 31 28 24 20 16 13 12 12 12 15 19 23 26 28 32 37 42 47 48 51 55 63 76 81 82 80 76 77 71 71 61 54 50 51 42 40 33 34 44 59 50 54 73 73
63 58 52 48 44 40 36 33 31 28 24 18 13 9 6 6 7 7 12 16 19 22 26 28 32 36 41 46 49 50 56 64 70 76 76 74 71 76 72 68 65 58 46 47 45 38 34 35 29 34 44 46 52 61
62 55 48 43 38 35 33 30 25 19 14 10 6 1 4 7 8 10 14 18 20 22 25 29 32 34 38 43 47 50 54 57 63 70 75 79 76 72 70 66 64 61 52 44 47 47 38 22 29 39 38 31 35 50
57 49 43 38 34 31 28 23 17 12 9 7 6 7 7 8 10 12 15 18 20 23 27 30 33 34 37 41 46 48 53 60 66 70 73 78 77 73 67 64 63 55 48 44 56 66 51 50 33 36 39 42 33 25
51 45 40 35 30 27 24 19 14 10 9 7 6 6 7 8 10 13 16 19 22 26 28 30 32 36 39 41 46 49 54 61 69 77 75 75 73 69 67 65 60 50 50 55 70 64 62 58 53 49 49 43 37 36
47 41 37 32 27 24 21 18 15 12 10 9 8 9 11 13 14 17 19 23 25 27 30 31 33 36 39 43 47 52 56 63 68 71 78 78 68 65 66 64 58 53 49 57 63 68 64 59 62 66 63 49 49 49
43 36 34 30 26 23 21 19 17 16 14 13 12 13 13 14 17 20 21 23 26 28 29 32 34 38 43 47 49 53 65 69 72 74 72 71 66 67 67 65 60 54 53 53 69 71 72 74 67 67 59 53 57 53
39 33 32 29 26 23 22 21 20 18 17 16 16 16 16 17 18 21 23 24 26 30 31 32 34 37 41 46 51 57 67 71 75 76 73 67 67 66 66 67 61 56 57 55 69 74 74 75 74 70 75 69 63 64
35 30 31 28 25 23 22 22 21 19 18 17 17 18 19 20 21 22 24 26 28 30 31 32 34 36 41 44 49 60 68 72 72 74 75 74 74 65 64 65 61 55 57 60 75 79 84 80 84 76 73 69 72 64
32 29 29 25 23 22 20 21 22 22 19 18 19 21 23 23 22 23 23 25 27 27 29 30 31 33 38 44 49 59 66 70 70 66 69 69 67 67 66 61 61 58 61 62 75 82 80 79 76 81 76 77 74 74
31 28 28 27 25 24 22 22 22 23 23 21 18 21 25 25 26 25 23 22 25 29 31 32 32 33 36 39 45 51 54 61 62 63 60 60 59 62 62 56 59 53 56 55 56 69 80 80 85 81 79 77 77 80
30 28 28 27 26 26 24 26 24 20 22 23 18 22 23 24 25 25 24 24 24 25 26 28 33 34 35 37 39 44 48 53 59 63 65 62 59 60 60 66 63 61 62 64 64 66 68 74 76 85 91 92 95 91
30 28 27 26 26 26 26 25 21 23 23 22 21 23 23 23 23 24 25 24 26 25 26 28 28 30 31 36 37 39 46 52 56 58 61 62 57 65 68 69 63 67 69 73 71 72 73 75 79 80 81 85 86 94
33 30 27 26 26 27 25 22 23 25 22 22 22 23 23 23 22 22 24 24 24 24 23 26 30 31 32 33 37 40 45 50 51 52 58 58 57 66 70 68 69 64 65 69 76 85 81 81 84 83 77 77 79 83
33 32 30 28 27 25 23 23 23 23 23 22 22 22 22 23 22 21 22 24 25 26 24 22 23 24 25 27 29 31 35 40 43 47 51 55 59 60 62 68 69 67 71 72 73 75 77 79 76 77 79 76 74 74
36 34 32 30 29 28 26 24 23 23 23 23 22 22 22 22 22 22 22 22 23 26 26 25 22 21 20 20 21 23 29 36 42 45 47 50 51 53 55 56 62 64 63 67 76 73 72 74 76 77 77 80 80 79
43 42 38 34 32 30 28 27 26 24 23 23 23 23 23 22 22 22 23 23 22 23 23 22 20 18 16 18 20 22 25 28 34 41 44 44 46 49 50 53 56 62 64 61 58 62 72 78 81 80 80 81 77 80
40 44 44 41 38 34 31 29 28 26 26 25 24 23 22 21 21 21 21 22 20 20 17 19 21 21 19 17 17 19 21 24 26 28 31 31 32 35 37 38 40 42 44 49 53 54 54 60 71 79 81 86 84 80
31 33 39 41 39 36 36 35 33 29 25 24 24 24 23 20 18 18 17 16 16 17 17 15 14 13 12 13 14 16 17 19 21 24 27 29 32 34 37 39 41 43 45 48 51 53 56 59 62 66 70 75 82 88
26 31 34 31 28 30 35 36 36 36 31 28 26 24 22 20 19 17 14 13 11 11 12 12 12 13 14 15 16 18 20 23 25 28 30 32 33 35 37 40 43 45 48 51 55 58 61 63 65 68 70 72 74 77
29 28 26 25 25 26 28 30 30 30 30 31 31 27 24 23 22 19 14 11 8 6 5 5 7 9 12 13 16 19 21 24 27 29 32 34 37 40 42 45 47 50 52 54 56 58 59 61 63 65 67 69 72 74
26 24 22 23 24 24 24 24 24 23 24 25 26 25 22 21 20 19 15 13 11 8 6 3 1 2 5 8 11 14 17 20 22 25 28 31 34 37 39 42 44 46 48 49 51 52 53 55 57 58 60 61 62 64
25 25 24 24 23 22 21 21 19 18 17 17 16 14 13 12 12 10 8 7 6 6 7 7 7 9 11 13 16 19 21 23 25 27 29 31 33 35 36 36 37 39 41 43 44 46 48 49 49 50 52 54 55 55
25 25 24 23 23 21 20 20 19 18 16 14 12 10 10 10 10 10 10 12 13 14 15 17 19 20 23 25 27 29 30 31 33 34 35 36 38 40 40 42 43 45 46 48 49 50 52 53 55 57 58 61 62 63
25 25 24 24 23 21 19 18 19 20 18 17 16 17 16 15 16 16 17 19 20 22 25 28 30 31 33 34 35 37 37 36 38 39 39 38 38 40 43 44 46 47 48 48 50 52 53 52 54 56 57 59 60 63
31 28 29 30 31 32 30 28 25 23 21 19 19 19 18 18 17 21 23 25 26 28 30 32 32 33 33 34 34 34 36 37 36 36 36 38 39 40 42 44 45 46 47 48 49 50 52 55 55 57 57 58 59 60
34 33 33 32 32 29 27 25 23 22 22 22 21 20 20 21 21 21 21 23 25 27 29 32 34 36 37 38 40 41 41 42 45 47 47 47 48 48 48 48 49 49 49 48 48 49 49 49 50 51 51 52 52 53
32 33 31 31 30 30 29 30 31 31 31 31 31 31 30 30 31 31 31 32 34 35 35 35 35 35 35 35 36 37 39 39 39 39 40 40 41 42 42 43 44 44 45 46 47 47 47 47 46 45 45 45 45 45
37 36 34 32 30 31 31 32 31 31 31 32 32 31 31 31 32 32 33 33 34 35 37 38 39 40 40 39 38 38 37 37 37 35 36 37 38 38 38 39 39 40 40 40 40 41 41 41 41 41 41 40 40 39

GFSWCAN_250_spd_003.txt.gz
Wind_Speed
128 124 117 107 102 93 88 85 80 72 66 62 57 53 50 48 46 46 43 40 42 40 36 39 41 44 45 47 52 55 62 67 77 92 92 94 89 82 80 75 72 61 59 60 63 63 58 50 55 63 70 67 74 89
116 108 101 94 84 80 73 68 64 59 54 50 47 45 43 41 39 37 35 34 32 31 31 33 35 38 42 45 48 51 53 58 68 82 90 94 88 82 79 76 71 67 61 57 63 64 52 49 55 63 65 63 66 76
103 98 87 83 73 64 60 56 50 44 41 39 37 36 34 32 30 28 26 26 25 25 27 28 30 33 38 42 42 47 49 50 58 74 85 87 86 82 79 76 68 59 60 61 66 56 50 52 55 54 56 54 58 64
93 83 74 67 60 57 53 47 42 38 34 33 31 30 28 26 23 20 20 20 22 24 25 25 26 30 34 38 40 43 46 49 56 72 82 88 87 81 79 67 59 49 55 66 63 50 51 52 49 48 47 48 47 47
76 69 63 58 56 51 46 43 39 35 31 28 25 22 19 14 12 12 14 16 18 19 19 20 22 27 31 34 37 41 44 48 57 67 76 84 87 87 79 69 69 74 72 62 64 56 53 47 44 40 41 34 39 45
66 61 56 53 50 46 41 38 32 26 22 20 19 15 9 5 6 7 9 10 12 14 16 19 23 27 33 36 39 44 49 54 60 67 71 77 79 78 79 80 70 61 69 67 59 63 56 45 41 38 39 43 41 38
62 57 53 50 45 41 36 30 24 19 17 15 13 8 2 2 3 4 7 9 11 14 17 20 26 30 32 36 41 45 52 59 65 72 75 79 81 84 80 81 75 69 57 54 60 57 54 42 34 29 36 45 37 36
59 54 51 44 39 35 30 25 20 16 14 12 9 7 5 4 4 6 11 14 16 18 21 25 29 33 35 39 45 48 54 62 67 73 77 78 79 78 76 73 73 75 73 69 60 49 45 39 28 22 27 22 29 35
57 52 45 38 34 31 27 23 20 17 14 11 10 8 7 8 9 12 15 17 19 21 23 25 29 35 40 46 50 51 52 58 67 76 78 77 77 75 72 68 71 67 67 61 49 42 36 42 34 31 28 29 31 31
54 49 40 35 32 29 26 24 22 20 17 15 12 11 10 11 13 16 19 21 23 24 27 29 30 36 40 40 47 52 54 65 69 73 73 72 75 73 77 72 61 56 55 50 54 50 42 50 48 47 49 45 43 36
51 43 36 34 31 28 26 25 23 22 19 17 15 14 14 15 18 21 23 26 28 30 31 32 33 39 43 48 51 60 68 68 73 73 70 72 70 67 63 63 60 54 57 54 52 55 60 59 51 53 46 48 47 44
46 38 32 32 29 28 25 25 24 22 21 18 17 19 18 17 20 23 24 27 29 33 33 34 36 40 45 52 56 67 70 70 71 68 64 70 74 67 64 63 61 56 56 55 55 59 62 65 66 61 54 56 60 49
41 35 32 31 29 26 24 23 23 23 22 21 18 17 19 22 20 18 24 29 29 34 35 38 42 46 52 58 65 73 77 70 65 67 60 63 66 66 70 66 60 60 59 60 55 61 59 65 69 70 66 60 63 63
38 33 31 29 27 25 24 23 23 22 23 22 21 20 19 21 24 24 22 25 28 34 37 34 43 49 52 62 67 73 70 65 66 66 62 59 69 70 70 64 59 63 59 58 59 59 61 69 71 73 67 65 70 71
36 32 29 27 25 22 25 25 24 21 21 22 22 20 22 23 22 23 28 30 29 31 35 37 39 46 56 63 71 75 77 65 68 67 64 64 67 64 64 63 57 60 61 60 59 56 53 57 70 81 80 79 79 77
35 32 28 27 24 22 24 24 21 19 19 23 20 17 20 24 25 22 23 30 33 35 33 33 41 48 54 65 69 70 74 70 68 70 70 69 64 62 62 59 59 60 66 69 67 65 62 63 63 68 72 77 80 79
35 32 28 24 22 22 22 22 19 19 23 22 20 19 20 21 24 25 26 29 30 29 35 37 42 46 49 58 65 69 72 70 68 65 64 63 62 59 55 53 60 66 67 67 72 67 64 65 71 71 71 73 76 80
34 31 28 25 22 20 19 20 22 25 24 23 22 23 22 22 23 23 25 25 25 26 25 27 31 38 46 54 60 63 66 71 68 66 64 63 63 63 64 66 68 69 65 62 64 62 63 64 73 79 83 79 78 81
36 31 30 27 23 20 18 21 21 23 23 24 25 26 25 24 23 25 28 29 28 27 27 29 31 32 37 44 51 56 60 62 69 66 61 59 57 57 57 62 69 70 67 64 62 62 64 69 70 73 75 78 81 88
41 36 32 30 27 23 21 19 20 22 21 22 24 26 26 25 26 27 29 30 29 27 26 25 24 25 24 26 30 37 44 51 59 65 66 64 62 60 57 53 54 63 64 65 65 68 70 72 76 77 79 81 82 83
38 40 40 36 31 27 23 21 20 19 19 20 21 23 25 27 27 27 29 28 25 24 24 24 26 28 23 20 20 20 23 26 31 40 48 49 53 55 60 62 62 58 68 69 70 75 78 78 82 84 85 86 89 87
32 34 37 40 42 35 27 23 20 19 19 18 19 21 22 22 22 25 26 23 21 20 19 19 19 21 21 23 26 27 27 27 31 36 39 41 44 48 53 60 62 62 62 73 80 79 79 81 81 82 84 86 86 86
26 29 37 38 36 33 33 33 28 24 19 16 16 16 16 16 15 14 14 13 13 17 17 16 17 18 19 20 21 23 24 28 30 33 36 39 45 49 53 56 58 61 62 64 68 74 79 82 85 88 89 90 90 87
27 30 33 30 28 29 31 31 33 33 30 23 17 13 11 9 9 8 7 8 7 9 10 12 14 16 17 18 21 22 23 26 28 30 32 35 37 40 44 48 50 52 55 57 60 64 66 68 71 72 73 73 73 76
24 24 23 21 22 22 23 24 24 23 22 22 22 23 20 16 10 5 1 4 7 10 12 14 17 18 20 22 24 26 28 31 33 35 38 39 42 44 46 49 49 53 56 54 57 59 60 62 63 65 68 68 69 72
22 22 21 20 19 19 17 16 16 17 17 17 15 14 13 12 11 10 9 6 5 4 4 6 9 13 17 20 23 27 30 32 35 37 39 40 42 44 46 48 49 52 56 57 58 58 61 64 65 67 68 70 70 72
22 22 21 19 18 18 18 16 16 15 14 13 13 13 13 13 13 13 13 14 14 15 16 18 20 21 23 24 26 27 29 30 31 31 32 32 35 39 37 38 41 45 42 47 50 50 54 55 56 58 60 61 63 64
25 25 25 25 23 19 19 20 18 15 13 14 14 14 14 14 16 19 19 19 21 23 26 28 29 30 31 32 33 34 34 33 36 38 38 36 38 45 48 41 42 48 48 48 52 52 55 55 56 58 60 61 63 63
29 28 28 23 24 27 27 25 24 24 22 21 20 20 20 21 22 23 24 24 26 27 27 29 31 33 34 33 33 32 35 38 36 36 38 38 38 39 43 47 47 47 48 48 49 54 56 55 57 57 58 59 59 61
33 32 31 32 32 31 29 28 28 28 28 28 27 26 26 26 27 26 26 26 26 26 27 28 30 32 33 36 38 36 36 40 41 40 39 39 40 40 41 43 45 46 47 48 49 48 52 54 54 55 55 56 56 56
37 34 31 30 31 32 32 32 32 34 33 32 31 31 31 31 31 30 29 29 28 30 31 32 33 33 33 34 36 36 33 35 37 39 38 38 39 40 42 42 43 44 44 44 44 44 44 45 45 46 47 48 48 48
40 39 39 36 35 34 33 33 34 36 38 38 36 32 31 33 34 32 31 30 32 34 36 36 34 33 33 33 34 33 32 29 30 31 32 33 34 35 36 37 38 38 39 39 39 39 40 40 40 40 41 41 41 41
38 38 38 39 39 37 36 35 36 36 37 40 40 35 32 31 30 29 30 35 40 42 39 37 36 36 35 35 34 32 29 26 25 24 24 24 25 25 26 27 27 28 28 29 30 30 31 32 32 33 34 34 34 34

GFSWCAN_250_spd_006.txt.gz
Wind_Speed
120 123 114 107 101 94 87 81 77 73 67 62 58 54 52 50 48 45 44 42 42 42 37 42 42 41 42 43 45 50 52 58 61 65 70 70 81 93 100 105 106 101 86 76 77 70 69 70 53 56 51 59 54 59
119 110 103 95 88 81 77 71 64 59 53 49 45 44 42 41 38 36 35 34 35 34 33 35 35 36 37 38 41 45 49 48 53 59 64 65 72 81 93 95 84 86 81 74 70 64 70 66 64 66 67 59 54 53
111 101 90 82 76 70 63 56 52 48 44 41 39 36 34 32 31 29 28 26 25 25 25 25 26 28 29 32 36 37 36 38 44 51 58 60 63 73 75 74 72 76 77 72 67 73 70 63 62 59 54 49 53 52
101 88 79 70 63 57 52 50 46 42 38 33 29 27 25 24 23 20 18 17 16 15 14 16 18 21 23 25 27 27 34 40 45 49 51 57 62 67 70 70 72 71 68 64 66 67 55 54 52 50 45 49 48 42
90 79 68 59 53 51 48 44 39 34 28 24 24 23 20 16 13 10 7 7 8 9 11 13 15 17 20 22 25 33 37 38 44 47 50 58 69 73 69 72 74 69 63 63 59 53 51 56 56 46 48 48 38 39
82 69 60 53 49 46 42 37 32 27 25 25 24 21 14 11 9 6 3 2 5 7 10 13 16 19 21 25 29 31 36 41 45 50 53 66 74 76 73 74 69 65 62 57 50 47 49 52 52 56 50 41 34 35
72 62 56 51 47 43 39 34 29 26 23 22 21 18 13 10 9 9 8 9 9 10 13 17 20 24 27 29 32 34 39 44 50 54 64 75 78 75 74 74 71 63 56 54 53 47 46 50 63 55 43 40 32 33
64 57 52 48 44 40 36 32 28 25 22 19 17 15 14 14 13 12 13 14 13 14 16 19 24 29 32 34 37 39 42 50 57 62 69 72 71 73 74 71 63 65 60 56 53 62 68 53 39 38 43 42 31 35
61 54 50 46 41 37 35 31 28 24 21 20 17 15 13 15 15 18 20 20 19 18 22 28 34 38 40 42 42 44 47 53 57 67 72 73 76 73 73 71 63 66 69 72 61 53 53 46 37 39 41 38 34 35
58 52 48 43 37 35 33 31 29 26 22 19 16 14 14 13 16 20 23 24 25 25 23 26 34 40 41 45 43 43 47 56 61 69 75 72 71 67 63 74 73 74 75 79 74 62 54 53 52 50 36 34 35 32
56 49 44 40 35 31 31 30 27 25 22 19 18 16 15 16 17 21 26 30 31 29 26 26 31 42 46 49 49 50 57 64 68 70 74 73 73 76 63 63 81 68 66 72 76 75 72 65 59 47 43 48 46 45
51 47 42 37 33 30 28 30 28 26 22 21 18 17 16 15 21 25 29 32 33 35 35 37 42 45 50 54 56 54 61 67 68 70 75 77 76 75 73 69 67 69 64 62 66 68 65 66 62 52 50 51 49 44
48 43 38 34 30 27 27 27 28 26 22 21 17 16 16 16 23 26 34 36 41 40 41 45 52 54 54 63 59 55 59 63 63 67 70 75 72 77 75 77 68 66 67 73 70 68 71 70 65 50 56 55 58 47
45 40 36 32 29 26 25 26 26 25 22 20 19 18 17 18 17 21 29 36 44 44 49 50 55 59 58 60 57 52 57 60 60 60 63 67 70 72 74 74 65 63 66 57 62 72 68 60 51 60 54 60 56 55
43 38 34 30 28 26 25 25 26 23 22 21 19 18 19 19 20 22 28 38 41 52 53 60 58 60 63 63 58 55 54 54 56 56 59 61 63 64 64 62 69 66 61 57 56 56 54 52 54 54 56 64 67 64
42 37 32 28 25 24 24 24 23 20 20 22 21 18 18 20 22 26 27 28 33 50 54 59 60 65 67 66 59 54 50 53 56 57 59 61 62 61 62 67 63 63 67 65 61 58 56 54 57 59 60 61 69 69
40 34 29 26 23 23 23 22 19 22 22 22 21 21 20 21 17 18 27 32 36 43 53 54 59 66 66 61 60 56 51 50 54 56 49 47 51 53 55 59 63 64 63 64 66 63 60 61 62 63 63 67 69 73
40 34 29 27 24 21 20 21 21 23 22 21 22 21 21 20 18 19 21 28 32 37 46 54 54 61 64 63 59 56 53 51 49 49 50 50 51 51 53 62 61 63 67 67 73 67 67 62 67 68 68 69 71 72
40 35 30 28 26 23 19 21 21 22 22 21 21 21 20 22 23 23 24 24 28 34 41 48 52 54 59 63 64 60 57 56 54 51 42 46 47 52 57 61 65 67 65 70 71 69 66 71 72 72 71 70 71 69
35 36 33 31 29 27 23 22 22 19 21 23 23 25 24 25 29 26 22 22 24 25 27 34 44 54 55 58 62 64 62 59 59 59 59 58 56 52 54 55 57 60 61 64 66 66 66 69 73 78 79 79 80 78
33 33 34 35 33 28 25 22 20 18 20 22 21 23 25 23 22 25 26 26 24 22 21 24 31 38 47 57 59 60 65 67 66 69 66 64 64 65 64 62 64 66 66 65 66 65 67 72 73 72 74 77 80 80
29 28 28 31 37 36 29 24 20 16 18 16 16 16 17 18 17 15 15 17 19 22 25 24 23 23 25 31 40 53 61 64 63 64 67 70 69 69 67 68 66 65 64 66 64 67 73 83 83 83 81 81 82 83
25 26 27 30 31 28 26 28 25 22 19 15 12 10 9 8 7 7 6 8 9 12 16 20 19 21 24 25 28 33 38 45 52 58 64 67 67 72 74 76 77 75 72 73 73 74 74 75 76 79 79 83 86 85
24 24 25 26 24 23 23 23 23 22 22 21 17 13 9 6 4 3 5 5 5 7 8 10 12 16 20 25 29 32 35 37 39 41 44 47 49 51 55 58 59 63 66 65 66 69 71 72 74 77 79 82 82 86
22 21 20 19 18 19 20 20 19 18 16 15 14 13 12 11 9 7 6 6 6 9 13 16 18 21 24 26 29 31 34 36 38 40 43 45 47 48 50 52 53 56 62 59 61 64 66 69 71 72 75 75 76 79
24 26 31 31 27 21 16 15 16 16 15 15 14 13 12 13 15 15 14 13 13 13 14 15 17 20 23 26 29 32 35 38 41 42 43 44 48 49 48 46 47 53 57 55 59 58 59 63 65 66 67 69 70 71
32 32 35 38 39 30 25 23 20 18 18 19 18 17 17 18 20 21 20 21 21 22 24 25 27 28 30 32 33 34 36 40 41 43 40 38 41 48 53 46 44 49 47 50 55 56 58 59 60 61 62 64 65 67
18 16 12 8 24 26 25 25 25 25 25 23 22 21 20 19 20 20 20 21 21 22 23 25 27 28 29 31 33 33 34 42 42 43 40 38 41 46 55 53 47 48 48 50 53 54 55 56 58 60 61 61 62 62
30 25 19 17 22 26 28 30 32 32 32 31 29 28 27 28 29 27 26 24 23 23 24 27 30 31 31 31 31 31 36 42 42 41 40 38 35 37 43 49 50 50 51 49 51 53 51 52 55 56 57 58 59 60
35 36 34 33 31 31 31 32 32 32 35 37 36 32 29 29 31 31 30 29 29 30 33 36 36 34 33 32 30 28 32 34 37 38 38 38 38 36 35 35 37 40 42 44 45 46 50 50 50 50 51 51 51 51
37 37 37 37 37 37 36 37 37 37 36 39 41 40 39 40 40 38 35 31 30 33 36 35 33 31 29 28 27 24 24 26 28 30 30 31 31 31 31 32 34 35 37 38 39 40 41 41 42 42 43 44 44 45
35 36 37 37 38 39 41 40 40 41 41 39 39 38 36 32 31 34 34 31 30 34 38 37 35 33 29 28 28 26 27 27 25 26 26 26 26 26 26 27 28 29 31 32 33 34 35 35 36 36 37 38 38 39
34 34 33 34 35 35 36 38 37 37 41 44 41 42 44 43 40 38 36 35 34 35 37 38 38 36 34 31 30 30 28 27 27 27 26 26 25 24 24 25 26 26 27 28 29 30 30 31 31 32 32 33 34 35

GFSWCAN_250_spd_009.txt.gz
Wind_Speed
118 117 108 99 89 79 72 69 66 61 56 53 50 46 43 42 41 39 38 35 36 34 30 40 40 41 42 43 44 50 52 52 57 58 62 74 80 83 90 96 109 117 116 109 107 105 100 97 96 93 88 81 76 70
116 110 100 89 77 71 66 61 56 51 48 44 40 37 34 31 29 28 28 28 29 26 30 27 30 32 33 36 38 38 41 43 44 47 52 61 68 68 75 83 98 103 106 106 99 105 104 98 87 86 88 79 74 60
112 103 91 80 72 65 59 54 51 46 40 35 31 29 27 23 20 19 19 20 21 21 20 18 20 23 26 29 32 33 33 34 37 40 45 51 60 69 72 76 90 96 100 100 95 89 92 93 86 80 73 69 65 55
107 95 83 75 65 60 55 52 46 40 34 29 28 26 22 18 14 12 10 8 8 10 11 13 15 17 20 24 26 26 27 27 27 30 37 45 57 65 66 71 78 86 89 86 83 76 77 78 57 49 58 71 54 43
100 90 81 68 60 56 52 47 41 35 31 27 26 25 20 18 16 13 9 3 1 4 7 9 11 13 16 17 19 21 23 27 29 33 38 42 47 56 58 58 66 74 78 78 79 67 57 59 66 39 50 57 53 57
96 84 74 63 57 51 46 43 37 32 28 27 26 24 20 18 17 14 12 8 5 3 6 8 9 13 14 16 20 22 25 28 32 35 37 38 46 49 46 50 56 60 63 70 73 62 51 53 64 67 56 55 53 57
91 80 68 59 54 48 43 38 34 33 31 27 25 23 20 18 18 17 15 12 10 8 8 10 13 14 19 22 22 23 25 29 32 38 42 45 45 44 47 52 57 67 59 65 65 58 49 55 59 57 55 56 58 55
84 73 62 55 50 45 41 35 33 32 30 28 24 22 19 16 17 17 17 17 15 13 14 16 19 24 29 29 30 32 35 38 40 44 46 47 47 52 60 67 67 68 65 61 55 58 48 39 51 55 57 58 55 51
78 67 57 51 46 42 38 32 32 30 29 27 25 21 19 18 19 20 19 20 20 18 20 22 24 26 32 35 37 40 42 43 45 47 47 49 54 63 64 66 63 61 57 58 61 62 58 59 59 55 46 51 50 46
70 59 51 46 42 38 33 30 29 29 26 26 21 15 16 16 18 22 26 22 22 23 25 29 34 34 35 35 35 39 42 44 46 45 52 57 63 61 63 62 58 59 60 62 58 62 64 66 54 52 51 45 42 48
65 54 46 41 38 38 30 29 29 27 25 24 21 19 16 19 27 33 33 28 22 25 32 37 40 46 43 48 48 50 53 51 49 54 58 64 58 61 64 62 61 64 63 64 61 58 58 61 58 56 51 49 43 36
59 49 41 37 34 31 29 27 25 26 26 27 21 15 18 27 27 34 38 40 37 37 42 47 43 46 52 53 53 53 52 48 45 61 58 57 60 61 61 62 65 61 61 58 58 59 60 57 59 64 59 57 47 37
54 44 37 33 31 29 25 25 24 23 22 23 20 16 20 21 25 34 45 44 43 44 46 47 46 45 56 51 53 55 50 47 47 53 56 60 60 60 61 60 59 53 54 55 57 60 59 53 53 55 56 55 53 46
50 40 34 31 29 26 25 24 22 22 20 18 18 15 18 16 19 27 42 44 41 46 48 51 50 48 50 52 50 51 47 48 50 56 54 62 58 54 53 61 62 62 60 61 63 62 60 59 57 58 59 59 52 53
45 39 33 30 28 28 25 21 21 21 18 17 15 15 9 8 14 24 28 44 42 42 45 48 49 47 44 50 42 46 40 43 52 56 59 59 62 56 60 62 63 58 56 58 64 60 64 74 70 63 60 62 61 61
41 36 31 29 28 27 27 26 22 18 17 16 14 14 11 9 10 22 36 40 41 39 45 48 48 44 40 44 40 37 38 38 41 46 58 58 61 60 58 58 62 63 63 62 59 62 61 62 65 66 66 67 70 70
39 35 30 27 27 27 26 23 19 20 19 17 17 15 13 15 18 27 34 38 36 35 40 47 44 42 38 37 33 31 34 33 38 40 50 59 63 68 65 64 66 68 69 70 65 66 69 67 68 67 68 68 69 69
39 35 29 26 26 26 24 25 23 22 20 18 18 17 14 12 22 25 27 40 32 31 37 40 46 44 38 38 33 36 34 34 34 36 39 44 59 65 67 72 73 69 71 68 61 60 65 65 66 69 69 63 63 65
37 37 33 28 25 26 24 23 23 23 20 20 19 17 15 12 12 23 30 38 35 33 32 32 41 45 43 39 36 37 40 39 38 36 37 42 47 52 63 66 64 73 71 68 67 68 70 68 70 68 66 66 63 64
32 32 34 31 27 27 27 22 22 20 20 21 21 20 20 17 14 14 25 32 39 36 36 31 31 39 50 42 41 39 40 43 44 45 45 45 48 52 51 53 57 61 66 69 73 74 75 76 78 78 80 79 75 75
29 31 29 26 29 29 27 26 21 16 16 17 15 13 16 16 15 13 10 11 21 32 33 39 40 42 45 54 49 48 45 45 44 45 46 48 49 48 50 55 57 57 58 59 60 69 71 73 76 77 77 80 81 82
26 26 26 25 25 28 29 26 21 18 15 13 11 12 11 9 7 9 10 8 8 11 17 26 36 46 46 49 55 56 52 52 53 54 55 56 56 56 56 56 57 58 58 58 57 62 73 82 82 82 83 85 87 85
27 27 27 27 28 28 25 23 23 22 19 14 11 9 9 9 9 6 2 5 9 13 15 16 19 24 31 38 45 49 54 61 65 66 66 66 66 66 68 71 73 72 70 68 68 68 69 72 74 75 77 79 84 85
27 31 36 40 40 36 32 28 23 21 19 16 14 10 7 4 5 8 10 12 13 12 14 19 23 25 27 30 33 36 39 43 50 56 62 68 74 75 75 77 77 75 73 72 75 78 81 82 82 84 81 80 83 84
22 26 33 35 39 45 41 29 26 24 21 19 17 17 12 19 14 12 13 15 17 18 18 20 22 25 27 29 33 37 41 43 43 46 48 47 51 57 60 61 63 61 61 63 66 66 67 72 76 79 77 75 76 76
32 32 39 37 40 40 40 29 25 24 22 20 17 13 15 18 23 24 22 22 22 22 23 24 26 28 30 32 32 34 37 45 38 35 38 45 51 52 49 50 56 58 55 57 58 60 61 62 63 65 67 68 70 72
26 26 30 29 25 22 24 28 29 30 30 27 23 20 19 19 20 21 20 19 19 20 21 22 23 25 28 29 31 33 38 43 38 36 35 38 44 52 58 54 51 47 48 53 56 58 58 59 59 59 58 59 61 62
23 22 24 26 29 30 31 33 33 34 33 34 34 31 29 27 27 27 26 23 19 18 19 22 26 28 28 28 30 34 37 37 38 37 35 35 36 41 46 49 50 51 50 47 45 45 49 53 56 57 58 59 59 58
27 27 30 31 33 35 36 36 37 36 35 35 35 36 35 34 31 29 28 27 24 24 25 29 34 35 32 29 27 30 29 28 32 34 33 32 31 32 34 37 39 40 40 42 43 41 42 43 44 46 48 51 52 54
30 31 33 35 35 36 37 36 35 35 37 38 40 41 43 43 42 40 38 35 33 30 29 30 34 35 34 30 25 26 30 29 31 32 32 31 31 30 29 28 28 29 30 32 35 37 39 40 40 41 41 41 42 44
30 30 31 32 33 34 35 35 35 35 34 34 34 36 40 42 43 40 38 37 34 31 28 27 29 31 33 32 28 25 26 27 27 27 28 28 28 28 28 28 28 28 27 27 29 30 31 32 34 35 35 36 36 36
35 34 35 33 31 32 33 35 37 38 37 36 38 40 40 40 42 45 45 43 41 36 31 29 29 29 30 31 30 30 30 29 28 27 27 27 26 26 26 26 27 27 28 28 29 30 31 32 33 35 36 36 36 35
32 33 34 32 32 33 36 36 35 37 39 40 41 41 42 44 44 44 44 43 42 40 36 33 32 29 29 31 32 31 30 29 29 30 29 28 28 28 27 27 27 28 28 28 29 29 28 29 30 30 31 32 32 32

GFSWCAN_250_spd_012.txt.gz
Wind_Speed
125 115 113 99 85 74 66 61 55 51 48 44 41 38 37 34 30 28 28 30 31 29 36 36 38 40 44 48 53 58 64 66 69 74 79 87 90 100 110 128 142 144 139 134 126 128 117 104 102 103 101 95 82 77
120 117 106 94 79 72 65 57 53 50 46 42 37 34 31 29 25 22 20 20 20 24 25 27 28 31 34 39 40 43 46 51 56 58 60 65 73 79 88 97 116 129 134 134 134 129 128 115 108 104 104 98 88 79
118 115 100 88 78 70 61 56 50 45 39 35 32 29 25 20 18 15 13 13 13 15 17 18 19 22 26 28 30 33 36 41 41 44 46 53 58 64 75 83 90 103 117 123 125 126 126 113 109 106 104 96 88 83
117 111 98 84 75 66 57 52 46 41 36 33 29 26 23 21 19 16 12 8 4 3 5 8 11 13 16 21 25 27 31 31 30 31 37 43 49 56 67 75 81 89 98 110 111 113 116 99 88 83 92 93 88 82
114 103 94 81 72 63 57 49 44 38 35 34 32 30 26 22 19 16 13 10 6 4 4 3 5 10 15 19 24 26 27 27 29 30 34 39 44 49 58 66 72 79 92 98 102 95 104 90 70 71 65 77 74 74
111 96 87 77 67 58 53 46 40 37 36 34 32 31 30 25 22 20 19 15 11 8 6 6 7 7 10 13 16 19 22 27 28 30 32 37 42 45 52 58 65 73 80 90 99 98 93 80 61 61 42 48 51 56
104 92 80 73 60 53 48 42 39 36 35 32 32 31 31 29 27 24 22 21 18 14 12 8 9 9 11 13 16 18 21 23 25 30 32 36 38 39 46 54 63 67 72 80 87 92 75 68 62 52 45 30 44 44
94 86 75 66 55 48 42 37 35 34 35 35 32 30 30 27 27 27 26 27 24 22 17 13 11 12 15 18 21 22 23 25 28 29 29 31 32 35 38 45 48 53 59 70 77 74 72 58 63 61 59 55 49 52
87 76 70 61 49 43 38 31 30 32 32 30 28 26 26 27 29 28 26 26 28 23 24 24 23 21 22 28 29 30 31 31 30 34 37 39 40 38 38 39 41 45 51 59 63 56 60 63 62 62 60 73 65 61
80 69 63 52 47 41 34 30 26 29 25 21 20 23 23 31 30 29 28 25 23 28 31 35 38 39 39 37 35 41 42 42 42 44 48 50 45 39 38 34 39 39 43 53 51 63 54 63 64 67 60 71 73 70
72 63 55 46 39 34 31 28 25 23 18 19 23 20 26 26 25 23 26 31 38 45 47 47 46 48 43 43 41 43 47 47 44 46 57 62 57 47 39 41 42 37 36 40 40 52 63 63 58 56 57 58 65 66
66 58 49 41 34 32 28 26 23 21 20 16 16 14 27 21 18 19 23 28 37 43 48 49 47 47 41 40 40 41 44 45 49 47 52 55 53 51 47 41 44 45 39 42 47 60 68 66 65 61 52 53 51 50
60 53 45 38 33 30 25 24 21 15 16 15 12 13 14 15 13 19 28 32 41 39 44 45 44 40 38 39 34 38 37 46 50 45 46 44 51 56 51 46 49 49 53 53 56 63 66 62 59 60 54 46 48 49
58 50 42 36 30 25 23 22 21 18 15 14 10 8 11 15 15 21 26 34 34 39 41 40 35 37 36 28 29 35 42 48 46 46 46 43 40 42 49 54 56 53 54 51 52 54 56 54 58 64 53 52 55 51
56 47 40 35 29 25 25 22 21 17 13 13 9 12 7 7 12 15 25 31 34 37 36 34 30 27 26 23 20 22 38 40 44 42 38 42 40 40 40 36 37 39 43 50 50 53 52 56 59 58 55 57 60 57
54 45 38 33 30 26 27 25 21 17 17 18 14 6 5 9 16 12 23 24 32 36 27 28 27 25 23 19 16 21 29 37 44 41 42 40 37 41 44 45 47 44 47 52 49 47 47 53 56 58 57 58 56 54
49 43 37 32 29 26 27 20 18 22 22 20 16 9 5 10 12 11 19 25 33 34 23 19 25 23 22 25 18 18 27 31 36 41 40 41 45 50 49 46 44 46 47 47 47 50 50 54 55 56 57 58 64 62
42 40 36 32 28 27 26 29 27 25 22 18 18 11 8 11 12 16 14 18 33 32 29 20 12 19 22 20 24 24 22 27 32 37 44 42 48 49 46 45 47 50 48 53 55 54 53 59 61 62 64 64 66 65
34 32 32 34 30 24 24 26 29 27 24 24 19 15 10 15 21 14 16 14 24 33 33 27 20 21 21 23 23 25 24 26 26 28 38 48 52 54 52 54 55 54 57 57 58 61 60 60 61 64 68 72 70 69
24 23 26 31 30 28 28 23 23 22 24 22 18 15 14 7 15 20 17 17 14 21 33 32 29 28 24 24 27 28 25 24 25 28 30 32 41 56 62 62 61 59 64 69 67 65 63 65 68 68 65 67 71 72
20 19 22 24 24 25 27 28 25 20 17 17 16 16 15 11 6 17 24 18 21 21 19 25 36 42 37 36 34 34 37 38 37 36 35 36 37 38 42 51 63 70 71 72 75 77 75 73 74 75 75 75 75 76
21 24 29 32 33 29 26 23 22 22 20 17 14 11 8 5 2 1 7 11 20 29 34 36 37 37 37 40 45 51 48 45 46 45 45 47 50 50 50 52 52 56 64 72 80 84 85 83 84 87 87 84 83 85
22 21 22 27 33 36 33 26 20 18 17 17 17 16 16 16 13 9 7 10 15 18 21 24 26 27 30 34 39 44 46 49 55 58 59 58 58 57 57 59 61 62 62 61 61 65 72 76 77 81 86 91 95 97
17 23 21 27 33 35 34 35 31 26 20 16 20 23 22 18 6 11 13 15 16 17 18 21 24 27 31 34 37 37 38 39 40 42 48 54 58 61 64 66 66 68 68 67 68 70 72 74 72 71 73 72 72 74
24 27 29 30 33 34 30 27 27 29 28 25 22 26 26 25 24 24 22 21 21 21 21 22 24 26 24 27 37 38 31 33 39 45 46 45 50 55 55 51 51 53 55 56 57 60 61 65 66 66 69 76 79 80
32 31 30 30 30 29 29 27 27 27 27 28 28 27 26 25 23 23 22 22 23 23 23 22 20 19 20 25 32 37 37 33 32 37 43 48 47 45 47 50 50 49 49 49 51 52 55 58 59 59 60 63 67 70
29 29 30 30 31 31 30 29 29 30 33 34 35 36 35 33 31 29 29 29 27 24 21 19 18 19 23 29 31 31 32 34 37 37 38 40 41 41 43 45 47 47 46 45 45 46 47 50 53 54 54 55 54 55
31 31 30 29 30 31 33 33 33 33 32 32 32 32 34 36 35 35 34 32 27 23 22 22 22 21 25 30 29 28 27 26 25 26 31 34 35 35 37 39 39 41 42 42 43 43 43 42 42 45 47 50 52 53
32 33 32 32 31 30 31 33 34 35 36 36 35 36 37 35 35 36 37 37 36 35 33 29 28 26 26 30 31 30 30 28 26 23 23 27 30 32 34 34 36 37 38 38 38 38 37 36 37 38 40 42 44 46
30 30 31 29 29 29 30 32 32 33 34 35 37 38 38 39 41 43 44 44 43 40 38 35 32 31 28 27 31 31 30 29 29 29 28 27 27 28 29 30 31 33 34 35 35 35 34 33 33 33 34 35 37 38
24 28 31 34 36 37 37 37 37 37 38 38 40 40 41 42 43 44 44 44 44 42 41 39 35 32 31 27 25 28 29 29 29 29 29 29 29 29 30 30 31 32 33 33 34 34 33 33 33 32 33 33 33 34
31 34 36 37 37 39 37 37 38 37 36 36 37 38 41 43 44 48 49 46 46 43 39 37 35 32 31 29 27 25 25 26 28 29 30 31 31 30 31 32 32 32 32 32 32 32 32 31 31 30 30 30 31 32
33 35 35 36 36 39 38 38 37 37 35 37 39 42 44 43 43 47 51 48 45 41 38 37 36 33 30 29 26 25 25 25 26 28 30 31 33 35 34 34 33 33 32 31 30 29 29 29 28 28 28 28 29 29

GFSWCAN_250_spd_015.txt.gz
Wind_Speed
116 118 118 110 99 84 75 65 59 56 51 47 41 37 35 33 31 29 27 23 22 23 23 27 32 38 44 50 56 64 69 76 85 97 109 116 123 125 122 118 119 120 118 116 108 103 98 94 92 93 87 81 77 76
117 119 112 105 90 79 69 63 57 54 49 44 38 34 32 30 27 25 23 20 16 15 15 18 22 28 34 39 45 53 57 61 68 74 82 88 100 115 127 126 123 121 117 115 112 107 100 98 97 97 90 87 83 83
116 115 109 96 84 75 67 59 56 51 47 40 36 33 32 29 26 23 21 19 14 10 9 12 17 21 24 29 35 40 44 49 55 58 61 69 75 82 97 110 120 123 122 119 118 113 105 106 100 100 90 90 82 80
113 109 106 92 79 71 62 56 52 47 43 39 36 34 33 32 28 24 20 17 15 13 7 2 7 12 17 20 24 29 33 36 40 43 47 54 61 68 75 83 90 101 116 122 126 122 114 108 104 101 96 91 82 84
108 106 97 88 74 66 58 52 48 43 41 37 37 38 35 31 27 25 23 20 19 16 12 8 3 2 6 8 13 18 22 25 27 31 35 44 49 55 60 66 75 82 90 99 112 119 119 114 112 110 107 95 91 93
102 104 91 82 70 60 53 48 46 42 41 36 34 32 33 33 28 26 24 23 21 21 19 13 10 7 8 8 9 10 14 19 22 26 31 33 38 44 48 55 61 62 73 71 78 96 108 110 104 74 103 72 86 95
100 96 90 78 65 56 49 44 43 39 38 34 31 29 30 31 32 30 29 27 25 23 21 17 14 11 13 14 13 13 15 16 17 20 22 24 29 33 38 41 43 47 53 59 65 79 98 101 100 104 68 58 77 88
100 89 84 73 61 53 44 40 40 37 33 32 30 27 29 32 32 33 31 29 27 24 25 25 23 20 18 20 20 16 19 19 19 19 19 18 20 24 31 38 36 40 48 57 63 75 84 91 76 59 50 54 61 66
97 81 79 66 57 49 41 38 37 35 31 29 25 24 27 29 28 28 28 31 33 37 34 34 36 36 31 28 28 26 25 23 24 23 21 20 21 23 25 28 33 40 45 54 60 62 80 92 72 80 66 63 63 54
90 77 75 62 54 47 40 35 32 30 23 26 24 20 21 24 24 24 27 31 36 33 36 36 34 40 41 42 42 42 42 46 46 38 33 30 24 24 24 26 28 33 44 53 58 66 78 89 90 79 84 77 57 46
79 73 70 59 51 43 37 34 29 25 19 23 24 20 21 19 17 14 18 24 32 37 37 35 36 43 47 51 52 52 54 53 54 49 46 43 36 29 24 24 29 32 37 45 51 62 75 89 102 91 86 91 59 51
72 69 65 57 48 40 32 31 28 23 19 19 19 16 20 11 12 18 18 21 24 32 31 31 33 45 52 57 57 56 57 55 52 46 43 41 35 31 27 21 25 25 25 33 53 65 70 85 91 90 94 69 69 64
67 63 61 54 44 35 30 26 25 20 14 12 14 17 10 12 16 14 17 21 24 27 27 26 35 42 50 49 52 54 57 51 47 45 43 36 35 30 30 27 21 26 30 32 47 53 73 79 74 72 57 60 59 58
62 56 54 50 43 36 28 23 20 15 13 13 13 9 9 8 14 10 17 19 19 22 26 19 29 35 39 37 41 53 47 47 48 44 46 42 36 33 31 28 21 18 21 30 38 45 48 50 53 56 60 68 57 57
55 50 48 44 40 34 24 21 16 14 12 9 12 6 6 4 5 12 16 18 22 20 19 19 20 31 36 32 32 37 39 41 44 41 46 39 39 43 40 36 38 37 36 32 32 35 31 35 49 57 60 63 56 56
49 46 42 39 35 33 29 24 19 16 12 8 4 6 5 3 6 16 18 15 18 18 13 8 9 17 26 29 28 27 28 29 30 36 40 38 32 33 39 40 41 40 42 37 34 39 40 42 41 43 57 56 58 61
47 42 36 33 32 28 26 24 21 15 12 11 6 4 8 3 4 9 15 10 11 14 8 3 5 6 1 17 28 30 31 30 30 31 35 35 33 35 36 37 36 37 35 38 41 37 45 45 47 47 52 55 61 62
41 34 29 28 30 29 25 24 24 26 18 11 7 4 9 7 6 4 16 15 16 9 10 10 8 7 7 8 4 23 32 29 29 33 39 36 33 36 37 38 38 38 41 42 40 42 44 46 48 53 54 54 58 59
33 29 24 22 24 26 25 26 25 24 20 20 11 7 14 14 12 11 6 14 21 18 12 12 12 11 13 16 14 13 16 35 39 38 36 37 38 40 43 46 46 47 46 47 46 43 47 52 54 57 58 58 62 63
23 25 26 23 22 19 19 22 21 20 20 20 19 16 2 13 18 18 17 10 18 28 21 21 22 22 24 21 18 21 24 21 21 35 47 48 47 48 50 49 50 52 52 51 53 55 55 57 62 63 63 67 69 69
27 27 23 20 21 20 20 20 18 16 15 12 12 12 13 15 11 15 22 24 24 22 21 24 34 38 34 33 32 32 30 29 29 31 31 30 34 43 54 54 59 63 63 65 63 62 63 66 66 70 73 74 73 73
25 22 20 20 20 20 23 22 19 16 15 13 14 12 9 8 7 9 13 15 21 28 31 32 33 35 36 36 37 38 39 38 40 40 40 41 43 41 41 43 48 58 68 70 70 73 73 73 74 74 75 76 78 81
19 18 20 24 23 24 26 26 23 21 24 25 27 22 13 10 11 14 17 19 21 24 27 28 32 33 31 31 32 31 32 33 34 36 38 40 41 45 47 49 51 50 50 54 65 73 78 81 81 82 83 86 88 88
25 28 27 27 28 27 24 22 24 27 27 28 28 27 26 25 23 22 21 19 19 22 26 29 33 35 32 29 30 31 31 32 34 37 42 41 37 36 36 39 43 47 52 57 59 60 62 68 75 81 84 91 94 95
27 29 30 30 30 30 30 30 28 27 27 26 25 25 25 26 26 25 23 22 21 20 22 26 27 25 24 24 25 26 28 31 35 39 42 44 42 38 37 36 38 40 43 46 49 52 53 56 60 65 70 73 77 82
29 29 30 30 30 31 31 30 31 31 30 28 28 29 30 30 29 29 29 29 28 29 28 28 27 26 24 23 22 24 27 31 33 32 32 35 39 40 39 38 38 38 38 41 43 44 48 51 52 54 55 56 58 62
30 30 31 30 29 30 30 31 30 29 29 30 31 31 30 30 32 31 30 32 30 27 27 28 28 27 26 25 25 26 27 30 34 34 31 29 29 30 31 31 33 36 38 39 41 42 44 44 46 47 48 50 52 53
31 33 34 34 34 34 34 33 33 32 32 32 32 31 31 32 31 33 35 36 35 35 35 34 33 33 30 26 24 23 23 25 29 33 32 30 27 27 27 29 31 32 32 32 34 36 38 39 40 41 41 42 44 44
30 32 33 33 36 37 36 34 34 33 32 34 35 36 36 35 34 38 42 44 43 39 38 35 32 30 29 26 25 25 24 23 24 26 27 28 29 29 29 29 30 31 31 31 31 32 33 34 35 36 37 38 38 40
35 36 34 34 35 36 35 36 33 31 31 33 36 40 43 44 44 44 45 47 47 45 43 40 38 36 33 30 28 27 26 23 22 22 24 25 26 28 28 29 30 31 32 33 34 35 36 35 35 35 35 35 36 37
31 33 34 34 34 35 39 42 42 43 44 44 45 46 46 46 45 46 47 47 48 46 43 43 42 38 35 33 30 29 28 27 26 25 25 26 26 28 29 30 31 32 32 33 34 34 34 34 34 34 33 33 33 33
26 32 36 36 37 39 43 46 46 45 44 44 45 44 42 43 44 46 49 48 46 44 42 41 40 37 34 32 29 27 27 28 29 30 31 32 32 32 33 34 34 33 33 32 32 31 30 29 29 29 29 29 29 28
27 31 37 37 36 38 41 43 43 42 44 43 45 42 42 47 49 51 51 48 46 46 45 41 37 38 36 33 32 31 31 31 31 32 32 33 34 35 35 34 33 32 31 30 29 29 28 27 27 26 25 24 24 24

GFSWCAN_250_spd_018.txt.gz
Wind_Speed
102 110 112 112 105 90 82 74 66 60 54 50 46 45 41 37 32 31 27 24 21 16 14 18 24 29 36 43 51 58 64 73 85 95 102 109 107 103 99 105 108 108 108 103 103 101 94 91 91 88 76 75 76 74
104 109 111 108 101 88 77 69 61 57 50 49 49 44 39 35 33 30 25 23 21 17 10 9 12 17 24 32 39 44 50 57 66 75 85 96 103 109 106 102 105 100 99 102 99 90 93 97 96 91 85 82 80 78
104 107 110 104 93 86 73 65 58 51 48 47 47 43 39 38 35 31 24 21 19 18 14 7 2 5 12 18 24 29 35 43 51 58 68 78 87 95 103 109 107 101 102 100 98 89 88 93 92 91 90 85 84 84
103 107 107 101 85 82 69 59 54 48 44 44 44 41 39 38 36 34 28 22 20 22 18 12 7 3 4 8 13 17 22 29 36 45 53 61 68 75 87 94 99 107 109 104 98 95 90 87 87 86 87 89 88 86
103 105 101 97 82 76 64 56 50 44 41 40 40 36 34 35 37 33 31 27 25 24 21 17 13 11 8 5 6 10 14 19 24 31 38 45 52 59 67 76 87 93 100 101 100 101 96 91 90 89 85 86 83 81
102 103 97 90 80 72 62 53 46 40 37 34 34 31 33 36 35 33 30 28 27 26 24 21 19 16 15 12 11 11 11 13 15 19 25 30 36 44 51 58 67 73 79 85 97 103 102 99 93 90 88 88 85 78
102 98 98 84 76 68 59 49 43 37 32 29 32 28 29 27 29 25 26 27 29 31 29 27 27 25 22 19 16 15 16 15 15 15 15 18 23 30 38 43 47 52 59 65 74 83 97 106 105 96 89 87 90 89
100 94 95 78 70 64 54 47 40 35 27 30 25 24 26 25 27 29 31 29 30 31 33 33 29 32 27 25 21 17 19 18 16 14 13 15 16 19 22 28 33 37 44 50 56 61 70 88 99 102 103 95 92 84
95 93 88 76 66 60 49 41 35 30 23 30 22 21 23 29 29 26 27 26 27 30 40 40 40 37 37 33 29 27 26 24 19 19 14 12 14 15 16 20 26 31 36 41 43 47 54 64 79 89 98 98 92 86
91 93 81 70 63 57 47 37 31 25 20 20 26 20 20 23 25 22 27 24 23 27 38 46 52 51 48 44 44 45 40 41 42 35 31 29 20 22 18 20 27 29 30 34 38 41 42 52 64 79 74 71 78 76
89 89 72 63 57 52 43 33 28 20 15 19 25 15 20 25 17 14 20 25 24 38 41 47 49 49 53 52 51 50 48 46 50 51 50 44 39 28 29 25 21 23 24 26 31 46 53 43 61 66 79 81 93 63
89 78 66 59 53 48 38 29 25 18 14 15 20 12 22 16 12 14 18 19 25 35 40 41 46 51 46 44 47 50 50 48 44 44 53 52 47 37 34 28 21 18 10 13 17 28 51 58 76 96 97 90 87 78
85 68 60 55 49 45 33 25 21 15 13 17 17 22 22 12 11 11 18 18 24 34 34 39 47 41 39 38 40 42 42 41 38 40 46 46 46 41 30 20 17 18 13 19 12 15 32 56 80 83 81 78 82 73
72 59 56 49 46 42 31 23 19 15 14 16 20 20 18 11 6 10 13 21 29 30 29 40 35 32 33 29 33 35 35 34 42 39 42 37 30 23 25 26 20 17 12 22 33 30 25 54 82 75 75 82 85 84
60 54 49 45 41 36 30 22 17 13 12 12 21 15 13 5 3 9 11 18 24 24 25 26 22 21 20 18 19 23 27 31 29 41 38 36 36 26 20 15 6 16 23 18 43 42 39 58 79 84 75 72 85 78
51 44 41 41 39 33 30 26 17 11 9 8 14 14 12 6 7 5 10 8 8 18 25 22 21 17 14 11 9 10 18 25 24 32 30 36 36 35 30 28 24 13 6 17 18 42 45 55 84 90 95 89 95 77
40 35 40 39 35 29 29 26 23 18 11 7 7 10 9 9 9 10 6 6 7 14 6 18 20 18 17 16 11 13 11 23 25 22 23 29 36 37 33 29 25 26 28 27 21 27 51 56 55 68 87 80 86 93
34 38 39 36 31 26 25 21 20 22 16 10 8 9 8 6 5 8 13 14 13 14 15 11 8 15 21 24 21 17 18 28 29 24 25 27 27 31 33 30 29 26 23 26 24 24 23 31 46 54 44 50 44 55
35 36 36 33 30 24 21 21 19 19 18 13 10 10 16 15 18 11 9 17 21 25 27 26 22 15 13 12 21 30 30 29 31 34 36 36 34 37 37 37 37 36 33 32 34 37 36 37 39 40 42 46 46 47
30 30 31 27 26 22 18 19 18 18 16 14 12 9 8 7 16 19 21 18 16 19 27 28 28 31 28 23 22 20 17 33 40 35 40 44 45 46 44 45 46 48 47 47 46 44 44 45 48 50 50 54 58 57
29 26 26 24 21 22 21 19 19 21 17 14 12 12 13 14 17 17 17 22 22 22 21 21 25 29 31 35 31 23 25 30 31 34 43 50 49 52 54 52 54 55 56 57 58 58 57 58 60 62 63 63 65 68
27 27 27 26 25 24 22 23 23 22 19 14 14 13 14 16 21 21 21 23 28 29 27 26 26 25 24 24 24 26 28 29 30 35 39 41 46 57 66 63 62 65 67 67 69 70 71 71 70 70 71 74 74 77
24 24 26 27 26 26 25 25 23 22 22 22 22 22 22 22 21 21 20 21 24 26 26 27 26 27 29 30 30 31 31 31 30 30 29 29 32 37 43 51 57 64 71 76 77 78 78 78 78 80 83 82 82 84
26 25 26 26 26 26 24 24 25 26 26 27 27 27 25 23 24 26 26 25 26 26 23 22 23 25 25 25 28 31 32 30 30 29 29 29 29 31 34 38 43 49 56 61 66 69 72 79 84 88 89 90 90 89
30 29 28 29 30 30 30 30 29 28 29 30 29 28 29 29 27 27 29 30 29 29 29 29 27 24 24 25 26 27 30 32 33 31 29 28 28 29 30 32 34 38 44 49 53 57 62 67 72 74 76 78 81 86
31 31 30 32 34 35 34 33 31 30 29 28 28 30 33 35 33 31 32 35 37 36 33 30 28 25 23 24 28 28 28 29 30 32 32 32 31 32 34 34 35 36 36 38 41 46 49 53 55 58 62 66 70 73
32 33 33 33 34 35 35 34 33 32 29 28 27 29 31 33 35 35 35 36 36 36 36 33 32 33 33 33 33 32 30 29 28 28 28 28 28 28 29 31 31 31 31 31 33 36 40 43 45 49 52 54 57 59
30 31 33 33 33 34 37 39 38 36 35 33 33 33 32 31 33 35 38 40 43 42 40 38 37 35 32 28 27 29 29 28 28 29 29 27 25 26 26 26 26 26 27 29 29 30 32 34 37 40 42 44 46 49
27 31 34 35 35 36 37 38 36 35 35 35 36 37 37 38 40 41 43 44 43 43 44 46 43 37 32 30 29 28 26 26 26 27 27 29 30 29 29 28 26 24 24 25 26 28 28 30 32 34 36 38 40 42
23 26 32 38 37 36 35 36 36 35 35 36 41 44 45 46 47 48 48 47 43 43 46 46 43 38 34 31 29 26 25 25 24 26 26 27 28 30 31 31 31 30 29 28 29 30 30 30 31 32 33 34 35 35
30 33 35 38 38 37 37 36 37 38 40 42 43 45 47 49 50 50 49 47 44 44 47 44 43 41 36 32 31 30 29 29 29 30 29 28 27 27 28 29 29 30 31 31 31 31 31 31 31 30 30 30 30 31
29 32 36 37 36 37 36 38 39 41 43 44 46 46 47 49 50 50 49 47 45 45 47 44 42 42 40 35 35 35 34 33 31 31 30 30 30 29 29 29 30 29 29 29 29 28 28 27 27 27 27 27 27 27
27 30 31 33 34 35 37 39 40 41 43 43 44 44 46 47 48 48 48 48 48 47 48 46 43 43 41 39 39 38 37 36 34 33 31 30 30 29 29 29 29 28 27 26 25 25 25 24 24 23 23 23 23 24

GFSWCAN_250_spd_021.txt.gz
Wind_Speed
89 94 99 104 109 106 98 84 74 60 53 48 46 47 46 46 41 36 31 29 25 21 17 12 10 14 18 24 30 39 47 56 64 73 80 89 96 101 97 96 96 96 98 100 103 101 99 93 93 88 86 85 80 75
93 95 100 105 110 103 93 80 67 56 49 46 43 45 44 44 42 39 34 31 27 23 19 12 5 5 9 15 21 30 39 46 53 62 71 79 87 94 100 99 93 92 90 99 99 96 98 101 97 94 92 89 83 82
93 95 101 106 110 102 86 75 61 53 45 40 39 40 40 40 41 39 36 35 31 27 24 17 10 6 3 4 11 21 31 38 44 51 60 70 78 88 95 101 99 94 96 88 94 94 96 99 101 98 94 90 87 84
92 95 101 107 108 101 81 70 56 50 42 36 34 32 35 38 38 36 36 34 32 27 24 19 17 13 8 7 8 12 19 27 34 42 48 56 65 75 86 98 100 101 93 92 88 91 98 103 101 97 96 93 91 86
92 94 101 108 104 99 77 68 53 45 37 31 28 31 32 33 30 34 34 35 34 32 30 27 23 20 14 10 9 10 13 18 25 31 38 45 53 61 72 85 98 98 99 92 87 90 90 100 99 97 95 95 94 90
92 94 101 106 100 90 75 65 51 40 31 26 26 27 29 26 26 32 29 33 35 36 35 32 28 25 21 17 13 11 12 14 15 19 25 32 41 49 57 67 82 99 104 98 93 91 88 91 94 97 98 98 94 91
92 95 101 102 97 80 70 59 47 36 26 23 24 26 28 21 24 26 29 35 35 38 38 37 33 26 27 21 18 16 13 13 12 13 14 18 25 31 39 49 59 71 88 101 102 94 89 89 89 92 95 97 96 95
90 96 101 97 93 72 63 54 43 33 21 21 20 26 24 22 24 33 31 30 30 36 38 41 40 37 33 28 24 19 20 19 19 17 16 15 17 22 29 34 42 51 63 78 94 101 99 92 87 88 91 93 96 94
89 97 99 92 81 68 56 49 37 29 18 17 19 22 20 24 29 30 28 30 32 36 36 40 43 43 36 30 27 27 31 34 31 27 20 17 16 16 16 21 29 36 43 52 65 82 97 99 93 92 87 91 92 92
92 96 93 90 68 59 49 41 31 25 14 14 16 20 14 35 28 28 29 32 32 30 33 40 46 48 51 46 39 41 41 42 43 39 37 34 27 23 19 17 16 21 27 34 44 57 75 94 103 99 95 94 90 94
92 93 89 72 61 48 44 32 24 18 10 10 15 14 26 28 25 17 21 26 30 28 40 46 45 46 50 51 52 48 39 41 43 40 46 45 39 37 33 32 25 19 17 27 32 40 53 67 79 89 97 98 102 97
88 86 77 61 52 44 39 27 22 12 9 12 13 14 31 25 15 11 12 22 22 26 39 37 40 45 43 44 47 49 49 49 47 43 38 38 42 42 36 39 41 45 45 42 39 42 43 52 61 63 78 92 97 106
82 80 62 51 45 42 38 26 20 10 9 13 5 23 21 20 13 13 10 13 17 30 30 29 33 37 36 34 32 34 42 45 43 36 34 34 31 29 26 19 37 56 54 49 48 54 58 59 52 58 62 73 74 92
78 65 49 45 41 40 36 25 18 12 12 13 9 17 13 11 8 4 11 18 17 21 25 23 24 23 27 27 25 24 27 29 32 36 38 34 30 27 20 21 20 30 44 40 47 50 50 45 37 45 43 53 59 69
63 51 44 38 37 35 33 26 18 13 12 8 7 12 9 6 5 8 10 13 20 12 15 14 21 24 22 19 20 21 21 16 22 27 29 30 30 29 26 26 26 23 22 19 18 19 26 42 52 65 64 62 53 55
51 43 37 33 34 32 29 27 24 13 8 8 7 8 10 6 2 5 7 17 16 17 10 10 12 15 20 22 21 24 22 19 12 18 21 24 17 17 22 31 28 25 27 28 21 22 21 30 50 53 65 64 65 68
42 36 34 35 33 31 28 24 23 15 11 11 9 9 9 6 12 13 13 11 6 12 13 14 15 16 14 19 21 21 25 22 22 20 21 17 17 18 18 17 17 16 27 37 36 35 37 36 53 59 71 69 71 76
33 32 32 33 30 28 23 22 24 23 14 13 14 12 10 5 7 10 14 16 19 19 13 9 16 20 20 23 23 24 28 27 29 26 29 31 26 21 22 23 21 21 21 25 30 30 35 42 44 68 82 80 76 78
31 32 31 29 27 25 23 21 18 16 14 13 14 13 13 15 16 15 13 18 21 24 24 24 20 17 18 25 24 32 32 33 36 33 36 36 34 34 35 33 31 29 29 32 30 29 27 34 47 50 81 91 85 84
30 29 30 29 29 29 28 26 24 23 22 21 21 21 20 19 19 15 14 14 16 18 20 22 25 26 25 24 26 26 31 40 43 43 45 44 46 45 44 42 38 39 40 40 40 40 37 36 36 39 53 90 92 89
27 27 27 27 27 27 26 25 23 21 20 20 18 17 18 19 20 20 19 19 19 20 21 22 22 23 25 27 28 30 31 34 37 40 48 55 54 53 53 55 56 54 53 53 52 51 48 47 47 48 47 49 58 72
26 27 26 24 25 25 24 24 24 22 20 20 19 19 19 19 19 19 18 19 20 21 23 26 29 29 27 26 26 29 31 32 34 41 45 47 53 61 60 60 64 65 65 66 66 64 63 60 59 59 61 62 63 63
27 28 29 30 29 28 27 27 25 23 21 21 21 22 24 25 24 23 23 24 26 26 26 26 27 28 30 30 28 26 25 25 29 33 38 43 49 52 55 59 64 67 68 72 71 69 72 73 72 72 72 72 71 72
30 29 29 30 31 32 32 30 29 28 28 28 28 28 28 27 25 25 25 26 28 31 32 31 28 27 28 30 32 32 29 28 26 25 26 30 35 41 47 51 57 62 64 66 69 74 76 76 77 78 78 79 80 80
28 29 29 28 30 32 33 33 32 31 30 29 31 33 33 31 29 29 31 33 33 32 29 26 26 28 29 28 27 26 27 27 27 28 27 27 28 31 35 39 43 48 52 55 58 62 66 69 73 75 76 78 80 82
25 27 29 30 31 31 31 33 32 31 30 30 31 31 32 34 35 36 35 35 35 29 28 31 33 33 31 29 28 26 24 22 22 24 26 27 28 28 29 32 35 39 42 44 46 50 54 57 61 66 68 66 65 67
24 26 29 33 34 32 31 32 32 32 31 30 31 31 33 34 35 35 36 37 34 34 36 37 37 36 34 32 31 28 27 26 24 22 22 24 26 29 31 32 32 33 34 35 36 39 41 43 45 48 52 55 59 61
26 27 28 31 33 31 32 31 30 31 33 34 34 35 35 37 38 39 37 38 38 39 40 42 42 40 37 36 36 34 31 28 27 28 28 25 23 24 26 28 31 32 33 33 34 35 37 38 39 41 42 44 46 48
27 29 30 31 30 31 31 30 30 29 30 31 33 35 36 38 39 39 40 41 40 42 43 43 44 42 38 36 37 35 34 33 31 29 28 29 30 30 29 27 25 25 27 30 33 34 35 36 37 38 38 39 40 41
24 24 24 28 31 33 33 33 33 34 34 35 36 37 39 42 43 44 44 44 44 45 46 46 46 45 40 37 37 35 34 35 33 31 28 27 27 27 28 29 29 29 29 29 29 29 31 33 35 36 37 38 39 39
21 21 26 29 32 36 38 40 40 40 39 38 38 40 43 45 46 46 47 46 46 47 48 48 48 45 41 39 38 35 33 33 32 31 30 28 27 25 25 25 26 27 28 29 30 31 31 31 30 31 32 32 33 34
17 23 29 34 35 38 40 43 45 45 44 43 40 40 41 43 45 46 47 48 48 49 50 49 46 43 42 39 36 35 34 32 31 30 30 29 28 26 25 25 24 23 23 24 24 24 25 26 26 27 27 27 28 28
20 25 31 32 34 37 40 45 48 49 50 49 47 43 40 42 44 47 48 49 49 49 49 47 45 42 40 38 37 35 33 32 31 30 29 29 28 27 25 23 22 22 21 20 20 20 19 19 20 20 20 20 20 21

GFSWCAN_250_spd_024.txt.gz
Wind_Speed
84 92 94 94 96 99 106 108 102 82 70 58 50 40 41 41 40 38 37 37 33 30 27 20 14 9 6 15 22 29 36 43 51 58 70 81 88 93 96 100 96 91 96 99 103 100 96 92 89 89 91 86 83 77
87 92 95 94 95 98 105 106 98 79 65 53 43 35 38 36 35 36 37 37 36 32 26 21 18 13 3 8 16 21 28 36 43 50 60 70 81 86 94 99 98 92 92 96 98 98 96 94 94 92 91 89 88 84
86 91 94 93 96 98 105 102 90 75 60 49 38 33 33 32 31 32 33 36 35 33 27 23 19 15 10 1 8 14 21 29 34 40 49 59 70 81 89 95 96 96 89 89 91 93 94 93 92 95 95 92 91 91
84 92 95 93 94 98 102 98 78 65 52 41 31 30 30 29 27 28 32 34 34 33 31 28 23 18 14 11 7 6 13 21 27 32 38 48 60 74 84 94 96 98 91 86 85 89 94 99 99 100 100 97 93 91
86 93 92 93 92 98 98 88 71 56 45 33 26 25 27 21 22 27 29 32 32 30 29 27 24 22 19 17 16 12 10 11 15 21 27 34 47 61 77 86 91 93 97 88 82 88 90 95 104 99 96 97 96 93
89 95 92 91 92 96 91 72 62 50 37 26 21 21 21 16 17 20 27 31 33 32 33 30 27 25 27 24 21 22 20 16 16 18 22 27 34 45 57 73 87 96 97 94 91 86 84 89 93 99 100 101 101 97
91 92 90 89 92 90 80 67 56 39 30 19 16 18 17 11 14 15 24 33 34 33 29 30 31 28 32 31 30 28 24 22 19 17 17 21 28 35 45 58 73 87 95 95 96 90 84 86 88 92 97 101 101 101
90 90 88 89 90 84 67 61 46 31 23 11 13 18 12 11 13 16 24 35 35 32 26 27 32 33 38 40 40 38 35 33 28 24 18 16 18 25 33 45 60 77 93 101 103 96 95 84 81 84 89 96 100 102
89 86 86 89 86 75 58 52 35 27 13 6 14 15 11 4 11 21 34 36 33 32 30 29 36 41 50 48 46 43 41 40 37 37 32 28 19 17 18 32 45 57 74 92 95 96 93 88 80 78 83 88 96 100
84 82 85 85 80 64 58 44 30 22 8 7 14 8 13 12 11 16 30 29 28 39 39 33 35 39 45 43 40 42 47 44 47 42 39 38 32 20 10 19 26 35 49 66 79 86 86 84 86 82 81 84 88 93
77 81 82 80 71 57 47 36 26 17 5 10 14 9 12 10 16 26 22 23 27 34 41 42 37 33 37 36 42 40 43 42 47 47 44 40 36 34 25 14 8 18 27 39 52 67 86 93 91 95 91 86 89 89
76 78 77 70 60 49 39 32 21 11 7 14 10 13 10 14 15 16 17 17 17 16 33 37 36 34 31 32 33 34 37 37 43 41 38 39 41 43 37 37 29 23 22 27 36 49 65 82 92 88 87 90 89 90
74 73 64 58 48 37 32 28 19 7 5 11 11 10 13 12 9 8 14 15 12 7 19 29 31 30 25 25 21 20 26 29 35 37 40 41 39 44 40 42 42 43 41 36 38 45 56 68 83 92 95 97 99 95
69 59 53 47 37 30 26 24 15 9 3 2 8 7 11 11 9 9 18 16 13 16 21 22 25 26 23 24 21 18 13 14 16 30 29 32 32 37 36 33 40 39 45 37 43 45 50 51 59 75 91 95 93 100
55 53 46 37 31 27 23 20 14 7 1 4 4 3 6 6 11 12 12 16 14 14 14 17 18 20 22 22 18 16 18 16 18 19 25 30 30 30 27 20 32 31 32 33 45 52 50 50 50 54 63 72 75 86
48 46 41 34 30 26 23 17 17 6 4 2 6 9 7 7 7 10 17 18 22 20 15 14 19 20 22 20 19 18 16 16 17 20 23 32 30 27 26 22 29 18 25 29 31 47 50 45 48 42 50 57 60 58
42 37 35 33 30 27 24 21 18 12 6 4 4 5 5 9 12 14 14 19 24 24 25 24 23 23 24 26 27 25 23 21 19 17 19 25 34 31 33 31 36 34 27 21 20 37 47 41 43 44 52 58 58 60
35 32 30 31 30 27 25 24 24 22 19 17 16 14 11 8 11 14 16 16 15 19 23 28 31 31 31 32 32 34 33 32 27 28 26 22 34 39 37 40 41 43 44 42 47 42 49 47 51 56 57 60 64 63
32 30 29 27 27 26 26 27 27 25 23 22 20 17 16 16 15 13 14 15 14 17 21 23 24 26 36 37 39 38 40 42 41 38 38 35 33 32 39 45 36 41 47 47 51 51 52 52 56 61 66 64 73 70
29 29 29 29 30 28 27 25 24 23 22 21 19 19 19 20 22 21 18 15 15 15 17 19 20 21 21 26 29 39 42 43 44 49 49 47 47 45 44 44 45 47 48 46 47 49 53 54 54 53 57 70 79 74
29 29 29 30 31 31 31 29 27 25 24 24 24 23 22 21 21 21 21 22 23 24 25 26 26 26 25 22 21 25 29 39 48 44 49 54 56 57 57 55 55 55 54 52 51 50 51 53 56 61 61 60 62 68
30 29 28 29 31 31 31 31 29 27 25 24 24 25 26 26 24 23 22 22 23 25 25 26 28 28 28 29 27 24 23 25 31 37 45 52 51 54 61 64 64 65 63 61 60 59 58 58 56 56 57 58 58 61
28 29 30 31 32 32 32 31 31 31 29 28 28 26 26 27 28 29 29 29 29 29 27 26 26 26 27 28 29 27 25 24 24 28 33 38 44 49 53 58 63 67 69 68 68 68 67 66 65 66 66 65 63 62
26 28 30 33 34 33 31 31 30 31 30 31 30 30 30 29 30 31 30 31 32 30 27 27 29 28 28 28 26 26 27 26 25 25 26 30 35 40 45 49 53 56 59 63 66 68 70 72 72 73 71 70 72 72
24 28 30 31 33 33 30 29 29 29 30 29 31 33 34 34 34 35 35 35 35 34 31 31 32 32 30 28 25 23 22 21 21 22 24 26 28 31 36 43 47 50 52 54 56 58 59 62 64 66 66 67 70 70
24 27 29 30 31 29 28 28 29 30 30 31 31 32 33 35 37 37 36 37 38 36 33 32 33 34 34 32 29 27 25 23 22 22 24 25 27 29 30 33 38 43 46 49 50 51 51 52 53 54 55 56 57 59
23 27 29 29 27 28 29 29 30 32 34 35 35 34 33 34 36 36 37 38 39 37 37 39 40 39 37 35 32 30 30 29 26 24 22 22 24 25 27 28 30 33 36 41 45 48 49 49 50 50 51 51 52 53
23 26 25 24 26 28 30 32 33 34 35 34 33 33 33 34 35 35 34 36 37 37 38 39 40 40 39 37 35 33 32 31 30 29 28 28 24 21 22 24 28 31 34 36 37 38 41 43 46 47 47 47 47 48
22 21 21 24 26 29 33 35 36 37 39 40 37 34 32 34 35 37 38 39 39 39 39 42 43 42 41 40 39 36 34 32 30 28 26 25 26 26 26 24 23 23 25 29 33 36 37 38 38 39 40 41 42 42
13 16 18 22 27 32 37 41 42 44 45 46 46 43 40 37 37 40 42 44 45 46 46 46 44 42 40 37 35 35 35 33 31 30 28 27 26 26 26 26 25 25 24 24 24 26 29 31 34 36 37 37 37 38
11 15 20 25 30 37 43 46 46 47 50 50 49 49 46 43 41 43 45 47 47 47 46 45 44 42 40 39 37 34 33 33 32 30 28 26 25 24 24 24 24 24 24 24 24 25 26 27 28 29 31 33 34 35
11 15 23 30 33 37 42 46 53 55 54 54 53 50 47 45 43 44 46 47 47 47 46 43 41 40 39 38 36 35 34 32 30 29 27 25 23 21 20 21 20 20 20 20 20 20 21 21 22 23 24 24 25 26
15 21 27 30 31 34 40 45 53 57 57 57 57 53 47 44 44 47 48 48 47 47 44 42 40 39 38 36 35 34 33 32 30 29 27 25 24 23 22 20 19 18 18 18 18 17 16 16 15 16 17 18 18 19

GFSWCAN_250_spd_027.txt.gz
Wind_Speed
84 86 84 87 90 95 101 98 98 96 84 72 57 46 36 34 35 40 41 39 41 42 39 32 27 19 11 1 9 18 25 34 42 52 64 77 89 101 108 110 106 100 99 101 100 100 98 97 94 94 93 88 79 75
84 85 86 90 92 95 99 96 97 91 72 66 50 39 31 29 34 37 38 40 41 45 41 35 30 25 16 8 4 10 16 25 34 43 52 63 77 89 106 107 108 102 97 98 103 99 99 98 92 91 89 87 81 75
84 84 87 89 91 95 97 94 93 82 67 59 41 33 26 27 31 36 38 36 39 44 42 35 31 27 23 15 8 4 9 17 26 33 43 53 66 77 94 103 108 105 99 95 92 93 97 94 88 85 88 88 85 83
81 85 87 90 91 95 93 93 86 68 63 50 34 26 22 25 29 33 35 35 39 42 37 33 30 27 26 22 15 10 9 14 19 26 35 43 54 67 79 95 99 103 103 98 92 91 91 94 83 82 89 90 93 89
82 85 85 90 92 94 89 86 78 60 53 40 28 19 16 22 24 29 32 35 39 36 40 37 33 31 32 29 24 17 13 12 15 20 27 36 43 54 67 81 94 99 101 102 97 94 87 89 96 95 94 94 96 94
82 86 88 91 94 90 89 79 65 53 39 32 19 13 16 17 20 23 29 31 32 37 41 40 36 38 39 40 36 29 23 16 11 14 21 27 33 44 56 69 84 95 100 100 101 97 92 85 86 91 94 94 93 96
84 85 87 90 91 88 81 73 53 43 30 22 12 10 15 13 15 18 25 29 32 35 42 41 42 45 43 46 45 41 33 26 20 14 12 15 22 35 49 62 76 89 96 99 100 96 89 88 83 88 90 90 94 96
78 82 85 89 86 84 75 65 48 34 22 13 4 5 12 8 12 14 24 27 28 32 34 27 35 39 41 43 40 42 39 36 28 21 16 13 11 21 34 51 69 85 95 100 100 98 98 93 85 83 90 92 91 91
75 79 84 84 83 78 70 55 41 28 17 9 4 5 6 2 10 11 22 27 21 19 22 22 35 41 42 40 38 40 39 38 33 31 23 17 6 17 27 38 51 67 83 94 98 99 98 93 90 84 85 89 91 93
74 77 79 78 77 69 62 49 34 25 11 7 2 8 4 5 2 10 23 29 22 18 14 24 35 32 32 30 29 32 34 27 30 33 32 25 10 7 8 21 29 41 59 77 89 91 89 90 89 85 83 87 92 96
71 73 73 73 67 62 54 42 30 22 13 9 2 4 4 8 5 14 20 23 21 19 22 22 23 24 25 23 23 20 21 23 32 36 33 31 37 31 21 8 12 23 37 56 75 83 82 80 82 82 82 85 86 91
67 66 69 65 59 53 46 34 24 16 7 8 6 8 12 12 14 12 14 17 18 19 17 18 18 19 21 20 17 18 19 24 24 28 26 32 37 42 34 24 22 20 24 31 43 59 73 79 79 79 80 81 84 88
62 63 61 56 49 45 37 28 21 11 9 10 7 6 7 14 18 19 17 16 14 9 9 13 19 16 16 17 17 17 19 23 22 18 21 28 34 43 41 34 31 22 24 27 32 39 53 67 78 84 86 84 85 85
60 58 51 46 42 38 31 24 21 14 8 13 14 16 19 17 12 15 19 20 18 16 16 15 18 18 15 12 16 20 20 19 17 18 18 23 26 29 35 31 32 33 27 25 31 40 47 59 74 84 90 89 89 85
54 48 43 37 35 32 28 25 22 13 7 12 14 14 14 16 19 18 17 17 23 25 22 22 20 22 22 20 24 23 22 22 18 19 19 18 18 28 27 27 28 35 40 35 36 32 39 54 65 78 88 94 93 91
45 40 36 32 28 28 27 25 21 16 14 11 14 16 17 16 18 22 24 27 25 26 28 27 28 28 25 25 24 24 28 30 28 25 24 26 22 27 28 27 20 41 37 42 43 43 36 42 53 62 74 89 95 97
37 34 32 30 28 27 26 24 20 17 14 12 13 14 18 20 20 20 22 25 28 30 33 35 33 33 33 34 33 31 30 30 30 38 35 31 33 32 32 35 27 26 38 42 47 46 44 46 50 54 61 68 77 87
34 33 32 31 30 29 28 26 23 18 17 16 14 13 14 13 13 14 17 20 22 25 31 36 39 40 37 36 36 41 40 38 37 36 37 41 43 37 43 38 37 33 37 46 50 51 47 44 52 49 56 65 69 71
33 32 30 31 30 30 29 27 25 23 21 19 19 20 21 22 21 20 18 17 17 18 20 22 24 27 33 38 42 40 41 48 50 43 42 41 43 47 48 50 49 46 44 48 57 57 55 52 51 54 58 67 76 80
32 31 31 32 33 31 28 28 26 25 23 22 22 22 23 24 25 25 25 25 24 24 23 23 23 24 24 26 28 32 35 37 44 49 53 53 48 46 47 55 59 60 57 55 59 64 65 62 61 61 62 63 73 86
33 32 31 32 34 34 32 29 27 26 25 24 24 23 23 24 25 26 27 28 28 27 27 28 26 23 21 21 23 25 29 35 41 41 41 50 54 53 52 51 53 56 66 69 66 65 69 75 76 70 72 76 76 77
32 31 31 33 34 36 35 30 28 29 28 27 26 27 27 28 29 30 30 29 29 28 27 26 24 22 24 25 24 24 24 25 29 36 41 40 39 45 50 54 58 60 58 58 64 72 74 74 78 79 85 82 83 83
30 29 31 33 35 36 34 31 30 30 30 31 31 31 31 31 31 32 34 33 32 31 28 26 27 28 28 28 29 29 29 28 27 27 31 36 41 42 42 45 50 55 60 62 63 64 65 69 73 75 76 80 80 81
26 27 30 33 34 33 32 32 32 34 35 35 35 33 33 33 33 35 37 36 34 35 34 32 31 29 31 33 33 32 31 31 31 31 29 30 33 38 41 43 43 44 48 54 59 63 66 67 67 66 68 71 73 75
24 27 30 30 29 31 33 35 37 38 38 39 38 36 34 35 35 37 38 39 39 39 39 38 37 37 36 35 33 32 31 27 27 29 31 32 33 33 37 40 42 43 42 43 46 51 55 58 61 63 63 65 65 67
23 26 25 25 28 31 35 37 39 41 43 43 45 44 42 39 38 38 39 40 42 43 42 41 40 39 38 37 34 30 28 26 25 26 28 30 32 34 34 35 36 41 41 42 43 43 45 47 50 52 55 58 58 58
22 20 20 22 25 32 37 40 40 42 43 44 44 45 44 41 38 34 35 38 40 41 42 42 41 39 36 33 31 30 30 30 27 25 23 23 25 28 31 33 34 33 34 35 37 39 40 40 40 41 43 46 49 53
17 16 18 21 27 33 37 39 42 44 44 46 46 48 46 40 38 37 37 41 44 44 45 44 43 42 38 37 32 28 29 27 27 26 27 25 21 21 23 26 28 30 31 31 30 31 33 35 38 39 40 40 41 42
13 16 18 23 27 31 36 39 46 50 53 52 50 50 46 40 38 38 40 43 43 45 46 46 43 40 38 36 40 40 35 33 31 29 27 26 25 23 22 22 23 24 27 29 30 30 30 29 29 31 33 34 36 37
11 13 19 23 27 31 35 39 44 49 55 57 56 51 45 41 42 43 46 49 47 47 47 45 42 40 40 40 38 37 37 34 31 29 28 27 26 26 24 22 21 21 22 23 24 26 27 28 28 28 29 29 29 30
10 15 22 25 29 30 34 42 46 48 54 59 59 56 50 47 49 50 51 51 50 48 45 42 41 41 43 42 38 36 34 34 32 30 29 28 27 26 25 24 22 20 19 19 19 20 21 23 24 25 26 27 28 29
12 20 26 28 31 34 35 40 46 51 53 57 61 59 52 48 50 49 50 50 48 47 46 45 42 42 41 39 39 38 37 34 33 30 29 28 26 24 23 22 21 20 19 18 17 17 17 18 18 18 19 20 22 23
14 20 23 28 29 31 35 41 46 48 54 59 60 59 52 47 49 49 52 52 50 49 46 43 42 43 43 41 40 39 38 35 31 30 29 26 23 22 20 19 18 17 16 15 15 15 14 15 15 16 17 17 18 18

GFSWCAN_250_spd_030.txt.gz
Wind_Speed
78 83 83 83 87 89 91 93 96 99 98 87 67 54 43 37 38 42 42 40 39 40 41 38 35 26 19 12 2 8 16 23 32 42 51 61 74 90 103 110 106 102 100 99 100 102 106 105 105 101 100 94 87 85
80 82 80 84 87 90 90 92 94 94 90 75 56 43 35 30 38 41 41 37 35 33 40 40 37 33 26 19 12 4 8 15 23 34 41 50 64 81 100 110 112 107 103 104 106 103 106 105 110 104 98 92 88 83
75 81 84 85 87 87 89 89 91 90 76 56 43 35 27 28 37 38 32 29 33 36 38 40 39 38 34 27 20 13 6 9 17 24 33 45 54 69 91 107 114 109 106 102 100 106 112 109 105 102 95 90 84 80
76 79 82 85 84 84 87 88 89 81 64 49 35 24 21 28 30 29 23 27 36 40 42 46 42 39 40 36 28 19 13 9 12 18 26 34 46 63 83 96 103 105 99 97 94 99 102 99 91 86 88 89 82 78
75 78 80 80 79 83 84 86 85 72 55 39 28 16 17 25 27 20 20 22 28 37 41 43 44 42 41 37 35 29 21 11 9 12 20 29 38 49 67 86 97 108 109 105 100 99 95 89 81 76 79 87 85 84
71 76 78 74 78 79 83 83 76 64 49 35 19 11 14 22 22 14 17 18 19 26 37 37 37 46 47 45 41 35 28 19 13 8 13 24 34 43 56 71 88 96 102 103 102 98 91 84 74 72 75 81 90 90
65 68 67 72 74 79 79 77 68 55 42 29 13 9 10 15 17 9 9 13 16 19 26 29 31 38 43 44 38 36 32 27 21 11 9 15 24 35 48 63 77 91 101 108 107 103 95 88 82 77 76 81 86 89
58 61 63 68 73 75 75 68 59 48 33 25 13 4 7 9 10 15 3 6 9 14 15 12 21 30 36 38 36 40 36 37 32 21 9 4 17 28 36 46 59 76 88 99 104 105 104 102 92 81 78 82 83 88
53 57 63 69 71 72 67 61 52 40 27 16 13 2 6 2 2 12 6 7 12 10 9 14 19 20 28 29 27 32 31 28 29 26 25 18 6 10 21 32 41 55 71 88 99 102 105 102 98 92 87 84 88 90
53 58 63 66 68 63 60 52 43 33 21 15 11 7 10 10 11 6 4 7 9 7 6 7 12 11 14 18 23 21 20 21 25 28 29 24 20 5 4 14 26 41 58 74 88 98 102 102 101 98 91 86 84 87
53 59 63 63 61 57 49 46 37 27 18 15 12 11 11 14 11 14 14 7 11 8 7 5 4 4 5 8 10 14 15 17 21 24 27 34 31 22 14 7 12 25 37 53 68 84 93 96 96 96 95 92 86 82
55 58 61 58 54 47 42 40 32 24 15 14 12 14 14 15 15 17 18 16 14 17 12 10 13 9 9 3 6 10 8 9 13 18 22 18 21 23 21 13 3 13 24 32 45 60 78 90 91 92 94 92 90 87
55 58 53 50 44 40 35 33 29 24 16 14 15 13 14 12 19 20 25 24 21 19 22 18 16 16 16 12 6 8 12 9 9 12 16 12 14 17 20 20 14 9 8 20 28 41 57 73 82 83 85 91 90 87
54 49 47 43 39 35 32 30 28 22 15 13 19 21 19 24 25 25 26 30 29 27 26 24 23 26 25 22 20 16 18 15 15 14 17 11 9 12 16 21 22 26 14 10 19 31 41 53 67 77 84 87 89 90
47 43 42 39 37 35 32 30 27 24 18 15 15 16 18 22 25 25 25 29 31 33 36 33 32 30 29 32 30 27 26 23 19 17 18 16 11 12 14 17 20 21 21 17 13 19 31 41 54 67 79 88 92 94
40 39 38 36 36 35 34 31 27 23 22 20 17 17 17 18 19 20 24 26 28 33 34 34 36 39 37 37 37 38 35 33 32 25 25 20 22 21 21 22 24 23 20 20 17 24 27 31 46 58 71 82 89 92
37 36 36 35 36 36 33 31 29 25 21 20 18 16 16 17 18 20 21 22 23 23 25 29 33 37 36 37 39 41 41 38 34 38 33 32 28 30 29 31 29 32 31 27 26 32 39 35 35 52 65 75 80 88
35 36 35 34 36 37 37 33 29 27 24 21 20 19 19 19 19 19 19 19 20 22 23 24 26 26 29 33 34 35 39 43 42 37 40 43 38 38 38 37 37 39 39 37 36 35 46 46 42 45 52 57 66 83
33 35 36 34 35 35 36 33 29 28 27 25 24 23 22 23 23 23 23 23 23 22 21 21 23 25 27 28 29 29 29 32 38 42 44 42 45 48 48 46 44 47 48 47 46 45 48 54 52 51 52 59 60 64
31 33 34 34 34 34 33 30 28 29 30 30 29 28 28 28 28 28 28 29 28 26 25 25 24 22 22 23 24 25 27 30 32 34 35 40 44 45 50 55 57 53 53 54 55 56 55 59 58 57 61 63 64 70
30 32 31 33 32 31 29 28 28 29 30 30 31 30 29 29 29 28 29 30 30 28 27 26 27 27 23 23 24 25 26 27 30 34 35 36 37 39 45 53 55 59 61 62 63 66 68 65 67 67 66 68 71 75
30 28 30 31 29 28 28 29 30 32 34 34 34 33 31 30 29 29 30 30 30 30 30 30 30 27 26 26 25 25 26 28 29 29 31 34 37 35 38 42 49 59 62 62 66 70 73 73 73 74 76 79 79 81
27 27 28 26 26 27 30 33 36 38 39 38 39 39 37 35 32 30 30 31 32 34 35 35 34 35 35 34 35 34 33 33 30 29 27 27 29 33 35 36 40 46 51 60 65 69 71 75 78 79 81 82 83 84
23 24 23 23 26 31 34 37 41 44 45 44 43 44 44 39 35 33 33 32 33 35 38 39 39 39 37 36 37 40 37 34 32 31 32 30 28 27 28 31 35 40 43 49 55 62 69 73 72 76 81 85 84 85
21 21 20 21 26 31 36 40 44 47 51 52 52 52 47 41 38 38 37 36 38 40 41 40 40 37 35 36 34 29 31 31 31 31 30 30 30 29 29 28 30 34 36 40 46 50 54 60 67 71 74 76 78 82
19 17 19 22 27 32 37 40 44 49 51 57 58 56 54 50 44 42 40 40 43 43 42 41 41 41 38 33 31 31 30 26 24 25 25 27 28 29 30 29 29 32 29 31 37 40 44 49 52 56 61 67 69 71
16 15 19 25 29 33 35 39 49 51 51 56 59 60 56 45 39 41 43 44 45 42 43 44 43 42 39 37 33 31 30 30 27 25 25 21 22 26 28 29 29 29 29 27 28 32 36 40 45 47 50 54 58 59
12 14 20 28 31 32 37 34 42 47 49 52 57 60 59 52 42 45 48 45 47 48 48 46 45 43 41 42 41 35 26 26 26 25 23 24 25 22 22 25 26 27 27 27 26 25 27 32 35 37 39 43 46 48
9 13 24 26 28 31 35 34 37 42 44 54 59 60 60 53 48 47 52 53 52 50 50 49 46 41 38 36 36 36 36 32 30 28 27 24 22 22 21 21 22 22 23 25 25 24 24 25 27 30 32 34 35 37
6 2 12 23 29 31 33 37 42 44 50 56 58 53 51 54 53 55 56 54 53 51 48 46 46 45 45 43 37 35 35 33 28 28 27 26 24 23 22 21 20 19 19 20 21 23 22 23 23 24 26 28 30 31
8 12 19 24 28 31 34 37 41 44 47 53 58 58 51 51 48 55 56 53 51 51 51 48 45 44 44 42 40 35 29 30 32 28 26 25 25 24 23 21 21 19 18 17 17 17 19 19 18 19 20 22 24 25
12 15 20 25 28 30 31 36 43 46 52 60 58 55 55 52 51 55 55 53 51 48 45 44 43 43 42 39 38 37 33 30 29 28 28 27 27 24 22 21 19 18 16 15 14 14 14 15 16 16 17 17 17 19
14 17 21 25 27 29 31 35 41 42 49 54 60 61 59 58 55 56 59 58 56 54 52 49 48 46 42 40 38 38 40 36 30 28 26 26 25 23 21 20 18 16 14 12 11 11 10 10 11 12 13 13 13 14

GFSWCAN_250_spd_033.txt.gz
Wind_Speed
79 86 84 81 76 76 79 80 79 80 80 80 66 44 30 27 27 29 32 33 33 36 41 42 43 40 34 25 14 5 4 10 20 30 41 51 62 75 85 90 95 100 99 96 94 94 99 102 99 97 93 92 91 93
82 85 83 77 74 76 78 74 75 76 79 70 51 35 26 22 23 27 28 29 29 35 38 40 42 44 41 34 23 12 5 8 15 23 33 40 50 65 77 88 97 100 105 100 100 105 103 104 103 101 98 98 95 94
84 82 80 74 69 71 66 68 72 75 73 59 42 26 20 18 16 23 22 21 28 32 35 39 44 44 41 39 33 23 10 6 11 18 26 32 37 50 64 80 93 102 104 106 103 105 105 104 105 102 101 100 98 93
81 71 66 61 61 62 62 69 71 72 63 47 33 20 16 16 12 15 18 18 20 23 26 33 36 41 42 41 37 32 24 13 7 14 21 25 33 41 51 70 87 101 107 111 108 106 101 104 102 100 103 105 102 94
67 60 55 55 57 59 65 69 70 64 54 37 25 17 16 13 8 9 8 11 12 18 22 26 27 30 39 41 38 37 31 25 17 4 12 23 31 40 48 60 81 97 107 109 107 102 100 101 100 98 98 103 100 90
53 51 53 54 57 61 65 67 65 56 46 29 17 14 12 6 8 2 5 4 14 16 15 22 23 25 32 38 41 42 37 29 21 14 7 10 20 38 51 66 84 90 94 100 103 101 97 96 96 94 89 86 87 82
46 49 51 55 59 65 65 64 56 47 39 24 8 7 10 9 8 9 11 14 10 14 13 14 11 23 25 27 32 35 35 36 28 19 11 6 15 27 42 57 75 93 106 113 111 109 103 102 96 92 84 84 84 83
45 48 53 59 64 64 63 55 47 42 33 19 8 6 7 7 10 16 10 15 16 13 14 10 11 13 19 23 26 31 32 32 33 32 27 13 3 13 27 42 57 75 91 102 110 112 108 110 103 96 91 88 88 83
48 51 56 60 62 61 55 46 39 38 30 17 11 7 10 8 8 13 11 13 15 16 16 13 12 14 11 18 21 23 28 27 29 27 27 23 15 6 14 26 40 57 75 91 100 105 105 107 103 95 90 88 85 87
51 56 58 59 56 53 47 40 36 33 25 18 12 14 17 16 15 15 17 13 19 23 18 15 12 12 13 9 11 14 16 16 20 20 21 19 19 9 11 19 29 44 61 79 93 100 107 107 105 98 90 87 80 83
53 55 58 55 51 48 44 39 35 32 26 19 16 11 13 17 20 20 20 20 20 24 25 24 22 17 9 9 8 5 6 8 5 10 10 15 15 9 3 11 22 32 45 57 69 83 98 105 107 104 96 88 83 83
53 54 54 47 46 45 43 39 35 31 26 19 15 17 14 14 21 24 18 22 28 26 27 28 29 27 23 19 9 10 10 7 5 3 4 7 9 8 5 6 6 17 29 35 46 61 80 95 102 103 101 94 94 89
51 54 48 45 42 42 39 38 34 28 24 18 17 20 20 18 19 19 22 26 27 28 32 34 32 34 34 30 23 17 17 15 12 11 10 7 6 3 7 4 6 5 10 18 32 40 53 70 88 100 103 103 98 94
51 51 44 43 41 39 40 37 34 30 25 21 16 19 21 27 26 25 26 25 24 23 27 35 41 40 36 36 33 27 26 23 22 20 18 13 11 11 3 3 1 0 1 7 18 27 38 50 63 80 94 98 97 94
51 48 42 43 42 40 38 37 33 30 26 23 22 20 20 20 20 20 21 21 23 24 25 29 32 38 43 42 40 37 31 29 31 29 26 25 20 16 14 6 3 2 4 4 9 20 27 38 47 57 69 82 91 95
50 45 40 41 40 38 37 35 32 29 30 27 25 23 22 22 22 23 23 24 25 26 26 26 26 26 29 32 34 37 38 35 34 34 34 34 31 27 22 17 13 7 5 8 5 5 17 25 36 46 54 65 78 86
48 40 37 39 38 37 36 34 30 28 27 27 26 24 23 22 21 21 21 21 21 23 23 24 25 27 28 30 31 30 32 33 31 34 36 41 41 36 31 29 24 20 16 13 11 8 8 13 22 34 46 54 64 77
42 35 36 37 36 37 34 30 27 26 25 25 25 25 25 24 23 22 21 20 21 22 23 23 23 23 24 25 27 29 31 30 28 31 34 40 43 46 41 38 33 32 28 26 23 20 17 16 15 26 37 47 56 69
36 33 34 33 34 32 31 31 31 31 31 32 32 32 30 29 28 26 24 24 24 24 24 23 24 26 27 27 25 24 24 25 27 28 29 30 37 45 49 48 47 43 42 38 36 33 32 29 28 27 33 41 50 59
32 31 29 30 29 29 30 31 33 36 37 38 39 37 33 31 28 26 25 24 25 25 26 28 28 26 25 26 27 29 29 29 29 28 29 30 30 34 42 49 52 50 48 51 46 42 41 43 41 40 40 45 47 49
29 26 26 24 25 27 29 35 39 42 46 49 52 50 41 34 30 29 27 26 26 26 28 29 30 33 32 31 28 25 28 29 31 31 31 33 33 32 33 38 45 53 56 53 58 58 51 48 50 53 52 52 55 58
24 23 21 20 24 28 31 34 35 39 48 51 57 59 50 37 34 34 35 33 33 34 36 38 37 34 32 32 34 30 27 27 27 28 31 31 34 34 35 34 35 45 50 56 56 63 66 60 56 56 60 62 61 61
21 20 17 20 25 29 32 40 36 30 50 61 63 59 54 36 30 32 33 35 38 41 43 44 42 41 42 41 40 40 39 37 34 32 27 23 23 26 29 33 36 37 39 48 52 58 63 67 69 66 66 63 68 71
19 17 17 20 27 32 32 39 45 42 54 53 57 60 53 47 39 36 41 44 43 44 46 45 41 38 35 33 31 32 30 28 29 32 32 30 27 25 23 25 30 35 30 35 45 49 55 59 64 74 76 67 65 71
18 15 17 23 26 31 33 30 33 34 39 47 55 53 46 51 46 34 39 46 47 51 50 49 46 42 39 37 33 31 32 32 29 29 29 30 29 28 25 26 27 27 31 33 35 40 46 50 54 60 72 71 71 73
15 11 16 23 27 29 33 43 44 37 39 52 56 53 48 49 52 47 58 58 57 58 57 54 50 46 40 38 37 34 33 31 25 26 26 25 28 28 29 25 28 26 24 29 32 36 40 43 48 51 58 61 65 73
13 10 13 22 27 31 25 26 36 39 42 49 52 54 51 48 47 40 48 53 57 55 55 56 54 50 44 40 40 38 30 24 26 26 27 27 26 23 25 28 26 28 26 24 25 27 33 39 41 43 50 52 55 60
15 16 14 16 23 29 31 31 33 37 44 48 45 48 59 59 56 49 49 54 58 57 55 54 51 47 44 41 38 37 37 34 31 29 25 24 25 26 23 24 24 25 25 26 25 24 26 30 35 39 41 43 46 50
16 12 12 15 22 28 29 33 36 42 47 49 39 52 67 67 61 56 56 59 60 57 54 51 48 46 44 40 35 34 33 31 27 27 29 26 23 23 23 22 22 25 21 20 23 22 22 23 27 31 34 36 37 40
14 11 13 18 24 29 30 32 36 40 43 53 55 58 64 58 66 65 57 54 56 55 53 49 46 44 42 39 35 32 35 35 30 27 26 25 24 23 21 20 19 17 18 16 16 20 19 18 20 22 26 30 32 34
15 14 18 22 26 26 28 30 33 38 41 45 44 54 63 66 71 68 62 59 57 53 49 46 44 41 40 39 37 31 28 30 30 28 25 24 22 21 19 18 17 15 13 13 12 13 14 14 15 16 18 20 23 27
18 16 17 17 19 23 29 34 37 39 43 48 46 48 58 60 58 61 60 60 59 57 54 52 49 43 41 38 37 35 33 31 30 30 29 28 26 23 21 19 18 16 15 14 12 11 11 10 11 12 13 14 16 17
14 12 13 14 18 24 29 33 35 38 43 44 49 53 57 64 64 63 58 57 56 55 53 51 49 46 43 43 40 38 33 31 31 29 28 26 25 25 23 21 18 16 14 13 12 10 9 8 8 7 8 9 10 12

GFSWCAN_250_spd_039.txt.gz
Wind_Speed
87 64 54 57 58 58 58 58 61 60 52 49 39 30 22 17 17 22 23 28 32 38 46 53 54 58 54 46 33 18 7 3 11 17 27 36 38 43 53 68 87 99 101 106 105 100 96 97 98 96 92 88 85 84
69 54 57 59 60 61 61 61 60 54 51 43 35 27 20 17 19 20 23 24 28 34 36 46 51 56 58 51 38 21 9 5 13 18 23 26 29 38 51 68 84 94 98 105 104 101 96 92 93 93 92 89 86 85
60 56 60 61 63 63 64 63 55 52 46 39 33 23 17 17 19 19 23 26 28 29 31 39 44 52 56 50 43 25 12 7 13 19 17 18 24 31 48 66 82 93 97 101 99 100 97 89 90 92 91 88 87 86
57 56 60 63 64 63 64 61 52 50 44 37 32 23 17 16 14 19 24 24 26 29 29 32 34 42 51 43 39 27 17 12 11 21 21 17 23 32 44 59 78 88 93 98 99 98 94 89 88 89 91 89 89 87
55 57 62 65 63 62 64 58 51 48 43 36 29 21 21 12 15 17 19 23 24 21 24 25 28 30 36 43 35 35 24 18 13 24 27 20 16 27 41 57 74 87 91 96 98 99 97 92 89 87 88 89 90 86
54 58 62 66 63 62 63 56 51 46 42 34 27 21 22 19 17 19 20 20 22 22 22 21 21 24 26 33 41 45 39 23 19 21 27 22 23 23 37 52 67 85 92 94 98 97 95 91 90 83 82 60 90 90
52 57 62 64 61 62 64 54 51 45 41 35 28 21 21 21 22 25 25 26 25 23 19 18 14 15 16 20 27 34 38 35 37 22 21 17 21 30 27 42 64 83 90 91 92 92 93 91 89 86 86 82 63 78
53 57 63 63 63 64 61 51 50 44 40 35 29 23 19 22 25 26 28 31 31 31 23 22 15 10 11 12 14 20 24 27 28 25 23 14 14 22 38 41 52 72 89 90 90 93 95 95 92 90 91 89 81 65
54 59 62 61 62 65 58 51 46 43 40 35 29 23 21 19 22 26 31 33 33 33 32 29 24 20 15 7 6 7 11 13 17 17 17 17 11 12 25 40 59 68 82 94 97 98 102 101 100 96 93 92 94 92
53 59 60 60 62 63 54 52 46 41 37 34 31 25 19 18 20 21 24 28 29 30 32 33 29 24 19 15 8 5 5 2 3 4 8 9 6 6 12 23 36 53 78 91 98 102 104 105 107 105 104 101 101 101
53 57 58 59 63 58 53 50 46 41 36 33 29 26 23 20 20 20 23 22 25 28 29 29 28 26 23 19 17 14 13 14 14 9 7 5 7 5 8 15 23 34 49 67 89 102 108 111 110 110 109 108 107 104
53 56 57 58 60 53 50 49 43 38 35 32 30 29 27 25 23 23 25 25 25 27 27 28 28 25 23 20 15 15 19 20 21 22 20 15 12 14 13 11 13 28 39 49 67 92 104 110 113 116 117 115 114 111
54 56 57 59 55 49 47 41 37 35 32 31 30 28 27 25 23 22 22 23 23 24 25 25 25 25 24 21 16 14 14 23 27 29 31 29 27 24 23 21 21 18 23 37 51 66 80 99 105 109 113 116 119 118
53 56 55 57 49 44 38 38 38 37 35 34 33 32 30 29 28 27 26 27 27 26 26 27 28 28 26 24 21 18 15 14 20 28 32 34 35 34 33 32 29 25 24 24 36 44 58 73 84 102 109 113 116 116
52 52 55 50 43 39 37 37 35 35 36 36 38 36 32 28 26 25 24 24 24 24 25 27 28 28 27 24 23 22 20 17 16 19 26 35 37 38 39 39 38 36 33 30 28 35 45 53 64 75 91 106 113 116
49 50 53 43 38 33 33 30 33 37 41 40 39 38 34 31 28 25 24 24 24 24 25 26 27 28 29 28 27 25 25 23 17 17 22 26 31 38 40 42 43 42 40 38 36 33 31 38 49 61 68 80 92 101
45 49 47 36 31 29 30 33 34 35 39 42 37 36 36 33 32 30 30 29 24 21 22 25 28 30 29 29 29 27 26 26 24 20 18 20 24 28 34 39 43 45 46 45 43 40 36 36 40 43 54 65 68 77
43 47 38 31 28 29 31 33 33 36 37 43 42 36 37 37 27 27 28 27 30 31 31 33 35 34 32 31 29 28 27 27 29 26 23 21 21 24 29 32 36 42 44 45 46 45 42 40 39 43 43 46 50 60
40 42 31 27 24 27 28 30 31 36 38 41 40 41 41 34 24 33 33 35 34 30 31 30 30 30 31 30 30 29 30 31 29 28 27 26 26 24 25 30 32 35 40 43 45 46 46 46 43 42 43 41 44 47
39 36 28 23 23 26 21 29 30 37 36 41 47 43 38 28 19 27 27 29 41 37 39 37 37 37 37 33 31 29 28 27 25 23 22 23 24 28 22 24 29 32 32 38 43 46 49 48 46 46 43 41 44 41
38 32 27 22 21 22 26 28 32 36 40 36 47 46 46 52 47 45 41 46 42 41 41 40 42 44 44 42 36 33 28 25 24 23 23 22 22 25 26 23 21 26 33 34 37 42 47 48 50 49 47 47 40 41
35 28 23 19 20 22 25 24 31 36 39 39 36 44 50 54 53 51 50 48 49 52 53 53 52 50 49 45 41 39 36 35 33 28 25 23 21 20 22 26 26 23 26 34 37 36 39 43 46 50 51 51 50 46
31 23 20 16 16 20 26 29 32 35 38 39 38 37 40 47 53 53 56 61 60 58 57 56 54 52 50 46 43 41 36 33 33 31 27 23 21 19 16 18 23 26 27 28 32 35 34 39 43 47 50 52 51 51
27 22 19 14 17 22 27 29 32 39 41 43 40 40 47 51 54 58 61 63 59 54 53 55 55 52 48 45 42 39 36 34 33 33 33 26 18 18 20 19 20 21 25 28 28 28 30 34 35 40 45 47 48 49
24 19 16 16 18 24 28 30 29 32 36 44 44 47 50 58 61 62 59 59 59 57 57 56 52 50 48 43 40 39 36 32 26 20 18 22 23 22 23 23 18 15 18 24 28 27 27 29 31 33 37 41 44 44
21 19 17 15 14 18 26 29 27 31 32 37 42 45 47 50 56 62 63 61 62 61 58 55 54 51 47 44 44 42 40 39 37 34 30 23 14 8 11 19 23 21 16 17 21 25 27 28 28 28 29 34 38 40
19 19 19 13 10 17 23 23 25 28 32 37 42 45 48 51 55 62 65 65 66 63 60 58 53 50 46 44 42 40 38 37 37 36 35 33 29 23 13 8 11 16 20 19 19 20 21 23 26 25 24 26 30 35
17 18 17 12 12 18 20 21 24 30 31 34 37 41 50 57 57 61 66 68 66 63 59 56 53 47 44 42 41 38 36 35 35 33 33 33 31 28 24 18 12 12 13 15 17 17 16 16 20 24 23 23 24 29
16 17 15 14 15 17 19 22 24 29 31 34 38 44 47 54 60 63 67 69 68 64 59 55 51 47 44 41 38 35 33 32 32 32 30 29 28 26 24 20 16 13 11 11 12 11 12 11 14 17 19 20 23 22
14 16 15 12 12 17 19 20 25 29 34 36 40 44 48 53 61 64 67 71 71 67 61 54 48 43 41 39 36 31 27 26 28 28 27 26 25 24 22 20 16 14 13 11 10 8 8 9 9 11 13 16 18 18
11 12 12 12 15 18 18 22 27 31 36 41 44 46 49 52 57 64 67 72 71 70 63 55 51 47 45 43 40 37 37 37 36 37 37 35 31 27 25 22 20 17 15 13 11 9 7 6 6 7 9 10 11 12
10 11 12 13 14 18 22 27 29 34 40 43 46 46 47 51 55 60 64 70 72 71 67 61 56 51 48 45 43 41 39 38 35 34 34 34 33 31 29 26 23 21 18 16 14 11 9 8 6 4 4 5 6 8
12 14 18 19 20 22 24 27 31 35 40 43 47 48 48 51 54 57 61 66 68 69 66 60 54 50 46 43 40 39 37 37 36 37 38 36 34 32 30 28 26 24 21 20 18 15 12 10 9 7 5 3 2 2

GFSWCAN_250_spd_042.txt.gz
Wind_Speed
94 100 100 74 65 68 71 67 67 60 52 49 44 38 34 25 21 26 31 32 34 35 39 42 48 52 55 51 36 29 21 14 7 4 7 11 17 24 35 48 61 81 100 109 112 108 106 103 99 101 99 95 94 92
96 100 100 74 67 70 70 68 68 58 52 48 43 38 31 24 22 26 30 33 35 35 33 41 44 46 51 50 43 31 22 16 12 10 11 13 17 25 33 50 66 81 95 108 110 108 103 102 98 96 97 94 94 91
96 99 97 73 68 71 70 70 67 54 51 46 41 37 32 22 21 25 27 28 31 30 30 34 40 41 47 48 36 32 23 19 19 19 13 14 19 31 41 54 70 84 95 104 103 99 98 99 96 93 95 95 94 90
93 102 90 70 69 72 70 70 65 54 51 44 40 35 32 23 22 25 26 25 26 29 29 30 33 37 43 42 47 33 24 16 23 24 16 16 22 28 38 52 66 79 90 97 98 94 95 95 92 91 92 94 93 90
95 100 85 71 68 71 71 70 62 55 50 45 39 33 30 28 26 27 27 28 27 25 26 27 28 30 34 40 42 39 24 11 14 24 20 18 17 27 39 52 62 75 82 81 86 91 94 94 93 90 90 92 91 91
93 92 78 67 69 69 69 69 61 54 48 44 39 33 29 27 28 30 33 31 31 28 21 22 20 19 21 25 31 36 29 17 7 24 21 20 21 27 39 51 62 76 88 102 97 93 92 94 92 88 86 91 92 92
92 86 72 64 68 69 69 68 57 54 49 42 38 35 30 26 24 26 30 32 35 35 27 18 15 11 8 9 18 22 26 31 24 18 17 18 20 23 34 50 62 71 76 78 82 87 89 89 89 88 86 88 90 91
92 89 69 66 68 68 69 63 57 52 46 39 36 34 33 27 24 24 25 25 26 27 27 22 15 10 9 5 5 10 14 18 20 21 17 10 13 25 32 44 59 68 78 85 86 92 92 92 93 98 93 89 91 94
91 81 64 65 67 67 68 60 55 50 46 41 36 32 30 28 25 25 26 26 28 26 26 26 23 17 9 11 9 6 3 4 8 8 9 11 8 17 31 47 51 70 77 86 97 95 96 96 99 95 90 89 91 94
85 71 62 64 66 67 64 54 48 46 44 41 39 37 34 31 29 26 26 25 24 25 25 23 21 17 11 12 16 16 12 9 6 3 1 0 5 10 19 37 51 65 79 87 93 93 96 98 100 98 99 96 93 95
72 59 60 63 64 65 57 50 47 45 45 44 41 37 32 30 28 26 25 24 23 23 23 22 20 19 15 10 9 15 22 21 17 14 12 10 9 10 10 20 41 57 70 81 90 94 98 96 98 101 101 100 98 95
62 56 59 62 62 61 51 46 45 46 48 46 47 43 35 30 26 24 23 21 22 23 23 24 23 22 16 12 9 9 14 22 27 25 23 21 20 18 17 16 21 37 62 73 82 89 94 96 98 102 106 107 108 105
56 53 57 59 60 55 47 41 43 45 50 48 49 43 41 33 29 25 23 20 21 22 23 25 25 25 24 19 13 10 13 17 26 32 35 33 32 30 28 26 23 30 36 57 72 83 90 95 97 102 108 110 108 107
50 50 55 55 56 49 43 42 45 47 47 43 39 39 40 31 29 27 25 24 23 23 22 23 24 24 25 24 20 15 13 14 21 27 35 41 42 41 39 36 35 35 36 45 54 71 82 94 99 101 104 107 110 111
45 49 52 52 53 44 41 44 46 45 43 41 36 34 34 29 28 31 32 30 29 27 28 30 31 30 30 30 28 24 21 18 18 23 28 34 39 46 48 47 43 42 44 45 51 59 68 82 96 98 100 101 104 109
44 47 48 50 49 42 39 40 38 39 43 44 45 42 38 34 33 30 29 31 33 32 31 30 29 29 28 27 27 25 24 22 21 21 25 29 34 39 45 50 51 50 48 48 51 54 60 68 75 84 93 98 101 103
41 45 44 47 43 39 37 36 32 32 35 37 42 44 39 39 40 41 42 36 33 33 32 32 32 33 32 32 32 28 27 27 26 23 22 25 29 35 40 43 46 51 49 51 51 53 56 59 63 66 71 77 86 98
39 42 41 44 39 33 32 29 32 33 32 36 39 41 44 37 38 38 39 37 35 38 39 39 41 40 35 29 27 28 28 28 31 30 27 25 25 28 33 37 40 43 47 49 53 54 55 55 56 59 65 67 69 78
38 37 41 40 33 30 29 30 27 32 34 39 43 38 41 45 42 41 41 36 39 45 44 41 40 35 30 26 27 27 26 26 28 29 28 26 25 24 22 29 35 38 41 45 47 52 56 58 59 57 56 58 66 71
36 35 38 34 29 25 24 25 27 30 36 41 35 38 44 44 44 48 50 52 53 53 50 48 47 47 46 41 36 30 24 23 25 25 24 23 24 25 23 22 26 34 39 40 42 46 50 54 57 58 59 58 57 59
35 34 36 31 27 22 23 28 30 31 33 40 38 37 43 46 50 52 57 58 59 61 58 56 53 51 47 42 38 34 30 25 21 20 19 18 20 23 24 22 22 26 33 38 39 42 44 47 51 55 57 58 60 59
32 34 32 27 25 22 21 28 32 31 32 35 38 40 45 48 52 59 61 61 62 61 58 56 53 49 47 42 37 34 31 28 25 22 18 16 15 18 24 26 24 24 27 31 36 39 39 40 43 46 51 54 57 59
30 33 28 25 24 22 24 28 28 26 30 32 36 37 44 52 56 60 62 63 63 61 59 54 50 46 43 38 36 33 31 29 27 26 25 22 17 14 19 22 24 25 25 27 30 32 34 36 38 41 42 45 51 55
30 32 28 25 23 22 21 24 22 25 28 30 33 37 43 49 57 59 61 64 64 62 60 56 52 48 44 40 37 34 30 27 21 16 16 19 23 24 25 25 22 23 25 26 28 29 29 30 32 34 35 39 41 44
30 31 25 24 24 20 17 20 20 24 25 29 33 38 43 49 53 58 61 67 69 67 63 55 52 49 46 44 41 39 37 35 32 28 22 17 10 10 20 27 29 23 17 21 25 25 23 24 25 28 31 34 36 39
31 30 25 23 22 17 15 17 20 23 26 30 35 40 44 47 50 54 59 66 70 68 63 57 53 49 46 44 42 40 38 36 35 33 29 25 19 13 11 19 25 28 23 17 16 20 22 20 20 21 25 30 33 34
30 27 24 22 16 13 15 18 18 21 27 32 38 42 44 48 50 54 59 65 70 69 67 61 55 50 48 46 44 41 39 37 35 33 31 28 24 20 17 15 16 18 21 21 16 12 13 17 19 19 22 25 28 29
28 21 19 15 13 13 16 17 19 26 31 37 42 44 45 47 51 54 60 64 68 69 67 62 57 52 47 44 41 39 39 39 37 34 32 31 28 24 21 18 16 15 14 13 12 12 12 12 13 15 17 18 19 22
19 17 17 14 13 18 20 21 24 27 32 38 42 45 47 50 52 53 58 64 68 68 66 60 56 52 48 46 42 40 37 33 30 30 29 26 25 23 21 18 16 13 12 10 9 9 9 9 8 10 11 13 14 16
13 13 12 14 17 20 21 24 28 32 33 37 40 43 47 51 52 53 57 63 66 68 67 63 56 50 46 44 41 38 34 32 32 32 31 30 29 26 22 19 17 15 13 11 9 8 7 6 5 5 6 8 10 11
9 10 13 13 15 19 25 30 33 37 40 41 44 46 47 49 52 53 56 62 65 66 67 63 57 53 51 47 44 42 41 40 39 36 35 32 30 28 25 23 20 18 16 14 12 10 8 7 6 4 2 3 5 7
5 6 7 9 14 20 25 31 35 37 41 45 47 47 46 48 50 51 54 60 63 64 65 64 60 55 53 48 45 42 40 39 37 34 34 33 32 31 30 28 26 23 21 20 18 16 14 11 9 8 6 3 1 1
5 8 11 13 17 20 23 27 33 37 39 42 44 47 47 50 51 50 53 57 61 62 64 63 60 55 52 48 45 41 38 35 33 34 35 34 33 32 32 30 29 28 27 25 24 22 20 18 16 14 12 10 7 5

GFSWCAN_250_spd_045.txt.gz
Wind_Speed
92 95 97 102 100 105 85 78 77 76 70 59 53 47 42 36 31 30 29 30 30 32 35 39 44 46 47 48 39 29 20 19 15 13 14 14 13 12 17 27 38 47 55 63 75 89 96 96 105 110 107 108 104 103
88 94 95 101 100 105 83 79 78 77 67 59 52 47 43 38 30 28 29 29 29 29 35 38 40 42 42 44 41 32 26 20 21 22 24 22 20 22 24 31 39 45 55 64 76 93 95 95 102 106 107 108 106 104
87 93 94 100 99 103 78 79 78 78 64 57 50 43 40 37 32 30 30 28 31 30 33 33 33 37 39 34 40 38 29 18 22 25 26 25 28 28 32 38 43 53 61 66 76 92 89 97 100 104 106 107 106 103
86 91 95 99 96 102 76 79 78 73 61 54 46 39 36 36 34 30 30 31 32 32 31 33 32 28 31 33 33 37 29 22 18 24 25 23 26 30 33 40 46 51 61 74 80 89 88 95 100 102 104 104 104 101
86 89 94 95 94 99 76 78 77 71 59 52 46 39 35 33 30 27 28 28 29 30 31 28 25 23 22 24 26 29 31 21 9 17 19 22 25 27 34 41 45 55 62 68 81 85 95 98 103 102 103 102 101 100
86 88 93 91 97 95 76 77 76 64 56 50 45 41 37 33 29 24 24 26 26 24 23 22 16 17 19 16 19 23 22 23 11 16 17 18 18 28 33 40 49 54 62 66 76 85 95 98 99 100 101 100 99 100
84 88 91 91 95 82 74 75 72 57 49 48 47 43 37 33 29 25 23 23 24 23 22 20 17 13 14 15 11 11 15 19 15 5 13 19 23 21 32 41 46 53 59 64 72 81 85 95 97 98 104 99 96 97
84 85 89 91 92 72 72 73 67 54 50 49 46 48 40 33 29 26 24 23 22 23 22 22 19 14 8 12 14 11 7 9 12 9 4 11 22 30 32 40 49 55 61 65 71 76 84 91 95 94 93 96 97 97
84 84 90 89 88 69 71 70 62 54 53 53 48 45 43 36 31 27 25 23 23 22 21 21 19 16 12 11 16 16 12 8 6 5 6 4 16 24 34 45 51 59 64 70 79 91 92 92 92 92 99 99 96 96
81 83 83 85 76 66 67 66 57 56 56 48 44 43 43 37 33 27 24 21 20 20 19 18 17 17 17 13 12 18 20 17 13 10 8 3 4 18 33 41 52 61 67 71 76 83 92 93 92 94 95 98 97 98
77 77 79 82 63 64 64 60 54 53 52 52 46 41 39 37 33 28 24 22 22 21 21 22 22 21 18 15 12 11 14 20 21 18 14 13 11 11 18 39 45 57 66 73 77 84 93 97 98 99 102 101 107 102
73 76 79 78 58 60 60 54 50 49 50 52 49 41 37 32 32 29 26 23 22 24 26 26 25 24 22 19 15 13 13 16 21 26 26 24 23 21 22 26 39 49 59 67 73 78 92 97 101 102 102 107 108 107
70 74 77 57 54 56 55 47 48 46 48 48 48 44 41 40 38 40 38 35 34 33 31 29 29 29 28 26 23 18 14 16 19 22 27 30 29 30 30 30 34 42 52 58 66 73 79 92 99 102 104 107 109 108
68 74 64 49 51 52 48 42 41 44 45 46 48 45 46 47 45 42 40 39 36 35 34 32 33 33 32 31 30 28 24 21 21 23 27 29 32 34 35 36 35 39 47 55 62 66 73 80 91 98 102 106 109 111
67 67 46 45 50 48 43 37 37 43 43 45 45 42 44 45 42 42 39 36 35 33 33 33 34 34 32 31 32 31 29 26 24 27 29 30 31 33 34 37 40 39 42 48 54 60 66 73 79 89 97 102 106 110
66 47 42 44 47 46 37 33 36 38 40 41 42 42 45 46 42 39 37 35 33 31 31 33 33 32 31 30 29 32 35 31 27 24 25 28 31 32 32 34 36 41 45 45 47 53 59 66 71 77 86 97 105 108
48 39 40 43 43 44 34 32 33 35 38 37 37 38 40 43 45 44 43 43 43 44 43 41 40 37 29 25 24 26 29 32 31 29 26 22 23 29 31 29 31 36 41 47 51 51 54 58 62 69 77 82 94 104
38 36 39 41 41 41 30 28 30 34 36 37 36 35 38 43 44 46 50 54 54 54 55 54 50 45 40 34 28 26 26 27 30 30 27 24 20 21 25 30 32 32 34 42 48 52 56 57 60 65 67 74 81 88
32 35 39 39 41 36 27 24 28 32 34 33 31 35 38 44 50 55 58 61 62 62 61 58 54 51 46 44 39 32 28 26 26 26 27 25 23 21 21 24 31 34 31 32 41 47 50 56 59 61 64 69 72 76
30 33 36 36 38 31 25 25 27 33 29 27 29 34 38 43 47 51 57 62 67 65 61 57 53 48 45 40 36 32 30 28 26 25 27 27 24 23 22 22 25 30 34 33 34 39 45 50 53 58 63 65 67 69
29 33 33 35 34 28 25 24 27 29 24 24 28 33 39 44 47 51 55 59 65 67 64 60 55 49 44 39 35 31 28 26 25 23 22 22 25 25 24 23 25 28 30 32 33 34 36 41 46 51 56 61 65 67
30 31 30 33 31 27 24 21 24 24 23 22 29 35 41 44 46 49 53 59 64 67 66 60 54 49 42 38 35 32 29 26 25 24 24 22 20 21 24 26 25 24 27 30 31 31 32 33 38 44 50 54 58 62
29 28 30 32 27 25 20 16 20 22 24 27 33 37 38 41 45 48 51 57 62 66 67 61 54 49 43 39 36 32 27 23 21 21 20 22 24 24 24 23 25 26 24 22 25 27 28 31 30 35 42 47 50 54
28 27 31 30 24 23 17 12 17 20 25 29 32 36 37 40 44 47 51 57 60 64 67 60 54 49 44 40 36 32 28 25 23 20 19 20 21 23 27 29 25 19 12 15 23 23 22 25 28 31 34 38 43 46
27 28 32 27 23 19 12 12 16 18 23 29 32 34 37 40 44 47 50 55 61 64 66 62 55 51 46 42 39 36 32 30 29 26 24 21 20 20 21 23 26 25 17 5 9 17 20 19 23 27 29 31 36 40
26 30 31 22 21 15 10 14 15 17 22 26 27 32 36 41 45 47 49 56 61 64 67 64 57 52 48 44 41 39 37 34 31 29 29 27 25 21 19 19 18 18 17 13 8 10 16 18 18 21 25 28 28 31
28 31 21 19 17 12 15 16 16 19 22 28 31 36 39 40 43 46 49 55 60 64 67 65 59 55 51 47 43 41 39 39 38 35 32 31 28 25 22 19 17 15 13 11 7 7 12 15 16 17 19 20 22 26
28 18 16 15 12 12 12 13 15 21 27 32 35 38 42 43 44 46 48 54 58 62 67 66 59 54 51 47 44 43 41 39 37 35 34 32 29 27 24 21 17 14 12 10 6 3 5 8 11 14 15 16 18 20
14 11 11 8 7 7 11 18 23 28 32 34 36 38 42 47 48 43 46 52 57 61 65 66 60 56 53 49 45 41 40 38 38 36 32 30 28 25 24 21 18 15 13 10 8 5 2 3 5 7 9 11 12 13
9 7 7 7 6 9 15 19 24 28 31 35 39 44 47 49 51 47 46 50 55 61 64 66 62 56 52 48 44 40 37 37 38 37 36 32 29 28 25 22 20 17 15 12 10 7 5 3 0 2 4 6 8 10
6 6 7 3 6 10 15 18 21 26 31 36 38 43 48 54 55 54 50 50 54 58 64 65 64 58 53 49 46 42 40 40 40 37 36 35 32 29 27 26 23 20 18 16 15 13 10 8 6 3 2 2 4 6
6 5 3 6 11 13 16 21 26 31 37 40 43 46 45 48 55 53 55 52 52 56 60 62 63 60 54 50 47 43 40 39 38 36 36 35 33 31 29 27 26 25 23 20 18 16 14 12 11 9 7 5 3 2
4 4 7 9 12 14 18 26 32 35 37 39 41 44 47 48 50 53 52 55 52 52 56 59 61 60 54 49 47 44 41 37 35 34 34 34 33 32 31 30 29 27 26 24 22 20 18 16 15 13 12 11 9 7

GFSWCAN_250_spd_048.txt.gz
Wind_Speed
80 85 86 88 94 96 103 102 102 92 84 73 63 54 47 38 34 31 29 29 27 29 33 34 36 34 33 36 41 33 23 13 7 3 2 7 8 8 11 13 19 26 33 42 50 59 66 75 82 90 98 106 115 116
80 84 84 86 93 96 102 101 100 89 81 66 60 53 45 40 34 33 30 26 26 27 28 30 34 34 28 28 34 30 30 16 12 9 6 8 14 11 16 17 21 28 33 38 44 52 61 69 71 86 98 108 116 115
78 81 83 86 91 97 99 99 98 85 78 64 56 50 45 38 34 32 27 24 23 25 25 28 28 27 25 23 27 31 28 16 9 12 13 15 17 17 18 22 25 28 33 36 43 49 54 61 73 87 98 107 116 117
75 79 80 86 91 96 96 97 98 81 77 63 56 49 43 39 34 31 26 23 23 25 26 26 28 28 24 21 20 24 29 15 12 10 13 19 20 20 22 25 29 31 35 39 45 48 54 64 75 84 95 105 115 118
73 77 79 86 91 92 96 94 94 78 74 63 57 45 39 37 31 30 27 25 24 25 27 26 26 25 23 19 17 17 20 18 7 8 11 17 23 22 24 27 34 40 41 42 48 50 54 63 72 77 92 101 114 116
69 75 78 85 89 89 90 91 91 75 72 62 56 43 38 37 30 26 24 24 22 20 22 23 24 26 24 19 15 15 16 15 14 0 8 15 20 23 25 27 33 43 49 50 53 55 56 74 88 91 98 102 111 113
68 73 79 84 86 87 88 89 81 75 68 58 54 43 38 37 32 28 23 21 21 20 22 24 24 24 22 18 17 15 15 12 11 7 4 9 17 22 27 29 34 47 53 57 59 60 68 75 82 86 94 89 109 110
66 73 77 83 83 86 85 82 71 69 61 56 54 45 39 37 34 28 24 22 22 21 21 21 20 20 17 16 14 14 15 14 11 6 3 7 13 22 28 33 34 38 54 59 61 60 70 79 92 100 105 108 109 109
67 71 76 82 82 80 80 73 68 66 56 55 50 47 41 38 37 34 29 28 27 25 22 19 17 16 17 16 12 13 16 14 14 10 5 5 14 17 25 32 37 42 43 54 62 67 68 76 94 98 99 97 105 110
64 70 75 78 75 77 73 65 64 62 53 52 49 44 43 41 38 35 33 29 25 23 20 19 18 19 17 16 17 15 15 16 18 16 15 12 9 16 23 26 33 39 43 47 55 64 67 68 87 96 109 107 107 109
65 71 73 69 71 72 59 62 61 57 48 51 52 45 44 42 41 39 37 34 34 34 34 31 29 26 22 20 16 14 15 18 18 20 20 17 14 13 19 25 31 36 40 44 48 58 66 74 90 97 99 101 101 107
66 70 65 66 69 60 54 58 57 52 46 49 49 44 45 44 45 43 41 39 38 38 37 36 34 31 30 30 24 18 15 14 17 20 22 25 23 20 19 21 32 38 43 43 46 56 67 74 86 100 101 106 107 107
62 59 64 65 64 50 51 53 53 46 44 46 42 41 46 46 45 45 45 41 38 37 36 35 34 34 34 33 31 27 25 20 18 19 22 23 24 29 27 24 28 40 46 47 47 50 60 74 95 105 107 106 107 109
55 61 63 62 51 45 49 49 48 40 41 43 40 38 40 41 44 46 48 48 44 40 36 33 32 33 33 32 32 31 31 27 22 19 20 23 25 23 29 33 32 36 45 50 49 53 51 64 80 94 105 109 109 101
57 57 57 50 40 43 45 46 42 36 38 39 34 33 37 40 43 45 47 50 51 50 46 39 39 40 38 36 34 32 32 33 30 25 22 20 20 24 23 28 35 38 41 45 52 53 55 61 71 90 105 108 114 116
54 55 53 39 37 42 43 44 37 32 34 37 29 28 32 37 40 41 44 47 49 52 53 50 48 44 34 27 28 24 27 30 28 26 26 22 17 18 23 26 30 36 41 46 47 51 55 58 67 80 100 107 110 114
52 53 40 33 36 39 41 40 34 29 32 35 25 27 32 36 40 42 44 47 50 54 57 56 52 48 46 44 38 31 28 25 24 22 22 21 20 17 19 24 28 32 39 45 49 49 53 57 61 69 86 103 109 110
53 42 31 32 35 36 39 35 30 29 32 26 24 27 32 38 40 41 45 49 51 54 58 59 54 49 44 39 35 32 30 28 25 23 21 20 20 18 16 20 24 28 35 42 46 50 53 55 58 62 70 84 101 110
43 30 29 31 34 34 37 32 28 26 28 23 24 30 36 39 41 43 44 47 50 54 58 59 56 48 42 37 32 31 29 27 25 24 22 20 19 18 17 17 22 25 28 34 40 46 51 54 58 59 61 68 78 92
28 26 27 31 32 35 33 28 24 22 23 24 26 31 35 39 41 43 44 47 51 54 59 61 57 49 44 39 34 29 28 27 26 25 24 23 21 20 18 18 20 23 26 29 32 38 44 50 54 58 61 62 65 72
23 24 28 29 31 34 28 24 20 19 21 24 26 31 34 38 41 44 45 47 52 56 62 64 60 52 45 39 36 32 30 27 26 27 26 25 24 22 22 22 20 21 23 26 30 31 35 42 48 54 58 61 63 65
22 24 27 28 31 33 26 23 18 17 20 23 26 30 32 37 42 45 46 47 50 55 62 63 57 50 45 40 36 33 31 28 27 27 27 27 27 25 20 17 18 18 18 22 26 28 31 34 39 45 51 55 58 61
22 24 27 28 32 30 25 23 16 16 20 25 29 31 35 39 42 44 44 45 50 56 62 61 54 51 46 40 35 32 30 28 26 25 25 24 24 24 24 23 18 14 16 16 19 23 26 31 34 39 43 47 50 54
22 25 26 29 31 25 23 16 15 18 20 24 28 32 36 39 41 43 42 46 52 57 61 62 57 51 46 40 35 33 30 28 26 25 23 22 22 22 22 21 19 16 11 13 17 19 25 28 30 34 37 41 45 47
22 26 27 31 25 21 16 13 17 16 19 23 27 32 36 40 42 43 41 44 50 57 61 60 56 51 48 43 38 34 32 31 29 27 26 24 21 19 17 16 14 13 11 7 16 17 17 20 26 29 30 33 37 40
22 24 28 24 18 14 13 13 13 15 17 21 25 30 36 41 44 45 44 46 50 55 60 62 60 53 49 44 40 36 34 32 31 29 28 27 26 24 22 19 16 12 9 7 8 13 18 19 19 21 24 25 28 32
21 25 21 15 11 10 9 8 11 13 18 20 25 31 37 41 44 48 54 54 50 53 57 60 60 55 51 46 42 39 38 38 36 34 33 32 31 28 24 20 16 13 9 7 7 9 12 14 15 15 18 20 22 24
22 20 12 9 7 6 3 6 11 16 21 28 32 36 39 43 48 49 50 55 56 54 56 59 60 56 51 47 44 42 40 38 35 35 34 32 30 28 25 22 18 14 12 9 7 6 7 8 10 11 13 15 17 20
19 12 9 8 7 4 5 9 16 21 28 33 35 38 42 47 52 54 54 54 57 58 54 58 58 57 53 50 46 43 40 37 36 35 32 31 29 27 26 25 22 18 14 11 8 6 5 4 5 7 9 11 12 15
13 8 7 6 6 7 10 13 18 27 30 33 36 41 44 46 49 53 53 55 56 60 56 56 57 57 54 50 46 43 40 37 36 37 36 34 32 30 28 26 25 22 19 16 13 9 6 4 2 2 4 5 7 9
11 9 7 6 7 10 9 13 22 28 32 35 39 41 44 47 50 52 53 54 56 56 58 54 55 56 54 50 47 44 40 37 35 36 35 34 34 33 32 29 27 25 23 20 16 14 12 10 7 5 3 1 2 4
8 8 7 7 10 12 14 19 23 29 35 38 37 44 42 44 48 49 50 53 54 54 56 54 54 54 54 51 46 43 40 38 34 33 33 32 32 32 32 32 31 29 26 24 21 19 17 15 12 10 8 5 3 1
11 11 11 13 17 20 23 25 33 40 38 34 38 40 42 44 47 50 51 52 52 51 53 52 50 52 52 49 46 42 40 38 35 31 29 29 29 29 29 29 29 28 27 27 25 23 21 18 16 14 12 10 8 6

GFSWCAN_250_spd_054.txt.gz
Wind_Speed
92 77 62 57 57 58 65 72 80 87 89 91 98 83 77 66 54 45 37 29 23 21 18 17 13 11 10 10 8 12 19 16 15 14 16 11 17 15 16 18 18 22 25 35 44 52 61 67 74 76 80 79 100 107
80 68 52 50 54 59 63 72 80 85 91 88 97 77 72 60 51 43 36 28 21 19 19 20 17 13 10 8 7 9 14 15 15 13 11 9 10 7 6 10 13 15 20 26 35 46 51 57 64 66 69 76 95 105
70 50 44 50 50 60 65 73 78 85 86 93 89 75 68 60 48 42 34 27 23 20 19 23 24 20 14 7 6 7 13 16 14 15 10 8 2 1 1 3 8 12 13 16 26 33 41 48 55 58 58 66 86 98
49 39 44 47 51 60 64 71 77 83 84 90 77 73 66 58 46 40 33 28 26 24 23 21 17 15 16 10 6 8 12 15 18 15 10 5 5 7 6 5 5 5 10 14 17 22 32 39 42 45 48 58 76 90
34 37 42 46 54 59 65 71 77 80 84 86 72 69 64 55 46 37 34 31 28 23 21 20 18 18 19 15 10 9 10 12 15 14 10 3 10 8 5 7 7 7 7 7 10 18 25 29 34 38 44 55 64 73
29 38 42 48 55 60 64 72 76 77 82 77 68 64 58 50 41 33 33 31 30 30 30 28 27 28 23 19 15 11 11 13 13 15 16 8 11 11 9 10 10 8 12 12 12 16 20 28 34 39 46 54 61 66
31 37 43 49 56 61 65 71 75 76 78 70 64 59 52 48 46 41 38 38 39 39 34 31 27 26 27 26 24 18 14 14 14 11 11 13 4 17 19 15 11 12 20 22 21 22 23 26 34 40 46 52 58 65
33 38 41 50 57 61 66 70 71 76 72 62 60 55 48 43 45 46 47 49 49 48 47 44 39 36 32 27 24 23 21 16 16 17 14 12 10 8 23 19 17 16 25 28 30 28 28 29 35 40 43 50 56 62
36 38 43 52 57 62 67 68 71 75 65 57 56 51 43 41 42 44 45 46 47 47 48 47 45 42 37 37 33 27 22 20 17 18 19 17 16 11 14 25 27 19 20 31 35 33 32 29 30 39 43 45 50 59
40 39 45 49 57 61 66 65 71 72 57 55 54 48 40 38 41 43 44 46 48 49 50 48 47 46 39 39 35 32 27 22 19 20 21 20 22 20 13 20 28 31 23 33 36 39 41 35 36 36 42 47 54 63
38 42 46 53 55 61 60 69 70 68 52 51 53 47 42 36 40 45 46 47 48 45 49 49 51 48 45 45 36 31 31 28 26 21 21 23 21 23 23 19 26 34 29 36 44 44 45 45 42 44 46 47 50 58
36 41 50 52 56 61 62 68 67 60 50 49 49 43 40 36 40 44 47 46 48 45 46 52 55 55 49 48 41 36 34 23 29 25 21 22 22 21 22 22 26 32 39 33 47 50 46 47 47 52 50 54 57 59
37 43 52 52 57 57 64 66 64 49 50 49 46 42 38 36 40 47 45 47 51 50 54 53 56 52 49 50 46 38 32 29 28 29 25 19 20 20 18 23 27 35 40 42 46 54 52 49 52 57 60 63 66 66
44 47 47 51 54 59 64 65 55 45 46 47 43 39 35 35 39 45 47 47 49 50 48 50 53 55 54 46 40 43 39 31 28 23 23 21 19 17 20 24 27 31 40 43 48 52 59 54 59 66 66 71 76 76
45 42 46 53 57 61 64 61 44 44 43 45 40 36 35 36 38 44 45 48 47 46 46 51 56 58 55 48 41 34 30 26 24 22 22 22 20 17 19 21 23 29 38 41 50 54 54 59 62 69 75 76 80 85
39 44 49 55 57 59 61 47 42 43 42 42 37 33 33 35 41 45 49 50 50 49 48 52 57 58 53 44 38 32 29 27 23 21 20 20 20 20 18 20 25 28 32 39 44 51 58 60 65 73 78 80 85 88
42 45 51 51 55 58 52 41 41 40 41 36 33 29 30 34 41 49 57 52 49 47 49 52 56 57 48 39 37 34 32 30 27 25 21 18 17 19 21 21 22 27 30 33 39 48 53 59 65 72 79 84 84 88
43 47 49 54 55 57 41 39 40 38 40 33 29 25 30 33 35 35 43 48 51 51 51 52 56 59 55 51 43 34 29 27 27 24 21 19 18 18 19 21 22 25 28 32 36 41 50 56 61 68 72 79 84 87
47 47 54 56 56 45 37 38 38 38 36 28 24 25 28 32 41 48 45 45 49 51 51 51 54 57 55 50 45 39 34 31 30 29 27 23 17 16 18 20 22 24 27 31 34 38 43 48 56 63 68 74 80 85
43 48 52 51 48 37 37 37 37 36 29 23 23 24 27 30 31 43 47 47 48 50 53 53 55 55 53 47 44 40 36 34 32 31 28 27 25 21 20 16 19 25 27 29 31 36 40 43 47 58 68 68 75 82
46 48 46 50 35 35 35 35 34 28 22 22 22 25 28 30 30 36 41 46 49 55 57 58 56 56 56 50 45 41 37 36 36 35 33 29 25 23 22 20 20 19 26 26 28 32 34 38 45 49 53 64 73 75
45 48 50 38 33 34 33 35 26 18 22 21 20 27 15 28 37 41 46 51 54 57 61 59 61 61 58 52 48 44 40 36 35 36 35 33 32 28 24 23 20 15 20 24 25 26 31 34 38 41 46 50 59 70
46 48 42 32 32 31 33 30 24 22 20 23 25 27 31 35 39 43 46 49 52 58 61 60 59 61 61 59 52 46 42 39 38 37 35 33 33 32 27 21 20 18 14 18 23 26 23 26 33 37 39 42 48 56
44 41 33 30 28 29 30 22 21 19 21 28 31 31 40 46 50 52 52 53 55 59 59 58 61 61 59 57 54 46 41 39 37 35 33 31 28 25 25 24 22 19 16 15 18 20 19 19 23 28 31 36 41 45
38 30 28 24 25 27 21 19 15 17 18 22 27 36 44 53 59 60 58 61 62 61 61 63 62 61 61 58 54 47 42 39 36 34 32 31 29 25 22 18 16 14 14 12 12 14 16 17 16 19 24 31 36 39
28 25 20 22 24 18 15 14 13 17 22 24 28 36 47 56 63 59 59 62 60 59 62 63 62 60 60 57 56 51 47 42 39 36 34 33 29 27 26 23 19 14 12 11 9 9 10 12 12 14 17 21 26 31
21 19 21 22 15 10 10 12 13 19 21 23 19 31 50 56 56 53 56 61 58 60 61 59 57 57 58 57 56 50 46 42 38 36 35 34 33 30 27 23 18 14 10 8 7 6 6 7 9 12 14 16 18 24
17 21 21 13 9 9 13 15 18 19 10 14 19 33 47 50 56 56 53 54 55 58 59 59 56 55 55 53 54 51 48 42 39 36 35 32 31 30 26 22 19 17 13 10 7 4 3 3 5 7 11 14 17 18
18 17 13 9 9 9 11 15 22 29 27 22 29 42 47 43 48 50 53 53 54 55 55 54 51 51 51 52 50 47 43 40 36 34 32 31 30 29 27 25 22 20 18 14 11 9 6 3 1 3 6 9 13 15
12 11 11 7 6 7 7 11 13 6 22 32 36 41 44 46 50 52 54 53 55 55 55 50 49 50 50 51 48 47 40 38 35 33 31 29 28 28 27 25 23 22 20 17 15 13 11 8 5 2 0 3 5 9
5 6 9 9 11 12 7 8 19 30 33 37 41 38 43 45 52 52 54 55 56 53 47 44 44 46 48 48 47 44 37 34 32 28 26 26 27 27 27 26 25 24 23 22 19 16 14 11 9 7 4 2 0 2
7 9 10 8 8 9 10 19 25 31 35 37 41 43 46 51 56 54 55 57 53 43 37 37 40 44 46 46 45 40 36 32 30 27 25 25 26 27 26 26 25 24 23 21 20 19 17 15 13 10 7 5 3 2
12 12 10 4 8 11 11 23 29 34 41 42 45 44 46 52 57 57 57 55 39 33 32 35 38 42 45 45 43 38 35 32 29 27 25 25 26 26 25 25 25 24 24 23 22 20 19 18 17 15 13 12 9 7

GFSWCAN_250_spd_057.txt.gz
Wind_Speed
91 96 92 74 43 48 51 61 67 74 78 84 90 91 78 69 55 43 37 29 22 18 16 13 12 15 15 16 15 13 14 16 14 10 9 9 15 12 10 12 18 21 27 37 43 51 61 69 80 81 84 90 103 110
94 94 83 55 45 46 52 64 67 71 80 84 90 86 77 67 58 46 37 32 27 23 17 16 14 13 12 10 11 13 13 14 14 9 8 9 13 15 12 14 17 19 24 31 35 47 54 58 62 68 76 82 95 101
95 93 75 47 44 47 54 62 68 74 79 82 88 80 75 64 60 51 41 36 34 29 22 16 13 16 16 13 9 11 14 12 13 9 8 10 14 13 13 14 16 18 21 25 29 38 43 48 55 59 64 68 79 93
95 91 74 45 44 48 55 65 65 74 77 81 85 73 70 58 53 47 42 40 37 34 31 28 21 16 15 14 12 13 16 18 15 12 10 12 15 17 15 14 13 15 18 20 24 26 31 39 47 52 54 56 67 79
92 83 60 44 46 48 56 61 68 72 75 82 81 69 65 55 49 44 43 43 42 39 38 35 29 21 18 26 23 15 14 18 21 17 15 11 16 22 15 14 16 15 15 18 20 21 25 32 39 45 47 48 55 66
84 77 50 44 46 49 54 61 65 70 72 79 77 64 62 52 45 44 46 46 47 48 48 44 39 32 35 30 23 21 18 18 18 21 19 16 12 20 22 18 16 15 14 12 8 13 18 24 29 34 39 43 50 54
79 62 46 44 45 48 57 53 64 71 71 76 75 59 57 48 42 45 47 49 48 47 50 49 44 44 36 37 34 30 26 22 20 21 23 19 15 14 23 25 21 18 18 15 13 16 15 16 21 27 31 36 45 49
68 58 47 44 46 49 53 61 63 67 72 75 69 59 56 46 39 43 44 44 46 45 47 47 50 51 45 49 50 41 34 33 26 20 19 25 23 18 18 25 29 23 23 23 21 20 18 20 22 27 32 35 40 45
62 46 43 44 45 52 62 60 62 63 73 73 58 55 52 45 38 42 44 44 51 56 51 51 57 59 40 49 58 64 46 29 26 23 20 20 23 25 19 23 26 27 26 27 27 26 24 22 21 24 30 34 39 44
54 45 40 44 45 52 58 56 59 67 72 68 52 52 50 43 38 43 42 39 47 55 56 59 56 60 45 39 49 66 59 40 30 28 27 24 21 22 24 21 26 27 27 28 28 29 27 25 24 25 28 33 37 40
46 44 43 36 43 52 52 55 62 69 70 60 51 50 48 41 38 40 46 41 33 32 45 36 40 41 34 20 51 59 53 47 38 28 26 26 23 18 23 22 23 25 31 27 29 32 32 29 27 28 28 29 32 38
41 37 40 43 50 52 51 57 63 66 67 50 48 48 43 40 37 37 39 43 41 39 37 37 40 45 44 48 51 48 44 39 34 28 23 20 21 15 17 23 22 27 28 30 27 34 37 34 35 32 30 31 31 34
38 36 43 42 42 44 49 59 61 65 60 47 45 46 41 36 36 36 31 39 53 49 46 42 45 48 53 56 50 42 39 34 31 27 28 29 24 18 17 18 24 25 31 30 34 37 39 40 40 38 36 35 33 34
28 33 36 37 44 51 55 56 60 66 48 46 43 43 37 32 35 36 39 46 50 52 47 38 43 45 51 54 48 40 34 30 26 24 23 23 25 24 19 15 16 28 27 29 35 40 44 43 43 43 43 43 41 40
27 30 34 41 47 49 51 54 64 62 44 44 43 40 32 29 31 47 49 46 47 48 50 50 49 52 55 54 47 40 34 27 25 27 25 26 25 22 23 19 17 22 26 26 32 42 42 46 46 49 52 50 51 49
26 30 38 42 48 46 50 57 62 49 43 41 40 33 24 26 19 19 41 47 46 51 52 52 54 54 54 52 44 39 35 30 27 28 28 27 25 23 22 22 19 20 24 26 31 36 45 46 49 51 55 58 58 56
24 26 36 38 48 50 51 59 55 42 42 40 33 25 24 26 28 34 39 49 50 52 58 59 57 57 54 54 49 44 38 34 31 28 27 25 25 25 24 23 22 20 23 25 28 33 38 47 50 53 55 61 61 61
27 30 35 45 43 49 55 55 41 41 39 33 26 23 23 34 40 37 42 47 51 55 61 61 58 55 56 54 52 48 44 39 35 33 29 25 23 19 20 23 24 23 23 25 29 30 35 41 44 55 56 59 65 65
24 33 34 42 47 50 51 45 37 37 29 20 20 20 19 23 34 39 43 48 53 56 62 64 56 50 53 57 54 49 45 40 36 34 33 31 30 29 24 20 19 25 24 24 27 30 30 37 43 49 58 61 62 68
27 33 39 44 48 49 46 33 34 28 21 12 13 28 39 39 41 48 54 52 50 55 60 64 58 52 52 55 54 50 44 41 38 36 35 34 29 23 20 21 23 20 23 28 25 25 29 35 36 45 53 58 70 67
35 38 41 45 45 46 31 30 28 18 12 15 14 15 6 32 42 54 59 60 62 64 66 69 60 57 58 57 56 54 50 46 40 36 35 35 33 29 26 18 20 21 19 23 26 24 29 29 31 36 43 52 65 73
33 36 37 42 43 31 26 25 18 7 8 15 19 26 33 34 46 55 65 70 72 72 71 69 59 59 62 59 57 56 53 49 44 40 40 38 36 34 31 24 20 20 16 16 23 22 17 20 28 32 36 43 56 65
33 38 39 39 30 25 22 20 10 6 11 16 21 14 22 34 48 55 65 72 74 72 67 65 62 62 62 61 61 58 54 49 45 40 36 36 35 32 29 28 21 20 17 12 12 18 17 19 22 19 29 34 41 53
37 36 37 28 24 21 20 11 3 6 13 20 26 27 23 41 54 54 61 68 76 78 72 66 60 62 61 57 55 53 49 45 42 39 36 34 33 32 29 26 24 21 20 15 12 12 12 14 17 22 23 27 37 41
33 34 25 21 21 20 11 5 2 7 11 17 16 18 8 35 51 46 60 72 76 77 72 69 66 68 65 60 56 53 50 47 44 41 38 35 33 30 28 26 22 19 16 15 12 10 9 8 12 16 18 22 25 33
33 25 19 18 19 9 6 2 8 12 15 19 17 16 16 31 30 43 58 68 68 69 68 68 70 67 63 58 55 54 51 48 43 41 37 35 34 32 29 28 28 24 19 15 12 11 8 5 8 14 16 20 24 28
22 18 18 18 6 4 9 15 16 18 12 2 18 18 21 23 34 46 53 58 61 65 65 69 68 63 56 55 55 53 48 44 42 39 36 35 34 32 30 26 24 22 20 15 11 8 7 6 5 8 12 16 19 22
16 15 16 9 3 7 5 5 2 5 8 16 24 30 33 43 48 49 53 57 62 65 66 71 63 55 51 50 52 52 49 43 39 36 33 32 30 30 29 28 25 21 18 16 15 12 10 7 5 4 5 9 14 16
12 11 8 5 4 4 9 12 13 12 11 13 21 18 39 46 49 56 61 63 68 67 68 63 48 48 50 50 49 46 40 36 33 32 31 32 30 29 28 27 26 25 22 19 17 14 12 9 6 4 3 5 8 12
7 4 7 8 3 4 6 5 13 13 15 16 16 31 42 51 57 60 67 67 69 66 65 48 43 44 46 48 48 44 39 35 33 33 33 32 30 29 27 27 27 25 24 22 20 18 16 13 11 7 4 3 5 7
3 2 4 5 6 5 4 1 2 6 5 18 37 43 51 51 56 63 65 67 64 65 53 43 41 43 46 48 47 43 39 34 32 32 31 31 30 28 27 27 27 26 25 23 21 19 17 15 13 11 9 6 4 4
1 3 7 12 8 6 8 13 16 13 13 25 35 49 50 56 61 63 65 61 59 55 42 39 38 42 45 46 44 42 38 35 34 32 31 30 29 29 28 27 27 26 25 24 23 21 20 18 16 14 12 9 7 6
8 7 8 8 7 5 5 14 20 10 10 22 35 44 50 54 55 58 56 52 52 44 37 34 37 40 42 44 44 42 39 37 34 32 31 30 29 29 28 27 27 26 25 24 23 22 20 19 18 16 14 12 10 8

GFSWCAN_250_spd_060.txt.gz
Wind_Speed
104 99 90 90 87 77 55 56 58 66 71 73 82 86 82 71 59 55 50 39 33 26 21 19 18 19 21 18 16 14 10 10 12 15 17 19 20 19 16 19 23 26 32 38 48 54 58 67 76 82 84 86 98 108
101 93 87 87 80 65 53 55 59 65 69 70 77 82 76 67 54 50 48 43 36 31 26 22 17 16 20 19 16 14 12 13 16 17 17 18 18 19 18 16 19 19 23 29 37 45 47 54 63 69 74 78 93 100
92 84 84 84 72 64 52 53 58 63 72 70 75 78 69 63 51 47 44 41 40 37 35 30 15 10 18 18 15 15 16 16 18 20 21 20 20 22 22 20 18 18 19 22 27 34 38 45 51 57 63 68 81 93
86 83 79 74 71 61 54 48 55 62 73 68 74 75 62 58 46 42 40 39 40 39 40 43 35 27 26 26 27 26 20 18 21 23 23 22 21 22 24 23 21 20 21 23 24 26 27 34 41 48 53 57 69 82
84 83 77 75 67 60 50 50 55 62 68 67 72 73 55 54 43 39 36 36 43 42 42 41 45 35 32 28 27 28 22 27 26 25 27 27 25 24 22 24 26 25 25 24 24 23 23 29 34 40 46 53 61 69
84 83 75 68 59 53 44 50 55 62 62 67 70 69 53 52 42 39 41 37 37 40 39 41 40 42 39 33 26 32 33 17 20 23 29 26 29 29 28 24 28 30 27 24 25 24 23 24 30 34 39 48 53 62
76 78 70 63 54 44 42 47 54 59 61 64 70 63 52 51 42 38 40 36 35 39 39 40 49 50 45 44 47 42 37 38 15 24 24 23 24 27 31 31 29 29 30 29 28 25 23 25 27 28 30 37 49 56
70 72 65 55 50 40 36 47 53 55 56 64 69 55 51 49 40 33 38 41 48 41 45 44 47 41 45 44 49 51 46 41 36 32 25 21 25 23 27 29 35 31 29 32 29 29 28 26 28 28 30 33 41 49
67 64 57 50 48 42 43 45 50 50 59 63 67 50 49 47 38 32 31 43 49 44 46 42 39 37 39 32 36 46 47 48 48 41 33 26 24 22 25 28 31 34 29 30 33 31 30 30 29 28 29 31 35 40
56 55 56 51 40 36 40 40 45 55 57 61 64 48 47 43 35 37 36 42 42 46 49 48 42 41 40 40 45 42 36 41 45 42 33 31 24 22 22 27 28 32 30 28 32 33 30 34 32 30 30 29 31 35
53 46 50 43 34 36 36 39 50 55 57 61 61 47 45 38 30 35 42 44 44 46 47 48 49 47 46 48 49 44 37 34 33 30 28 27 24 16 23 25 23 26 30 29 31 35 32 33 35 34 31 30 27 29
48 44 46 37 27 31 36 42 50 52 54 59 52 44 41 30 26 26 33 50 53 49 53 54 51 49 50 51 52 46 41 34 30 29 27 26 22 14 16 19 21 22 22 24 31 35 33 32 34 35 32 29 24 27
43 42 42 29 25 28 36 44 46 50 57 56 44 41 38 29 25 29 33 43 49 51 56 60 57 52 51 51 53 48 39 35 31 28 27 27 26 20 18 19 19 19 22 21 28 31 36 31 33 34 32 28 29 27
42 44 31 24 25 31 42 39 46 51 55 53 40 38 29 22 25 36 39 42 46 49 53 60 61 54 51 52 52 50 45 40 34 29 30 29 27 25 22 21 22 21 21 22 23 30 33 36 33 35 36 32 31 29
44 34 17 16 20 30 39 39 46 50 56 45 38 28 19 15 18 39 45 45 48 54 55 59 65 60 55 51 52 48 44 41 37 32 29 27 26 24 22 19 19 22 21 22 19 27 30 35 36 37 37 37 33 32
36 16 14 17 21 30 36 41 48 52 51 38 29 19 16 20 35 46 47 51 60 63 62 64 67 61 59 53 51 52 48 43 40 34 29 28 27 26 24 24 21 20 22 22 20 22 29 33 37 38 39 39 39 36
18 15 15 17 21 30 38 44 48 50 39 31 16 13 23 27 36 42 49 56 62 68 70 70 72 69 62 54 50 51 51 47 44 42 38 35 32 23 18 22 22 20 21 20 22 23 26 31 36 38 43 42 41 44
17 12 17 18 28 35 41 44 47 47 30 19 8 1 13 24 35 42 50 52 60 68 75 78 76 76 69 57 54 53 52 48 45 42 39 37 35 33 30 26 25 21 19 19 20 23 24 29 34 37 40 46 44 41
13 15 13 23 31 36 41 42 46 32 22 17 12 14 12 12 18 35 52 57 62 69 75 75 75 76 73 63 58 54 53 52 49 45 42 40 37 34 31 28 27 26 24 20 20 18 18 29 31 36 38 46 48 46
10 7 20 28 32 35 40 42 32 24 19 11 9 7 3 5 15 33 43 57 62 65 73 77 76 76 76 70 63 59 53 50 47 44 42 38 34 34 33 27 20 22 24 22 16 17 15 22 31 34 36 39 47 49
8 17 22 25 31 37 39 31 23 18 7 3 4 4 9 14 21 29 41 53 65 68 72 78 80 79 78 75 63 59 56 52 49 45 43 40 36 36 36 31 24 21 17 18 17 15 15 17 27 33 30 35 43 48
16 19 22 27 35 39 30 19 17 8 2 3 3 14 25 30 32 37 49 58 66 70 72 77 81 80 80 77 65 58 56 55 52 49 44 42 38 35 33 28 25 20 18 16 16 12 10 14 22 26 29 34 36 43
15 19 27 33 33 25 17 16 13 4 5 6 9 5 9 26 22 32 43 50 57 59 68 73 79 79 79 70 60 58 57 56 51 46 43 40 37 34 30 27 23 19 14 11 12 11 7 11 15 20 23 24 30 38
20 25 29 32 24 16 16 13 7 8 8 4 6 12 8 6 10 23 32 41 52 59 64 72 80 79 76 61 56 56 54 49 42 38 36 34 34 32 32 28 25 21 16 12 11 8 7 7 10 15 20 23 25 28
23 26 28 23 14 15 12 7 12 14 9 8 8 8 13 14 21 22 32 45 53 64 71 78 80 77 70 58 55 54 48 43 40 38 37 38 35 34 31 29 29 27 22 17 12 8 4 5 7 10 15 18 21 23
23 25 20 13 15 11 6 7 11 10 11 3 11 13 13 18 23 30 40 54 58 65 73 80 79 78 65 58 56 51 47 44 41 38 35 34 34 34 32 30 27 25 23 21 16 11 8 5 3 7 11 14 16 19
23 17 13 13 7 6 7 10 2 4 1 3 9 16 14 14 22 39 47 59 63 69 77 77 75 72 59 58 55 51 45 41 39 37 35 36 34 32 32 30 27 25 23 20 17 13 11 8 4 3 6 10 11 14
14 10 10 7 6 8 4 10 10 7 8 11 14 15 19 25 34 43 54 59 66 71 72 72 67 57 55 55 55 53 50 45 41 38 36 34 32 32 31 30 28 27 24 22 20 18 14 10 8 5 4 4 7 8
7 7 5 3 5 11 11 6 7 11 14 19 21 20 22 27 30 41 48 54 65 70 71 69 62 53 49 47 50 49 45 40 38 35 35 34 33 31 29 29 28 27 25 22 18 15 13 11 9 6 4 2 3 6
6 4 1 2 5 10 11 10 10 14 18 20 23 22 28 28 36 43 50 59 64 65 61 59 50 49 48 50 49 47 44 40 37 35 33 33 32 32 31 29 27 26 25 23 21 19 17 15 12 9 7 5 2 2
4 6 5 4 5 8 13 17 18 17 16 19 21 26 30 36 42 48 56 60 62 57 53 53 48 48 45 44 46 47 46 42 39 36 34 32 31 30 30 30 28 27 26 24 23 21 20 17 15 12 10 7 5 4
4 5 6 7 8 8 11 16 19 19 22 27 28 28 31 35 42 51 56 56 52 51 49 50 48 45 42 43 45 47 47 43 39 36 34 33 31 30 29 28 28 28 27 25 24 23 22 20 18 17 15 12 9 6
7 11 12 12 12 15 16 18 22 25 26 29 30 33 39 42 45 49 51 47 47 46 45 46 47 45 42 41 43 44 45 44 40 37 35 33 32 30 29 28 28 27 27 26 26 25 24 22 21 20 18 16 14 12

GFSWCAN_250_spd_063.txt.gz
Wind_Speed
97 94 94 89 87 80 77 66 50 57 61 65 72 74 76 74 63 53 50 44 39 37 32 22 18 21 23 20 13 8 5 7 9 10 13 13 14 18 21 27 34 39 44 50 55 60 67 78 83 87 93 97 99 108
95 90 92 87 81 79 77 57 52 50 56 65 72 70 73 67 58 50 46 41 38 37 32 29 28 24 19 14 13 13 11 7 8 11 13 15 16 15 16 21 27 32 35 40 45 50 56 64 68 76 82 89 92 95
91 88 90 90 79 75 67 53 50 48 55 64 64 68 70 62 56 47 43 41 35 30 29 29 26 22 20 18 17 13 10 9 9 12 11 12 18 19 21 23 24 29 33 38 41 41 47 52 57 63 71 77 80 85
86 89 87 83 78 74 60 53 45 47 53 59 59 66 68 57 53 45 41 39 39 29 31 32 28 27 28 16 13 15 14 10 7 10 12 13 10 15 22 26 26 28 30 32 33 35 40 43 47 53 59 64 67 73
91 85 83 77 73 70 57 55 46 45 52 52 59 63 65 55 50 41 36 40 40 40 38 39 37 37 35 32 30 21 18 9 12 12 14 15 19 16 19 27 31 30 29 32 34 35 35 35 41 45 48 54 59 62
83 82 79 69 70 64 53 50 43 41 46 52 59 63 58 55 48 38 35 40 43 45 45 39 34 34 37 39 39 36 40 33 17 17 18 19 21 21 23 26 29 32 31 32 35 36 35 34 34 35 46 46 55 58
82 81 66 68 63 57 52 47 38 41 44 53 59 58 58 51 45 36 34 34 38 42 46 47 43 39 37 37 38 41 42 41 33 19 25 20 21 21 23 27 27 27 33 35 34 35 36 35 33 32 35 39 50 54
84 77 67 61 56 54 46 49 38 38 44 53 56 57 55 46 39 28 35 38 36 41 47 49 47 42 41 42 43 45 43 38 34 34 33 28 23 24 26 27 28 27 31 32 34 33 35 37 36 32 31 34 38 44
78 68 56 50 53 46 43 42 34 37 44 51 52 58 51 42 37 30 32 39 38 43 45 49 50 45 41 42 45 47 42 36 33 32 31 27 24 24 26 27 30 29 31 30 32 33 33 35 38 34 31 33 34 37
55 48 46 51 48 40 39 36 31 34 44 47 50 53 46 39 31 32 28 36 42 45 47 50 50 46 43 43 45 47 46 37 32 26 21 21 20 19 22 24 26 29 30 28 29 31 31 32 37 36 35 33 33 32
43 45 44 49 38 36 40 31 28 34 36 44 51 52 42 34 25 28 34 40 46 50 53 53 55 55 53 50 49 50 49 44 37 31 25 21 23 19 17 25 28 30 32 31 31 30 29 30 32 37 37 36 33 32
45 46 48 40 32 31 33 27 27 32 36 44 50 50 37 23 23 31 38 45 49 58 61 60 61 64 63 60 53 51 50 45 39 33 26 22 20 20 20 21 23 26 30 32 29 29 30 31 30 31 37 36 34 30
45 41 35 30 31 33 22 23 25 31 37 45 50 46 30 14 21 28 38 46 51 57 63 66 67 68 69 69 61 54 49 46 41 38 33 31 28 25 23 21 20 20 24 26 26 27 26 30 30 27 33 34 34 29
38 34 29 29 27 21 19 18 26 35 39 47 47 36 20 7 18 29 37 45 50 56 61 66 70 73 73 71 70 63 54 48 44 41 36 32 28 25 26 26 26 24 23 23 24 25 26 25 30 27 30 33 33 28
26 27 29 24 26 21 20 19 28 35 42 45 43 26 13 7 13 25 37 43 49 58 61 68 69 73 78 78 73 70 59 51 46 42 36 31 27 24 25 27 25 25 22 24 25 25 27 27 28 30 28 32 33 30
27 32 35 30 20 22 21 20 31 37 41 42 29 19 8 7 15 28 36 38 43 56 58 66 70 72 76 80 76 73 63 54 49 46 41 35 30 25 18 19 25 27 29 30 30 29 28 28 28 30 28 31 34 34
37 39 28 20 20 22 17 24 32 36 39 34 21 19 13 8 18 25 29 34 38 52 63 64 69 70 76 79 79 73 62 52 49 48 44 40 36 31 27 22 19 22 27 27 27 26 27 27 29 27 28 31 33 35
31 22 21 19 17 18 19 27 32 36 39 28 21 18 23 24 27 23 32 31 41 52 61 64 70 74 80 84 82 71 59 53 51 48 44 40 35 31 28 24 23 22 22 23 20 23 27 26 26 26 26 29 33 34
20 19 20 18 14 17 25 30 34 38 33 23 18 19 24 28 23 27 34 42 45 48 54 62 70 74 80 86 83 70 58 56 53 49 45 40 35 33 29 27 25 22 21 21 20 19 22 25 24 23 24 27 32 34
14 13 13 13 16 25 28 31 36 35 24 18 14 13 12 15 19 29 31 32 36 43 53 60 69 76 82 85 84 63 62 58 53 46 41 37 34 31 27 23 22 22 22 19 20 20 16 21 23 21 22 24 29 33
14 12 12 15 19 21 27 35 31 22 20 13 12 12 11 16 24 22 23 29 37 48 56 62 69 79 82 85 76 62 62 56 49 44 39 36 33 31 31 29 26 24 23 20 18 16 15 17 20 20 19 21 25 30
13 11 14 17 20 25 31 33 22 18 14 13 12 13 14 16 18 24 31 31 38 44 54 61 71 80 82 83 69 65 61 53 47 42 39 37 36 34 31 25 22 21 20 20 17 14 14 16 16 18 15 18 23 28
11 13 15 17 23 29 31 23 20 18 15 17 17 15 12 15 21 25 29 30 35 45 54 63 72 79 80 75 63 63 57 51 45 42 40 39 37 34 30 24 20 18 20 18 14 11 11 13 13 13 10 12 18 23
15 15 16 22 28 30 25 20 21 14 16 18 15 5 8 12 16 22 28 32 35 47 59 66 73 77 75 68 62 60 55 48 44 40 37 36 32 28 29 28 24 17 12 9 11 12 10 9 9 10 9 10 13 17
17 18 23 28 29 22 18 20 17 13 13 14 10 9 12 14 19 31 32 33 37 48 59 70 75 77 70 64 60 58 52 47 42 38 36 34 31 31 32 31 29 26 22 17 13 11 10 7 5 6 6 10 12 18
18 21 24 25 19 18 17 13 9 9 14 16 15 18 21 22 23 30 36 39 40 50 60 69 75 71 66 58 56 54 50 44 40 38 35 35 35 35 33 30 28 26 23 20 14 11 10 9 6 3 4 7 10 13
17 20 21 16 15 13 9 8 6 6 8 10 14 20 25 25 27 33 38 41 48 54 62 71 72 65 62 56 51 48 45 42 40 39 38 36 36 34 32 31 28 24 22 19 17 15 11 7 5 4 2 3 6 9
17 18 14 13 12 10 10 9 9 12 15 17 21 28 29 34 35 35 37 41 49 57 64 69 64 59 58 55 51 50 48 45 42 41 39 37 36 34 32 30 28 26 25 22 19 17 15 12 8 5 2 2 4 6
16 13 10 9 9 10 12 13 13 15 22 25 30 35 34 34 38 40 42 46 51 57 61 57 54 55 57 54 51 51 50 46 42 40 37 34 33 32 32 30 29 28 26 23 20 18 14 12 10 8 5 4 4 4
12 8 6 4 7 9 11 14 18 20 24 30 31 33 34 35 38 41 44 48 50 55 51 49 46 49 52 52 48 47 46 44 40 39 37 34 32 30 30 30 29 27 26 25 24 21 18 15 12 10 8 6 5 4
7 6 7 6 8 11 14 15 17 20 23 25 28 31 35 37 39 41 43 48 53 50 48 47 44 45 47 51 49 45 44 42 39 36 35 34 33 31 30 29 28 27 27 26 23 22 20 18 16 13 10 8 7 5
6 3 4 6 11 13 15 16 20 23 25 27 29 30 30 32 39 42 47 48 44 42 41 41 40 41 44 48 50 45 43 43 41 38 36 35 34 33 31 30 29 28 28 26 26 25 23 21 21 19 17 14 11 8
7 6 5 4 5 7 10 15 20 23 25 26 27 27 28 30 36 39 41 40 38 37 36 37 39 42 42 43 45 47 44 43 42 39 36 35 33 32 31 30 29 28 27 27 26 25 25 25 23 20 18 17 16 14

GFSWCAN_250_spd_066.txt.gz
Wind_Speed
83 83 84 80 84 87 90 84 75 76 62 51 54 58 66 70 70 62 54 47 46 35 25 24 23 24 23 20 13 8 9 11 12 15 19 23 27 32 36 40 45 52 61 68 73 76 82 86 88 89 90 93 98 109
85 84 85 83 82 89 87 82 73 69 58 49 50 54 63 64 65 58 50 45 43 40 33 26 20 21 19 17 18 17 16 10 14 20 23 25 27 28 31 35 38 42 46 52 59 65 72 79 83 87 89 91 93 96
83 91 82 80 81 82 84 82 71 66 56 44 49 52 58 62 63 55 46 41 37 37 38 34 32 26 26 25 17 15 14 15 17 19 21 25 31 31 32 32 35 35 38 42 47 53 60 68 75 79 81 83 85 89
93 89 80 81 85 87 85 69 63 58 50 40 46 50 59 61 58 50 40 36 36 40 40 38 34 33 30 29 25 25 19 18 17 24 25 26 24 29 31 34 37 38 41 42 46 50 53 56 62 68 71 73 77 81
90 81 89 84 88 86 65 60 55 54 45 40 43 49 56 56 55 43 36 38 34 38 41 42 40 35 33 31 31 31 31 27 19 20 27 27 26 25 28 31 34 37 41 42 42 45 51 54 55 58 60 64 66 71
84 87 85 91 84 70 60 54 49 49 44 36 41 47 52 52 48 41 36 38 36 36 37 39 42 39 35 33 34 35 35 34 28 21 18 28 29 24 32 29 32 36 38 40 40 42 44 47 50 53 54 58 62 64
81 87 91 88 73 58 51 47 44 42 36 34 37 44 47 47 43 33 28 30 32 36 39 42 46 49 41 39 37 39 40 38 32 26 20 17 29 28 28 31 30 33 37 37 39 42 41 43 43 45 50 49 52 55
98 98 89 73 61 46 43 42 41 39 33 31 34 39 45 45 37 25 25 33 35 42 49 52 55 56 55 52 46 43 41 36 30 26 22 20 18 19 26 28 31 32 33 33 35 39 39 39 41 42 45 47 48 51
102 85 72 57 39 39 41 38 36 33 27 28 34 37 41 42 30 15 21 29 35 41 47 54 57 59 61 59 58 52 44 39 36 26 22 19 17 18 23 25 26 27 28 30 33 34 34 34 36 42 43 42 43 44
83 71 57 33 35 40 37 35 32 31 24 28 30 37 39 39 25 11 19 28 34 34 45 53 56 57 60 64 64 60 51 41 39 36 31 24 20 17 19 20 25 27 26 26 27 29 30 31 32 36 39 38 39 39
65 60 42 33 32 34 31 30 31 26 27 27 30 37 39 31 20 11 20 26 32 42 45 50 53 57 61 65 69 67 59 44 39 37 32 27 24 23 22 23 25 27 29 30 30 30 29 27 27 30 34 35 35 37
49 38 29 29 29 28 24 26 26 26 22 27 32 36 39 27 21 18 18 25 36 41 46 53 54 59 63 69 72 73 66 50 38 37 35 32 27 23 23 22 23 25 28 30 32 32 31 31 29 28 27 31 33 34
30 26 22 23 24 22 24 24 21 21 20 27 31 36 39 27 20 21 17 30 34 38 45 50 57 59 63 69 72 74 69 53 43 39 37 35 33 31 29 27 25 25 25 25 26 29 29 30 31 32 29 29 33 32
28 22 22 21 19 21 23 24 18 19 22 26 32 37 35 26 19 15 21 27 41 45 48 49 53 60 66 70 75 76 71 56 53 45 41 37 34 32 30 29 29 28 27 26 27 28 27 26 28 30 28 28 31 31
23 20 19 18 20 25 27 24 20 21 24 30 33 39 35 25 16 15 21 31 39 46 47 50 50 59 65 72 76 76 69 56 55 50 44 38 33 31 30 28 27 29 30 31 29 29 30 27 24 25 26 27 30 32
21 20 21 21 27 31 22 20 18 23 26 32 36 39 29 21 19 22 27 37 37 38 45 51 54 61 67 74 78 77 70 61 59 52 45 39 34 31 29 28 27 28 29 31 33 35 34 31 24 21 24 27 27 31
21 22 26 31 34 24 17 16 18 24 29 34 37 35 24 20 23 27 30 38 35 34 40 50 57 62 71 76 82 78 67 63 59 52 44 39 34 31 29 28 27 27 29 31 32 34 34 30 25 23 22 25 25 29
26 28 33 28 20 14 15 16 20 27 32 35 37 28 23 21 24 30 33 34 31 33 40 47 54 64 74 79 82 73 63 62 57 48 44 40 35 32 30 30 28 26 26 28 28 28 29 27 24 20 21 23 24 27
29 28 21 17 14 12 13 16 24 28 32 35 27 22 16 13 15 19 27 32 27 33 36 46 56 64 70 78 77 69 61 60 55 47 43 41 38 36 33 32 30 28 25 23 24 22 23 23 24 18 15 22 24 25
20 18 15 11 11 12 14 22 24 30 34 29 23 20 17 18 20 27 26 20 27 35 42 48 54 57 66 77 72 67 61 57 53 46 43 41 37 34 31 31 30 29 28 26 24 21 20 16 17 19 12 20 22 24
18 13 11 9 10 14 18 21 27 33 31 24 23 18 18 20 21 16 25 29 34 42 42 46 54 60 69 75 68 64 59 56 52 46 42 38 37 35 34 34 32 31 27 22 22 19 19 18 13 12 10 15 20 21
14 12 10 11 14 17 21 26 31 30 21 22 20 17 18 23 13 21 30 34 37 42 43 44 51 62 72 69 68 64 56 55 52 47 43 41 39 37 35 32 27 26 29 27 21 16 15 16 15 11 8 9 17 19
15 11 10 14 16 19 25 31 31 22 22 19 15 14 17 14 17 23 30 35 39 43 50 50 54 65 70 65 64 58 54 54 51 46 42 41 39 36 34 32 29 25 22 24 22 20 16 12 9 7 6 10 15 15
15 10 13 15 20 26 29 31 23 20 15 11 9 11 17 20 24 29 34 36 39 44 48 50 56 67 63 61 62 55 54 52 48 44 42 39 38 37 33 30 29 27 22 19 19 14 13 12 7 3 5 10 14 15
15 14 18 20 25 28 28 22 21 15 9 9 10 11 14 21 27 31 35 33 37 42 48 54 61 61 56 59 60 54 52 51 47 43 40 37 35 34 32 31 30 29 26 22 20 20 15 12 9 5 1 6 11 11
12 13 17 22 25 23 18 18 11 4 8 7 9 13 16 26 29 31 30 35 39 46 51 55 57 52 51 55 58 52 51 50 45 40 38 36 34 34 34 34 33 30 28 24 20 17 16 15 11 8 4 2 6 9
11 15 19 20 16 14 14 10 5 4 10 13 14 19 25 32 30 29 33 39 45 48 52 55 48 48 48 52 55 50 49 47 42 39 39 38 36 34 33 33 32 29 27 24 20 17 15 13 11 9 6 2 2 5
13 16 17 14 9 8 8 6 5 9 12 16 19 22 26 30 30 36 38 40 45 49 53 47 46 46 47 47 51 52 49 48 44 42 40 37 35 34 33 32 30 28 27 25 23 21 19 16 13 11 8 5 1 2
16 16 13 8 5 5 7 9 10 13 17 21 24 25 29 32 35 33 35 40 45 49 46 44 43 45 47 46 49 53 50 49 46 43 41 39 37 35 33 30 29 28 28 27 26 24 21 18 15 12 10 7 4 3
16 14 9 4 4 7 8 9 9 10 13 17 22 27 29 29 27 30 34 39 43 43 41 41 43 46 46 46 47 49 51 49 47 42 40 38 36 34 33 31 30 28 27 27 26 24 22 20 18 15 13 11 8 6
14 7 6 4 5 6 9 11 10 12 16 19 22 24 25 27 29 31 34 37 41 42 39 38 42 43 43 43 45 44 49 47 44 42 38 36 34 33 32 31 30 29 29 28 28 27 25 22 21 19 17 14 11 9
6 5 4 5 7 8 8 8 11 14 17 21 24 26 27 29 30 32 37 40 40 39 35 37 40 40 40 39 39 39 41 44 40 40 39 34 33 32 31 30 29 28 28 28 28 27 26 24 23 22 21 18 15 13
7 9 8 8 10 8 9 10 14 16 22 26 27 26 27 29 33 35 35 36 36 32 32 34 37 40 39 37 35 35 34 38 39 37 36 36 33 31 30 30 28 27 27 27 26 25 25 24 23 22 21 20 19 17

GFSWCAN_250_spd_069.txt.gz
Wind_Speed
87 88 85 84 81 84 83 82 86 86 72 64 59 53 52 54 59 61 57 46 43 42 39 32 23 19 19 15 13 13 9 8 9 15 25 33 39 46 53 58 62 65 67 72 75 78 81 83 86 89 94 101 109 115
88 88 85 79 78 84 81 85 89 71 68 58 52 48 46 52 55 57 55 44 41 39 37 33 28 22 21 17 9 12 12 13 12 14 18 25 32 38 43 49 55 60 63 66 69 73 78 82 84 85 85 89 94 100
84 86 85 77 79 83 82 85 85 72 60 54 47 45 42 47 52 55 50 43 39 37 35 32 31 28 24 20 17 16 12 9 15 19 24 24 29 34 37 40 42 49 56 61 63 68 72 75 79 81 84 88 92 95
93 91 89 82 75 81 89 83 73 63 50 46 43 42 39 43 47 50 45 39 35 30 30 37 38 36 33 29 26 24 24 22 19 16 25 32 30 30 34 40 44 46 46 48 56 62 67 71 74 78 80 83 86 90
90 90 92 79 76 90 90 79 63 53 42 40 40 38 37 43 44 47 40 27 23 25 32 38 43 43 44 44 41 34 30 29 27 25 22 27 32 35 33 36 38 42 44 47 52 53 57 63 67 72 74 76 77 80
94 93 78 83 90 92 80 72 55 36 36 34 35 32 33 40 42 42 36 20 21 23 29 36 44 45 48 50 49 45 37 29 27 27 22 21 25 31 35 38 33 37 39 41 45 48 52 56 57 61 65 68 71 73
94 89 96 91 95 88 73 49 35 29 30 31 30 28 32 37 39 42 38 25 22 29 26 36 43 45 50 52 55 54 46 32 27 27 22 18 18 21 26 33 37 39 37 42 44 43 45 48 51 57 59 59 62 67
94 94 95 94 74 63 47 34 26 27 26 26 27 28 33 34 37 39 29 16 23 24 31 37 43 46 49 55 57 60 57 40 31 30 27 21 15 15 23 25 32 48 48 48 47 45 42 44 46 48 54 57 59 60
94 98 72 61 52 45 34 26 24 25 23 24 26 28 33 34 35 35 19 23 24 22 30 39 44 50 51 58 59 62 61 48 36 34 31 28 24 21 20 21 24 27 29 35 37 36 39 40 41 42 44 48 51 52
82 60 51 48 46 36 23 18 20 22 22 23 25 25 32 33 38 32 28 31 26 26 33 35 42 45 52 55 58 60 60 57 41 41 35 31 29 25 24 23 24 26 30 33 33 34 33 33 34 35 39 44 50 52
52 44 44 40 31 19 14 15 18 17 21 25 24 21 31 34 38 35 26 20 26 30 34 34 37 43 50 55 59 63 63 61 48 42 41 37 35 31 29 27 26 27 27 27 29 29 30 31 31 32 36 40 45 47
41 40 38 30 21 12 13 14 15 18 21 19 18 20 28 30 36 32 21 18 25 31 32 34 39 45 48 56 63 67 68 66 55 51 44 39 36 34 32 30 28 27 27 29 29 30 31 31 32 33 31 34 41 42
36 36 31 25 17 15 13 11 15 19 18 17 17 21 29 33 33 29 20 18 25 32 36 37 42 46 52 58 64 67 71 70 63 55 49 42 36 34 35 32 30 27 26 26 26 27 27 29 32 35 34 35 36 35
33 29 26 19 16 11 10 13 19 21 21 18 18 24 29 33 32 22 22 27 30 34 40 41 44 45 50 56 64 67 72 70 63 57 52 44 38 33 31 30 28 29 29 27 26 26 26 26 28 32 31 32 34 31
25 23 21 15 13 11 15 19 23 18 14 15 21 27 31 34 31 24 20 29 31 38 44 44 46 48 51 56 64 68 74 71 64 57 52 43 38 34 31 29 28 27 26 27 27 27 26 26 23 25 28 30 33 32
24 22 18 13 12 17 21 24 17 11 12 17 25 29 33 34 29 18 16 26 34 40 44 43 42 41 48 57 66 73 75 71 63 56 53 45 38 34 33 31 29 28 28 28 27 28 29 29 26 24 22 26 30 34
18 16 14 16 18 21 23 16 7 12 15 19 26 31 34 29 24 18 15 22 29 35 34 34 40 43 49 58 67 71 71 70 60 56 53 46 41 37 34 32 30 29 28 28 29 29 27 26 25 22 18 23 26 31
18 16 19 21 22 17 12 7 7 12 17 24 28 32 29 23 18 18 14 19 24 22 31 39 48 54 56 64 68 71 67 68 56 56 52 44 41 38 35 34 33 32 30 29 28 27 28 25 23 24 20 20 25 24
20 19 21 17 11 7 6 6 9 16 22 25 29 28 22 15 13 14 17 18 19 29 34 42 51 57 61 62 65 66 66 63 55 54 49 45 41 39 36 34 33 32 28 26 25 25 24 22 18 18 19 19 23 21
20 17 15 10 6 5 5 7 13 20 22 26 28 21 19 9 10 8 10 21 29 35 40 46 50 54 57 59 65 62 65 58 53 52 47 43 40 38 37 35 32 30 29 27 25 22 20 18 16 14 14 15 19 20
18 15 10 8 6 5 9 12 16 20 24 28 22 22 17 10 14 11 17 25 33 38 43 47 45 49 52 61 58 58 61 53 53 49 45 42 39 37 36 34 33 33 31 25 23 22 16 15 13 11 12 13 17 18
13 11 11 10 7 9 12 13 19 24 27 22 22 18 12 9 13 18 25 29 32 40 41 40 45 50 56 56 54 57 58 52 51 47 44 41 38 35 35 35 33 31 28 23 19 19 15 11 10 10 11 13 15 14
11 12 13 9 7 10 13 19 24 27 22 20 15 10 8 10 16 22 25 30 38 37 38 41 47 53 53 51 52 56 57 53 51 46 43 40 38 37 36 34 31 29 27 23 19 16 16 14 11 9 8 10 11 10
12 14 12 6 8 13 20 22 25 20 15 10 6 5 8 12 19 24 27 28 29 34 38 45 50 49 48 50 51 53 55 51 47 43 42 39 37 36 36 34 32 29 27 25 21 18 15 12 11 10 8 7 5 6
13 16 10 9 11 16 21 22 17 10 4 3 5 9 12 15 20 22 22 29 34 36 41 49 50 46 47 50 50 51 53 50 47 43 40 38 36 35 34 32 31 30 29 26 22 19 15 13 12 10 8 6 3 1
11 10 10 10 14 18 19 13 7 4 2 6 7 10 13 19 22 26 30 36 35 36 42 48 46 44 47 47 49 49 53 50 47 42 39 38 37 35 34 34 34 34 32 29 24 19 17 15 12 10 9 6 4 2
7 4 7 12 15 14 9 4 2 3 5 8 11 15 17 19 24 29 34 34 33 36 41 42 41 42 45 46 47 47 49 46 47 42 41 40 39 38 37 36 37 36 33 30 27 24 21 19 16 13 10 6 4 3
3 7 10 13 11 6 3 1 2 4 7 10 14 16 19 24 28 29 29 30 33 37 41 41 39 40 43 42 43 42 44 46 44 44 42 40 39 39 39 38 37 35 33 30 28 27 24 21 18 16 13 10 7 4
8 10 12 8 3 2 2 3 5 8 10 12 14 17 22 23 25 26 27 29 33 38 39 38 35 37 39 39 38 39 40 44 43 44 44 41 39 38 38 37 36 35 33 32 30 28 25 22 18 15 13 11 10 8
11 14 12 4 6 5 6 8 11 9 8 11 16 19 21 23 24 26 29 32 34 34 34 31 33 37 40 39 36 36 36 40 43 42 43 42 38 37 36 35 34 33 32 31 30 28 25 24 21 18 15 13 11 9
16 14 6 4 6 7 10 12 8 7 9 14 20 23 25 24 28 32 33 34 33 32 30 29 33 36 40 40 39 36 35 36 41 42 42 41 38 35 34 34 33 32 31 30 29 28 27 26 23 21 20 17 14 12
7 4 3 3 6 8 10 9 10 13 16 20 22 25 22 25 31 37 38 36 34 30 29 28 31 35 38 39 41 40 36 34 36 40 40 38 37 35 34 32 31 30 29 29 27 26 26 25 24 24 22 21 18 16
2 5 6 7 8 9 11 14 15 18 21 25 26 23 25 28 34 37 36 36 35 34 32 28 29 31 33 37 40 41 39 35 33 35 37 36 35 34 33 31 29 29 28 28 28 27 26 25 25 24 22 20 19 16

GFSWCAN_250_spd_072.txt.gz
Wind_Speed
79 86 88 89 84 89 91 91 91 81 80 76 59 47 42 44 44 49 52 58 51 42 39 33 26 23 18 15 13 12 10 7 10 18 26 31 37 42 48 54 60 66 70 73 73 74 74 76 81 91 99 107 111 116
85 83 84 87 86 88 88 89 83 84 75 67 46 38 37 40 40 46 49 54 47 42 36 34 29 28 26 22 17 13 12 11 12 13 17 24 32 38 43 48 54 60 65 70 74 76 76 76 77 80 85 96 107 113
87 88 92 91 89 86 85 90 89 79 69 52 35 32 33 35 36 44 49 52 42 38 33 32 27 32 33 32 27 24 18 16 15 19 18 22 25 31 35 42 48 54 58 63 66 69 73 77 80 82 85 87 92 101
89 91 99 92 93 89 90 90 70 68 60 36 27 27 30 31 33 41 43 47 34 34 32 24 28 32 35 37 38 38 32 23 17 16 18 22 28 30 33 36 42 46 50 53 58 61 64 68 72 79 85 89 91 94
92 98 100 94 92 92 89 81 61 56 36 23 23 24 26 29 32 39 40 43 34 27 32 21 27 33 36 40 42 41 41 35 26 19 20 23 23 28 29 33 39 38 43 48 51 51 53 58 65 69 73 79 85 90
99 99 99 93 89 88 74 55 47 37 22 19 21 22 23 26 32 39 38 36 29 22 20 24 26 34 40 40 42 41 43 45 29 22 22 22 23 22 26 29 24 30 39 43 48 49 53 55 56 58 60 65 71 76
103 103 104 97 90 67 51 42 36 23 17 17 19 20 20 26 31 37 36 30 21 25 28 23 25 33 40 43 42 43 41 39 35 30 31 28 23 21 21 26 25 27 31 40 39 43 48 50 52 54 57 59 62 66
97 101 86 84 64 49 38 36 25 16 15 16 17 18 18 26 29 34 35 19 23 30 21 26 26 32 36 39 42 44 42 39 37 38 39 35 31 26 22 22 25 28 31 37 39 44 43 44 47 48 49 50 56 62
98 83 76 64 49 37 35 26 17 15 15 15 15 17 17 24 27 31 34 27 23 17 21 25 30 36 38 40 42 46 46 45 45 48 49 39 35 31 29 25 23 26 30 35 37 41 48 53 57 53 50 51 53 54
67 60 52 45 34 33 25 17 11 13 13 13 15 19 19 21 24 30 32 27 18 26 26 27 29 38 46 46 48 50 53 54 50 53 56 47 40 36 32 30 27 25 26 29 34 38 41 45 48 50 50 50 53 54
49 44 41 32 29 25 20 14 14 14 11 12 15 16 18 21 24 31 31 27 19 27 25 25 35 43 45 50 54 49 53 55 52 58 60 52 43 36 28 26 28 27 28 29 30 32 38 40 40 43 46 47 48 51
42 37 30 26 25 20 18 16 14 11 10 13 16 15 17 19 26 31 31 26 23 29 27 34 39 43 50 50 50 46 52 56 55 59 59 50 42 37 30 27 27 25 24 26 28 30 33 37 39 40 40 41 44 49
30 28 27 24 17 15 17 15 9 9 12 15 16 17 19 20 27 33 36 33 24 26 32 36 39 45 51 43 46 47 53 60 59 62 65 51 42 35 31 28 25 23 23 23 25 28 30 31 33 36 39 39 40 41
27 26 24 17 13 15 14 11 12 14 17 16 12 15 18 23 30 36 37 32 28 29 35 36 41 45 41 43 47 52 56 63 63 64 65 50 43 37 31 29 28 25 24 23 24 27 28 29 31 34 37 39 40 39
28 24 19 16 13 15 14 13 15 17 16 11 11 15 21 27 32 37 32 27 21 21 24 33 38 35 41 47 54 55 59 66 63 64 64 52 46 40 36 32 30 28 27 26 26 26 27 28 29 31 32 33 36 37
28 21 16 12 13 12 14 16 19 19 13 12 14 16 22 29 34 30 24 20 13 12 22 30 30 39 46 49 52 55 63 67 63 65 62 52 48 42 39 35 34 31 29 28 28 28 28 29 28 27 28 29 31 34
24 17 14 13 15 17 17 20 19 14 11 8 13 19 26 29 27 16 8 8 11 13 15 22 34 40 46 47 49 57 66 64 63 66 59 55 48 43 39 36 34 31 28 27 27 26 25 25 25 25 26 26 29 31
20 17 15 16 17 18 18 14 11 8 6 11 18 24 26 28 17 10 11 5 8 16 24 28 39 43 47 54 59 63 64 61 61 64 58 53 46 42 38 36 34 31 29 27 27 26 25 23 22 20 22 26 26 27
18 17 16 17 14 11 12 12 9 6 11 16 22 24 28 18 10 10 9 10 13 23 27 34 41 41 44 48 52 55 56 57 59 61 56 48 43 40 36 33 32 30 28 26 24 23 23 17 19 18 20 21 23 24
17 16 16 14 11 10 11 8 7 9 15 20 23 27 19 16 9 9 13 15 21 27 31 38 37 38 39 44 45 47 53 54 58 54 49 44 40 36 34 33 32 29 26 25 22 19 21 17 16 16 18 20 20 18
16 14 13 11 11 12 10 7 9 13 17 22 26 21 19 14 10 10 11 20 25 29 33 34 36 41 43 43 46 50 51 52 55 49 45 41 38 35 34 33 31 29 27 26 23 19 19 16 14 15 15 16 16 16
15 14 13 11 14 11 6 8 12 16 20 24 20 17 12 9 9 10 16 20 23 25 31 33 38 43 46 44 48 50 49 50 51 47 43 40 37 35 34 32 30 29 26 23 20 16 14 15 13 12 13 12 12 11
13 13 12 15 14 9 8 11 14 18 23 20 15 8 4 5 8 12 16 18 23 31 34 34 39 44 45 44 47 49 48 49 50 47 43 39 36 35 34 33 31 27 25 22 19 18 16 14 14 12 10 9 7 6
12 13 15 16 10 8 11 14 17 20 17 11 3 3 4 6 10 14 17 22 28 33 33 37 41 45 45 44 47 48 46 47 49 48 43 40 37 36 35 33 31 28 26 24 22 19 18 15 12 10 9 7 4 2
15 17 18 11 8 11 12 16 18 15 9 3 2 5 9 13 17 19 24 28 31 31 34 38 43 44 41 43 45 44 42 45 47 46 42 39 38 37 36 33 31 31 29 28 24 19 17 16 15 12 9 5 2 0
15 18 15 11 11 12 15 15 12 9 4 3 5 8 12 15 18 23 26 26 28 31 34 39 42 37 39 42 42 40 40 42 46 44 42 38 37 36 36 34 32 33 31 30 28 24 20 16 15 14 10 8 5 3
14 13 11 8 9 13 11 9 7 5 6 8 9 13 15 18 21 23 26 28 30 33 36 38 35 33 37 41 40 39 38 39 44 42 42 38 36 36 35 35 34 34 33 31 30 28 24 22 19 17 15 12 9 6
7 3 5 8 11 9 5 4 4 6 7 10 11 12 15 19 22 24 27 30 33 33 33 31 27 31 34 38 40 39 38 37 41 42 40 39 36 36 35 34 34 34 35 34 32 30 28 25 23 20 18 16 12 10
1 4 7 12 8 5 3 2 4 6 7 9 8 11 17 21 22 21 25 32 35 33 31 27 26 30 33 36 39 41 40 38 37 41 40 40 38 37 35 33 34 34 34 34 33 31 30 28 26 23 20 18 16 14
4 7 11 9 6 5 3 5 9 10 7 7 11 17 21 23 21 26 31 37 36 35 34 30 28 28 31 33 38 40 41 40 38 37 40 39 39 37 35 33 33 32 32 32 32 31 30 29 28 26 22 19 17 15
9 12 7 3 5 5 5 8 9 9 10 12 16 20 25 26 26 29 34 37 36 36 34 33 30 29 30 33 34 36 39 40 39 37 35 37 37 37 36 33 30 29 30 31 30 29 29 29 29 28 27 25 22 18
9 4 3 3 3 5 6 6 9 13 16 20 22 24 25 26 28 32 34 35 36 35 35 32 30 31 32 32 33 33 35 37 39 38 35 33 35 34 35 33 31 30 29 29 29 29 29 29 28 27 26 25 23 21
4 5 6 5 5 7 9 11 14 17 19 20 20 22 24 26 28 30 30 31 33 34 31 31 30 30 32 32 33 34 35 36 37 36 35 32 30 32 30 30 30 29 28 28 28 29 29 29 29 28 27 25 24 22

GFSWCAN_250_spd_075.txt.gz
Wind_Speed
84 82 83 87 80 84 86 90 97 93 80 65 60 51 41 30 30 36 38 45 47 37 41 44 32 30 27 27 25 20 16 11 11 15 20 24 29 35 40 44 50 57 62 67 70 73 74 72 83 86 87 91 95 102
85 85 87 80 84 91 94 95 96 86 73 64 52 37 28 25 27 33 35 42 43 35 37 35 26 29 30 30 27 28 23 17 15 14 16 20 26 30 36 42 48 53 58 65 72 73 73 76 80 80 83 87 93 97
87 90 86 86 88 93 92 96 95 79 71 47 36 29 21 21 24 29 35 38 39 33 32 31 33 26 28 29 32 33 32 27 19 13 13 17 22 27 33 38 43 49 55 60 64 69 75 75 78 79 81 81 83 89
86 86 88 91 93 91 93 100 75 63 48 35 28 21 19 19 19 26 33 37 35 29 30 25 29 26 28 31 33 32 30 26 23 18 16 17 20 24 28 33 39 43 49 55 60 65 69 74 77 79 81 82 81 83
85 87 92 91 95 87 96 75 59 45 32 27 22 18 17 16 17 25 31 34 31 25 26 29 22 24 31 32 34 35 32 27 22 20 20 24 24 24 24 25 28 34 43 48 54 59 64 67 73 77 80 82 83 85
100 96 91 94 103 91 66 54 43 31 25 22 20 17 17 15 14 24 32 33 28 21 27 23 21 23 31 35 36 41 38 32 32 30 26 26 30 26 25 25 25 28 33 44 50 49 55 60 67 71 75 78 81 86
102 97 97 101 85 57 48 42 31 26 22 20 19 15 17 15 14 23 32 30 25 23 23 19 21 30 34 36 40 45 47 43 40 39 37 34 36 34 29 29 28 26 27 33 43 48 51 54 57 60 64 70 76 80
101 93 102 91 57 47 41 32 28 23 19 17 17 17 15 13 13 23 30 28 26 23 22 20 26 27 34 39 44 47 50 44 45 45 41 41 42 42 35 32 28 28 29 30 35 41 48 53 54 57 60 63 67 70
99 96 69 57 42 39 32 28 24 21 17 15 15 15 15 14 14 21 26 29 25 26 26 31 33 32 36 39 46 48 48 48 48 51 45 44 44 51 39 36 31 28 27 30 31 34 39 45 48 53 55 59 61 64
88 61 51 40 36 31 25 24 20 15 14 14 15 14 15 13 16 21 24 29 31 26 27 32 35 30 36 43 46 50 46 50 50 51 51 47 49 51 38 35 30 28 27 26 31 33 36 40 44 49 50 55 57 58
64 50 38 34 28 23 21 18 15 15 17 18 14 14 15 14 16 20 23 28 32 31 28 33 36 35 38 38 44 42 48 50 53 53 51 48 52 53 42 37 30 26 26 27 29 32 36 39 40 43 47 51 55 59
48 35 31 26 24 21 18 15 13 15 17 16 15 16 15 17 19 21 25 30 31 32 30 30 37 36 37 39 42 43 50 51 53 54 51 55 56 54 45 39 32 27 25 27 28 30 33 36 39 42 46 48 51 53
34 29 25 25 21 18 16 13 14 16 16 15 15 18 19 18 20 23 27 30 35 35 29 29 30 27 28 37 42 47 48 49 53 54 55 59 57 55 49 40 32 28 28 27 28 30 33 34 36 39 43 46 50 52
29 25 24 24 19 16 16 15 15 16 18 19 20 17 16 17 19 23 28 35 38 30 26 18 16 27 32 39 45 47 48 50 52 57 60 63 62 58 50 40 33 31 29 28 29 30 31 33 36 38 40 43 45 47
25 25 24 22 18 17 17 16 16 17 19 21 20 16 15 17 21 26 31 36 28 22 17 12 17 24 29 37 43 49 51 56 60 61 61 64 65 62 50 40 34 31 30 30 31 30 31 32 34 35 36 40 41 42
31 29 26 19 16 16 17 17 18 21 24 25 22 17 16 18 25 29 34 27 22 16 11 14 20 25 32 38 44 48 54 54 58 60 62 62 64 56 46 41 37 34 32 31 31 32 33 33 33 34 33 34 37 39
32 30 24 17 15 16 18 19 21 23 23 17 12 12 17 23 28 31 25 20 17 9 12 20 27 31 38 37 41 44 51 51 54 58 60 61 57 49 44 40 36 33 33 33 32 31 31 32 32 33 33 32 33 35
30 25 19 17 17 18 22 21 20 15 10 10 9 14 20 26 30 24 20 16 13 15 17 23 30 36 35 39 43 47 46 48 52 55 55 57 53 49 43 40 37 35 34 33 32 32 32 29 28 27 27 30 32 33
22 19 17 18 18 18 18 14 13 10 10 9 14 18 25 29 23 20 18 17 19 22 24 29 31 33 36 41 45 48 49 49 51 50 54 53 48 45 41 38 36 34 33 32 31 30 30 26 23 23 26 28 28 28
17 16 15 16 16 15 13 11 9 11 10 13 17 22 28 26 21 18 16 15 15 19 23 26 30 34 37 42 47 51 49 49 46 49 51 48 44 42 38 36 34 31 30 30 29 27 24 23 19 19 21 22 21 21
14 13 14 14 14 15 13 11 11 11 12 15 20 26 25 19 14 10 10 15 18 23 24 30 35 35 38 44 49 49 48 48 46 48 46 43 40 37 36 34 33 32 31 30 29 26 21 20 17 16 16 16 18 17
14 14 15 13 14 14 14 12 10 10 14 18 24 23 15 8 6 5 14 20 21 23 29 33 34 38 42 48 47 45 47 43 43 46 44 41 40 38 35 33 33 32 29 29 27 23 19 14 14 13 13 13 14 14
14 13 14 14 16 17 14 10 10 13 18 22 20 13 6 4 12 14 16 21 24 29 32 33 36 39 44 43 42 44 43 39 41 44 42 41 39 37 34 33 34 33 29 26 25 22 19 17 15 12 11 10 11 11
12 12 15 17 19 17 13 10 12 17 20 19 10 5 4 8 12 18 22 25 28 30 32 35 38 40 40 37 40 41 39 37 38 42 42 42 39 37 35 33 33 32 30 28 24 21 19 18 16 14 11 8 7 7
13 16 16 17 16 12 10 13 15 18 16 9 5 6 7 11 16 19 23 26 29 31 35 38 38 35 30 33 37 41 40 36 37 41 42 42 39 37 34 33 32 31 31 30 28 24 22 20 17 14 12 9 6 5
17 18 18 17 12 11 13 16 17 14 9 6 5 7 10 18 20 20 23 25 27 32 35 35 34 28 28 32 35 39 40 39 38 39 42 42 41 38 35 33 32 31 29 28 28 25 23 21 19 16 13 11 8 6
16 16 16 15 13 14 15 14 10 7 4 8 9 11 13 14 16 20 21 23 31 37 36 36 34 31 29 31 34 37 41 42 42 39 40 42 41 39 35 33 31 29 28 28 28 27 25 23 20 17 14 11 9 9
13 13 13 12 11 12 10 7 5 5 7 9 10 10 10 16 18 23 22 26 33 38 36 37 37 35 32 32 33 36 37 39 41 41 38 40 40 40 35 33 32 30 28 28 28 27 26 25 22 20 18 16 13 10
9 5 6 8 9 6 5 3 3 5 7 7 7 9 15 20 25 26 26 30 35 39 40 40 40 38 35 32 33 34 35 36 38 39 39 38 40 39 37 34 32 31 30 28 27 27 27 26 24 22 20 17 15 13
5 7 8 10 7 6 7 5 4 6 6 7 8 14 18 22 24 26 28 32 37 38 38 39 40 37 36 33 33 34 35 37 38 38 38 37 35 36 35 34 33 32 31 30 30 29 28 26 26 26 24 21 19 16
10 11 12 7 5 6 6 4 7 6 8 10 14 18 21 23 24 26 28 29 30 32 36 39 40 38 36 32 32 34 37 38 37 37 35 34 33 31 32 31 31 31 31 31 30 30 30 30 28 27 24 22 20 19
14 13 7 6 6 5 5 5 4 7 12 16 18 19 21 22 24 26 28 29 29 31 33 34 35 35 34 33 34 35 37 38 35 33 32 30 30 29 28 30 29 29 29 28 29 29 29 29 29 29 27 25 23 20
5 6 9 8 7 7 8 9 10 13 14 15 17 19 22 26 29 29 32 34 34 36 39 40 39 37 36 35 36 36 36 37 34 31 29 27 26 26 26 25 27 26 26 26 26 27 27 29 29 29 28 27 27 25

GFSWCAN_250_spd_078.txt.gz
Wind_Speed
75 78 81 85 85 92 90 92 87 89 83 76 57 43 32 29 23 23 23 32 39 42 40 31 38 34 35 39 38 37 32 20 6 7 7 12 22 30 33 39 45 50 54 60 67 74 82 79 85 95 98 102 107 107
80 82 85 90 90 90 90 88 91 91 83 52 43 31 28 22 19 20 20 31 35 37 37 29 33 30 34 39 43 45 40 39 29 9 3 6 11 16 25 36 42 47 52 57 63 68 71 70 79 87 90 91 94 96
76 81 84 93 86 92 94 95 97 82 56 40 34 27 25 17 15 16 18 30 33 33 34 27 27 25 30 32 37 41 41 33 30 28 20 13 12 15 22 26 33 43 48 56 61 65 68 71 77 86 87 85 85 84
85 85 88 88 89 89 89 87 83 54 42 35 28 26 21 16 15 15 16 26 31 29 31 25 21 20 26 30 34 39 41 36 33 32 25 22 21 21 22 24 29 34 41 51 56 61 66 71 74 80 84 85 90 90
84 84 88 90 90 89 90 87 70 43 36 28 27 23 17 16 16 16 14 24 32 29 30 26 18 17 22 30 36 40 42 40 34 35 35 32 29 26 24 24 26 28 35 42 50 58 62 68 73 79 83 85 86 89
86 84 91 92 95 98 92 82 49 37 29 27 24 20 18 16 16 17 13 20 28 29 31 30 19 20 28 35 39 38 42 40 40 39 38 38 36 35 32 31 25 29 31 34 43 51 57 63 67 74 83 87 88 89
97 97 95 99 95 95 84 55 38 31 26 23 21 23 16 16 15 15 13 18 30 30 30 27 24 25 33 32 32 35 40 38 42 45 46 45 44 40 37 36 31 26 29 33 34 41 47 57 63 71 74 79 84 88
101 96 100 94 90 74 66 41 32 25 22 21 21 17 16 16 15 16 18 14 26 31 32 27 28 29 33 33 35 38 34 37 42 48 50 48 49 45 38 38 35 33 28 26 30 32 40 47 53 62 67 73 77 82
103 100 101 100 76 67 44 33 26 21 21 19 14 15 14 14 17 18 20 14 22 29 32 29 29 34 35 38 37 36 36 37 45 51 52 50 51 48 40 37 37 35 32 28 25 29 33 39 45 50 57 62 70 77
103 86 80 73 70 43 32 26 22 20 20 15 14 14 15 15 17 18 18 16 20 28 31 31 31 33 36 39 36 38 35 41 49 55 56 55 50 47 43 41 42 36 33 28 28 27 29 33 40 46 52 55 60 68
96 72 83 60 43 32 26 24 23 20 18 14 14 16 16 16 18 20 19 18 22 28 33 34 36 31 32 32 31 33 37 49 54 55 54 55 44 46 52 51 51 42 36 31 28 29 30 32 35 39 43 48 53 56
84 68 45 35 31 27 24 23 21 18 15 13 15 16 16 18 22 24 19 21 25 31 32 37 32 28 21 18 24 33 42 45 49 48 54 57 58 59 58 53 50 41 33 30 29 30 31 32 34 36 40 45 48 52
63 38 31 31 26 23 23 21 18 16 15 15 16 17 18 22 26 18 18 22 28 31 35 35 22 15 19 23 28 35 43 44 51 57 60 61 60 63 63 60 54 42 35 31 32 31 31 32 34 36 38 42 44 47
34 30 29 24 22 22 22 18 16 16 16 16 18 20 23 23 18 16 19 25 28 33 35 28 12 13 19 27 31 38 41 41 52 58 60 60 64 67 69 63 55 44 36 32 32 33 31 32 33 37 39 40 43 46
28 28 27 27 26 24 21 18 17 17 17 18 21 23 24 24 20 18 22 29 32 36 19 20 22 17 23 27 33 39 40 44 49 55 56 59 63 62 62 62 54 44 38 32 31 32 31 31 32 34 37 40 42 45
31 32 31 31 28 24 20 17 16 16 18 21 23 24 27 19 15 21 28 32 38 24 18 16 20 20 28 34 40 40 42 49 53 55 56 58 61 59 59 54 48 43 39 35 32 31 31 30 31 31 33 35 38 42
33 35 37 32 26 20 17 15 15 17 19 22 24 23 9 9 18 24 31 36 26 21 20 16 25 27 34 39 40 42 46 51 57 56 56 57 53 56 54 49 46 44 40 36 34 31 30 29 29 28 29 32 34 35
40 38 35 27 21 18 18 16 19 21 21 16 9 5 8 16 21 29 33 27 22 16 19 24 30 34 35 38 43 44 48 53 53 54 54 51 53 52 49 46 44 42 39 37 36 33 31 27 25 26 28 28 28 30
35 31 28 22 19 18 17 18 17 16 11 8 6 8 14 19 25 28 24 19 19 23 25 22 30 32 37 42 43 45 50 50 52 54 49 48 51 48 44 43 42 41 41 38 34 33 30 26 23 22 22 23 23 23
21 19 19 17 16 16 16 15 14 11 9 8 8 13 17 23 24 18 9 8 15 23 36 36 34 38 42 41 43 47 48 49 52 48 46 49 49 50 45 42 40 38 36 34 34 33 29 26 23 20 18 19 21 20
14 14 14 14 14 14 14 15 13 11 9 8 11 16 20 21 2 9 6 7 15 24 32 35 40 43 42 43 45 45 43 47 47 42 40 45 43 40 37 36 38 38 35 34 33 31 26 22 23 21 18 18 18 18
12 13 13 12 13 13 13 13 14 11 7 9 13 19 21 9 0 4 9 15 21 26 33 37 39 42 44 44 42 37 41 45 46 43 43 45 43 42 40 38 37 36 34 35 33 30 26 22 19 17 16 15 15 15
12 12 12 12 13 14 13 16 13 7 8 12 16 17 6 6 6 14 17 21 25 31 34 34 36 38 38 36 32 36 39 43 45 44 42 44 43 41 39 38 37 36 34 33 32 27 24 22 19 16 16 15 13 11
12 12 11 12 15 16 19 16 10 9 12 16 17 9 6 3 6 15 23 25 28 30 27 35 37 36 35 34 33 35 38 40 43 44 43 42 42 41 39 37 36 34 34 34 33 29 23 21 20 17 15 14 13 11
12 11 12 15 17 19 17 13 11 11 14 16 11 11 7 6 14 19 22 24 24 24 29 37 35 36 36 36 34 34 36 38 38 42 43 41 41 41 39 37 36 35 35 33 31 30 26 21 20 18 16 15 12 11
12 14 15 15 17 17 12 10 12 15 16 13 12 10 10 14 17 19 20 22 25 26 30 35 36 36 35 35 35 34 34 35 37 40 42 42 41 41 41 40 37 37 36 33 31 29 29 25 20 18 17 14 12 11
16 16 17 18 15 12 12 13 15 15 11 9 10 11 14 15 16 17 20 24 27 29 33 38 37 39 39 38 38 36 36 36 38 40 41 41 40 39 38 39 38 36 35 34 31 29 27 25 24 20 18 16 13 11
14 15 15 13 13 13 14 14 11 8 7 6 10 16 15 13 14 20 24 27 27 29 32 35 37 38 39 39 39 39 38 39 40 41 39 39 38 37 37 36 36 36 35 34 33 30 28 26 24 23 20 18 17 15
13 12 11 10 11 12 12 9 7 5 4 8 12 16 13 13 18 24 25 26 27 29 29 32 35 38 38 38 37 38 39 38 40 41 39 36 36 35 34 34 34 34 33 33 33 32 30 28 25 23 21 20 18 16
9 6 5 6 10 9 9 9 7 5 5 6 8 11 14 18 21 21 23 25 28 30 34 36 36 38 39 42 40 38 39 38 38 39 39 35 33 32 32 31 32 32 31 30 31 30 29 28 27 27 27 23 19 17
3 6 9 13 11 7 9 8 6 7 7 8 11 15 17 17 18 21 27 29 31 34 37 39 39 38 39 42 43 39 37 37 38 37 35 33 31 30 29 29 29 30 29 30 30 30 30 31 30 27 27 25 23 19
9 14 14 9 5 6 6 5 8 9 9 11 19 21 22 21 24 29 31 33 36 37 41 43 44 42 41 44 46 45 43 42 39 37 33 30 29 28 27 27 27 26 28 27 28 28 27 26 27 28 28 28 26 23
12 9 5 4 4 3 4 6 5 8 16 23 23 22 23 24 29 34 37 43 45 46 47 46 46 45 47 48 51 50 47 43 40 35 31 31 30 27 24 24 24 23 24 25 24 25 25 26 26 26 26 27 28 26

GFSWCAN_250_spd_081.txt.gz
Wind_Speed
69 77 79 81 83 81 87 90 90 92 95 91 83 53 29 22 21 20 16 16 27 32 33 32 23 28 34 40 44 43 40 39 25 8 3 12 18 22 25 30 37 45 55 66 80 90 97 101 96 96 96 100 99 100
74 79 81 84 86 88 90 91 92 94 94 83 63 39 24 18 19 12 14 13 22 29 29 31 24 22 25 31 37 37 38 34 33 28 22 14 5 13 21 27 32 37 44 54 63 73 82 90 101 106 103 102 100 103
78 83 87 89 89 86 85 91 91 95 84 79 58 32 26 23 16 14 12 12 20 26 25 28 26 23 23 28 35 31 33 31 30 27 24 21 16 14 13 14 24 33 40 48 54 61 66 73 83 91 101 109 111 107
82 84 85 84 78 88 91 95 94 91 86 72 44 29 27 18 12 12 13 11 18 24 25 26 24 26 29 29 31 29 31 28 28 31 28 25 27 25 19 16 17 20 27 39 49 55 60 64 71 78 87 93 101 107
85 87 89 87 88 89 92 93 88 86 79 66 37 28 23 16 12 14 13 13 17 17 26 27 22 25 27 28 29 29 32 27 28 30 34 36 36 33 31 26 22 20 22 30 39 46 53 60 65 72 78 83 89 97
89 90 90 92 89 96 94 93 88 76 71 45 29 22 22 14 13 16 14 13 14 14 23 31 31 23 27 29 31 29 29 27 27 27 33 40 41 40 39 37 30 29 28 26 33 42 43 52 60 64 72 79 82 87
93 96 96 95 98 97 93 88 81 75 53 32 24 23 18 14 15 16 13 14 14 15 18 29 31 29 29 30 33 32 31 26 26 31 38 45 49 49 46 40 36 31 30 29 26 35 43 48 50 59 65 74 77 80
97 99 102 93 88 88 81 74 75 58 37 25 22 20 16 14 14 14 15 16 18 19 15 26 31 30 31 33 32 35 34 26 25 34 41 46 48 50 47 38 35 32 29 28 30 30 35 43 46 52 60 67 72 75
100 96 92 97 84 78 70 71 53 40 27 23 21 15 10 11 13 15 15 17 17 19 18 20 29 32 32 34 31 31 31 28 32 38 42 43 44 45 41 41 42 39 36 33 33 32 32 36 41 48 53 56 61 70
100 104 90 87 81 73 68 49 37 31 25 24 20 14 11 11 14 14 15 17 17 20 21 20 29 29 33 33 33 27 20 24 30 37 42 44 42 47 50 51 50 47 44 38 33 33 32 31 35 41 48 52 54 59
97 95 85 76 72 65 47 35 30 26 23 22 16 14 12 13 13 14 16 18 19 20 18 24 27 29 31 28 20 22 23 30 34 43 49 52 55 59 61 59 58 54 48 42 33 32 30 29 30 35 40 45 51 53
91 83 84 67 61 40 32 27 25 24 20 16 12 13 12 12 12 15 19 18 16 16 21 24 28 27 24 22 19 31 36 36 41 47 51 53 57 60 60 56 59 53 47 35 32 29 30 28 28 31 35 40 45 47
83 70 60 57 39 29 24 22 24 21 17 13 12 12 11 11 13 17 15 12 14 17 23 22 21 18 20 24 16 24 35 42 47 50 50 55 58 63 59 61 57 54 49 42 32 29 28 30 29 31 34 37 40 44
55 56 51 35 29 25 23 25 23 19 16 14 13 14 13 14 18 18 16 14 14 20 10 26 15 19 25 24 27 31 39 47 48 52 52 55 60 58 61 59 53 51 49 43 39 33 29 29 31 33 35 37 38 40
53 45 33 28 28 28 26 26 22 19 18 16 14 15 16 18 19 20 14 14 21 23 15 18 25 30 36 35 34 41 45 45 52 52 54 59 58 59 57 52 54 51 46 42 37 33 31 29 30 34 35 36 39 40
39 32 30 28 28 28 28 24 19 16 13 13 14 16 18 17 20 10 9 17 21 22 14 12 21 28 33 35 38 43 43 49 51 53 57 55 56 53 50 53 52 48 43 38 36 33 30 29 28 30 33 36 38 39
33 30 31 31 31 31 26 19 16 13 11 12 13 15 16 10 4 12 14 20 22 12 8 13 19 23 25 35 41 43 48 48 51 55 53 55 54 48 50 51 49 43 40 36 34 32 29 29 28 29 32 34 36 38
31 33 35 36 36 30 22 18 16 12 13 15 14 7 6 4 11 14 21 24 6 7 9 14 20 26 33 41 46 48 48 49 53 49 51 55 51 49 51 50 46 42 39 35 35 36 33 31 29 28 29 30 31 32
34 36 37 33 28 23 20 18 16 15 13 9 6 7 5 11 14 20 21 4 4 11 15 24 30 33 40 46 49 49 49 49 44 46 51 52 48 46 49 48 44 42 41 39 37 37 34 29 27 23 23 23 23 24
33 29 25 20 16 16 17 16 14 13 10 7 8 7 9 13 18 16 4 4 9 15 19 26 33 36 46 48 49 48 47 38 37 43 47 53 54 50 51 48 42 38 38 40 38 36 33 24 24 23 20 18 17 19
23 19 14 11 12 14 14 13 12 13 11 10 10 9 9 15 16 3 3 4 11 18 23 29 35 42 44 48 45 45 42 38 38 42 46 47 46 43 46 45 40 39 36 35 34 32 31 24 22 22 19 18 17 16
13 10 10 12 13 12 11 12 13 16 14 11 9 9 13 14 6 5 6 8 16 21 27 32 37 38 43 47 43 41 38 36 39 40 40 42 45 45 46 43 38 39 39 36 35 34 33 29 25 21 19 17 15 14
10 11 13 14 11 11 11 14 17 16 12 8 8 11 10 7 5 6 12 14 17 24 31 35 36 36 43 41 38 35 35 36 37 40 42 44 45 44 44 44 42 40 39 38 36 35 33 30 27 25 22 18 14 12
11 13 13 13 13 14 15 17 18 13 8 7 8 1 8 4 8 5 21 29 24 27 32 34 33 37 38 38 38 38 38 39 41 43 45 45 43 43 42 42 41 40 39 38 37 35 33 30 27 25 23 20 16 12
14 14 13 13 15 17 19 21 17 11 9 10 12 12 14 8 16 20 21 20 24 27 30 31 31 33 35 39 42 41 42 42 43 43 43 44 41 40 39 39 40 39 38 38 39 36 32 29 27 24 22 21 18 16
13 13 12 14 17 19 21 19 14 11 11 13 13 14 12 14 13 14 17 18 22 28 28 27 31 33 36 41 44 43 42 42 42 43 43 43 42 40 39 39 39 37 36 37 36 35 34 32 29 25 21 20 19 17
11 13 15 16 18 18 17 12 10 11 16 15 12 12 10 8 11 15 16 18 26 26 25 29 33 39 41 43 44 44 46 46 46 44 43 41 40 39 36 36 35 36 35 35 36 35 34 33 31 28 25 22 19 18
16 17 16 17 16 14 11 10 12 14 12 10 9 9 8 11 16 16 19 22 20 22 27 30 34 37 41 42 40 41 46 48 46 44 43 41 38 38 36 35 34 34 34 34 34 34 35 34 32 30 27 23 20 17
15 16 15 12 10 9 11 12 11 10 9 7 5 7 8 10 12 15 17 18 23 28 31 32 35 41 43 41 40 42 46 48 45 46 44 42 37 34 34 33 32 32 33 32 34 34 34 35 35 32 28 26 25 23
13 10 7 4 3 7 9 8 11 11 5 5 7 9 12 14 18 20 20 23 29 30 34 36 40 43 43 44 46 47 49 51 51 50 48 44 36 31 32 31 29 28 29 31 31 32 33 33 32 33 34 32 29 25
6 3 4 7 8 5 4 9 7 2 2 6 8 11 15 23 26 27 26 28 36 33 32 40 47 50 51 51 52 53 53 52 53 53 52 44 36 32 31 29 27 25 27 27 28 29 31 32 34 33 32 29 27 25
4 9 12 6 1 4 7 6 4 5 5 7 19 16 23 29 29 30 28 34 39 37 43 49 54 54 54 55 57 56 56 54 52 54 52 44 37 31 27 24 22 20 20 21 22 23 23 24 26 27 27 29 29 28
8 7 2 6 6 6 3 5 6 8 11 16 13 14 17 24 28 29 35 38 42 42 48 55 55 54 57 58 58 58 56 50 53 52 48 41 34 28 25 24 22 19 18 18 19 20 21 20 20 21 23 26 26 26

GFSWCAN_250_spd_084.txt.gz
Wind_Speed
62 66 70 72 75 79 84 88 92 94 102 97 91 86 73 55 30 13 9 8 13 23 23 28 32 37 32 32 30 30 28 29 22 16 9 2 9 15 22 29 37 50 66 78 84 92 87 89 92 96 95 97 99 100
65 71 72 73 78 82 87 91 92 97 100 105 95 90 78 44 24 17 8 6 9 18 21 26 28 29 32 28 28 30 25 26 26 23 22 17 12 3 7 18 29 35 43 53 68 78 87 97 98 97 96 97 99 99
70 74 72 75 81 85 90 90 97 99 103 98 85 80 62 37 24 15 7 9 8 13 19 21 28 26 28 27 25 26 23 20 20 20 17 17 17 13 8 4 11 20 31 40 47 55 67 81 92 100 103 101 100 102
74 75 76 80 84 88 88 93 97 102 104 92 85 72 50 26 13 9 9 10 9 11 12 17 25 26 24 27 24 24 24 20 21 18 19 18 19 18 16 12 7 12 21 26 35 46 55 63 74 87 98 104 107 105
76 78 81 82 87 89 92 99 100 104 89 90 68 53 40 20 9 7 9 11 11 11 10 11 20 24 24 24 25 22 24 20 19 17 20 22 22 21 24 20 18 12 14 20 25 33 45 56 64 73 81 89 97 102
78 80 82 85 87 92 96 96 101 96 79 79 68 37 30 13 10 9 10 12 13 10 14 14 12 18 23 23 24 25 28 27 21 19 22 23 27 24 23 24 25 21 21 22 26 30 35 43 57 65 71 78 83 89
81 82 85 88 91 93 96 101 102 97 88 71 41 29 22 16 10 9 12 14 14 14 15 18 19 16 20 21 22 23 25 26 22 16 21 24 27 31 32 32 31 30 26 26 28 32 36 42 47 53 64 71 75 80
83 83 86 89 92 93 96 97 93 83 71 45 28 22 21 19 13 12 13 13 15 16 18 19 20 18 21 22 24 27 31 28 20 16 22 27 30 32 35 37 39 36 27 22 27 31 34 41 46 46 54 63 72 74
87 87 90 92 94 96 91 89 84 71 51 32 23 20 20 16 10 10 11 14 14 16 16 18 22 21 19 23 27 32 28 15 16 21 28 34 38 39 41 44 44 41 39 35 26 25 32 39 43 43 47 55 59 66
88 88 89 91 94 94 93 84 60 52 32 23 20 19 15 14 13 11 13 13 13 15 16 17 21 22 23 26 31 27 18 17 24 29 34 39 43 46 47 49 54 51 51 47 37 33 34 36 38 41 40 45 52 55
89 87 89 94 89 79 79 56 51 32 23 19 18 15 13 13 14 13 12 11 15 17 13 13 21 21 24 26 20 17 19 19 25 32 41 45 48 51 51 52 52 50 51 43 41 40 35 33 35 37 37 39 46 50
87 87 90 87 77 67 49 50 30 22 19 20 16 13 12 13 13 12 11 12 13 10 11 17 21 20 23 20 17 20 25 29 32 40 48 50 52 52 53 55 53 52 46 44 40 35 33 30 30 33 37 37 40 45
77 74 65 65 59 44 46 31 23 19 20 18 14 12 13 12 13 13 11 12 12 13 14 21 21 21 23 24 27 31 33 37 39 44 49 52 54 54 55 52 53 48 45 42 37 33 31 28 28 30 32 36 37 41
61 53 51 43 39 35 28 24 24 23 21 19 15 16 13 12 11 13 13 15 14 15 19 23 23 25 27 24 28 33 33 37 41 45 50 50 51 53 50 53 50 47 48 45 40 34 30 28 29 32 31 31 35 37
54 41 36 36 32 25 24 24 22 23 23 18 15 16 13 12 15 15 14 18 14 16 21 22 23 23 21 22 27 31 35 41 45 48 50 51 49 48 51 53 49 47 46 43 39 36 33 31 30 30 32 34 34 37
36 31 34 33 25 24 24 23 22 23 17 14 12 13 11 13 17 15 14 9 14 22 24 17 19 15 17 22 24 31 43 49 52 51 51 46 42 46 50 51 47 45 44 41 38 35 33 32 30 30 31 34 36 37
36 36 33 25 25 25 26 26 24 20 14 13 11 10 11 13 12 7 6 10 12 16 14 12 7 12 18 23 28 37 47 52 51 51 47 42 44 48 49 51 49 47 44 40 37 35 33 31 29 29 31 32 33 34
27 25 25 25 26 28 29 29 25 19 15 15 12 12 9 8 7 7 9 14 19 13 19 12 11 20 25 31 36 43 48 53 51 49 43 40 43 46 48 49 47 47 41 39 35 34 33 29 26 27 29 26 26 27
21 22 24 28 30 31 29 26 21 18 18 16 12 9 11 9 8 10 13 18 12 12 7 8 16 23 30 35 42 45 50 51 49 46 40 38 40 43 45 46 44 43 42 40 38 36 36 35 32 27 27 26 24 25
20 24 27 28 25 22 19 17 16 18 19 15 11 13 13 7 9 13 17 14 14 13 10 17 24 29 33 38 44 45 50 48 45 41 40 40 42 45 45 44 44 43 41 38 37 35 34 33 31 25 23 24 22 21
21 25 24 19 14 11 11 13 16 17 16 17 16 14 8 9 10 13 12 9 10 10 17 21 24 31 37 44 43 44 43 42 40 39 40 42 43 44 42 42 42 42 42 41 38 35 33 31 28 23 22 21 19 19
21 19 13 9 8 10 12 13 16 16 18 19 16 11 10 9 10 4 5 7 9 12 16 20 28 36 42 41 40 37 37 39 36 35 38 41 44 46 43 40 39 38 37 38 37 35 29 28 29 24 17 16 17 17
14 10 9 10 11 11 12 14 14 16 19 18 13 10 8 8 8 6 8 9 7 9 19 27 34 38 38 36 37 39 40 43 46 43 41 43 43 44 43 40 39 40 40 39 38 36 34 32 28 27 25 21 16 14
10 10 11 13 14 12 12 13 17 21 21 13 12 10 9 9 13 13 10 12 19 26 30 32 33 33 32 33 38 41 41 43 47 49 48 46 44 43 41 41 41 41 41 40 38 37 37 34 29 24 22 21 18 15
11 11 12 13 14 14 14 17 21 19 13 12 11 10 10 6 17 16 15 22 27 28 27 28 28 27 31 35 40 39 39 41 45 50 49 47 45 42 40 38 38 38 38 39 38 36 35 34 32 30 27 24 21 19
11 11 12 13 13 15 19 22 21 15 11 10 11 13 12 6 8 9 11 14 18 20 25 25 26 29 31 39 40 40 43 46 47 48 50 48 47 43 37 35 36 37 37 38 37 37 36 34 30 25 22 20 20 19
9 11 12 13 16 19 21 23 20 15 10 9 12 13 10 8 8 10 12 16 16 21 20 23 26 28 36 42 45 47 48 48 49 51 50 50 50 44 38 34 35 34 35 35 35 35 35 35 34 33 29 26 22 19
13 15 17 19 22 23 22 18 14 10 11 13 12 9 5 6 6 9 11 14 18 19 22 24 29 30 36 46 49 49 54 55 53 53 50 51 52 46 37 33 33 33 32 33 34 35 36 36 35 34 30 24 20 18
20 20 20 19 18 15 13 11 11 13 12 11 11 7 6 4 5 9 14 17 19 24 24 30 36 37 40 46 51 52 56 57 54 53 52 51 49 50 41 34 30 29 28 29 30 32 33 34 34 34 32 29 27 22
19 17 14 12 11 12 11 12 11 9 9 8 7 6 5 1 9 17 24 27 29 31 30 30 38 46 50 48 52 58 56 56 57 58 52 51 53 52 47 36 32 27 25 24 25 27 29 31 32 32 33 33 33 29
13 9 6 5 7 10 10 8 9 12 12 10 4 2 3 9 13 18 22 27 32 41 45 42 46 50 54 57 57 62 59 56 61 65 59 56 65 53 50 37 32 25 22 21 22 22 23 23 25 28 32 33 32 31
3 1 7 8 5 6 8 10 12 11 11 8 7 3 9 15 15 20 27 30 35 44 43 44 50 54 59 62 64 67 64 62 63 69 62 61 58 47 48 36 31 29 26 22 19 19 20 22 22 24 28 28 28 27
4 7 3 5 8 8 8 9 8 9 10 11 13 8 11 13 16 21 22 30 32 34 43 50 53 57 62 65 66 69 68 66 69 68 62 62 53 42 39 32 27 25 23 21 21 20 19 18 17 17 17 19 23 25

GFSWCAN_250_spd_087.txt.gz
Wind_Speed
47 52 54 58 62 67 71 74 79 80 84 88 90 91 94 95 71 46 23 11 9 12 14 19 22 26 30 27 27 27 25 21 17 11 7 9 15 19 23 31 45 65 77 88 88 85 84 85 89 88 95 98 98 99
52 54 57 62 67 70 73 76 78 80 83 88 90 90 95 86 59 35 18 11 9 12 10 13 18 20 24 24 23 21 21 20 19 19 15 9 5 6 14 22 29 37 52 66 78 92 93 91 88 89 90 91 99 98
56 58 62 65 68 72 76 76 79 82 85 88 88 89 90 80 44 24 13 13 13 11 9 9 13 16 20 21 20 19 18 18 17 11 12 10 8 3 3 13 19 26 33 44 58 72 83 90 93 92 90 91 93 100
61 63 66 67 72 75 78 80 82 82 86 87 89 93 89 66 30 20 13 15 12 10 10 8 9 14 15 17 18 19 17 17 15 13 13 12 10 6 9 6 7 13 22 31 39 49 62 77 88 95 98 98 97 96
64 66 69 72 75 78 80 82 82 86 86 88 89 92 88 46 23 18 13 12 11 11 12 10 9 13 14 15 16 17 18 17 19 16 14 14 12 8 9 6 6 10 13 19 25 36 47 56 66 75 88 98 103 104
65 67 69 71 74 78 77 81 83 86 86 87 90 81 69 31 20 18 17 15 15 14 14 13 11 16 17 15 16 17 18 19 22 20 18 12 10 11 13 13 16 17 16 18 24 31 36 47 56 64 72 78 87 98
68 70 72 74 75 77 79 82 85 84 85 88 89 69 53 25 18 17 20 21 20 18 16 19 17 18 20 17 16 16 19 21 25 15 8 11 13 14 17 20 21 23 25 28 23 27 36 43 49 55 62 70 78 84
71 71 73 76 79 80 80 85 83 88 85 88 81 61 33 23 19 17 20 22 19 17 18 18 18 18 20 22 22 20 21 21 15 9 13 17 21 25 26 29 31 30 32 34 28 29 37 42 49 52 57 62 68 70
73 74 76 77 77 80 84 80 87 89 81 74 53 40 24 21 20 17 18 19 18 18 18 17 18 18 20 21 24 23 23 18 11 13 19 27 30 32 37 38 41 41 42 39 36 36 37 37 39 48 50 56 62 67
69 71 72 78 72 72 74 75 81 67 60 46 38 25 20 20 19 16 16 19 18 17 16 17 18 18 21 21 24 20 17 13 10 17 23 30 33 36 40 43 44 44 46 42 43 41 36 37 39 42 46 52 55 55
67 72 71 68 71 77 66 63 55 51 41 37 25 19 20 19 18 18 20 18 18 16 18 20 23 19 16 23 25 18 16 18 21 25 27 35 39 41 44 45 45 45 42 45 44 39 38 39 40 42 44 45 46 49
67 66 65 70 73 59 58 53 47 39 33 28 20 19 18 17 15 16 17 18 18 15 17 14 16 16 19 25 25 16 16 17 21 26 31 38 43 44 44 45 45 41 44 45 42 40 40 39 38 37 40 43 44 46
57 60 60 57 51 52 51 41 35 30 25 22 19 17 16 15 15 17 18 16 15 15 17 17 17 19 23 25 10 8 14 19 26 32 40 45 45 46 47 44 40 44 46 45 41 41 39 37 36 34 35 39 41 42
52 44 47 40 43 41 34 28 31 24 20 18 18 18 15 15 16 18 18 18 17 14 16 17 17 22 25 12 9 11 16 21 29 38 44 49 48 48 46 41 42 44 44 44 43 42 37 33 30 29 29 33 38 40
35 43 39 34 30 28 24 25 24 21 20 20 22 18 16 17 16 15 15 16 15 16 16 17 20 24 15 11 11 17 23 27 35 41 47 49 47 45 41 39 41 43 43 43 42 39 36 35 32 30 31 33 36 39
39 34 25 23 21 22 23 22 21 20 20 21 18 14 16 17 15 18 21 18 18 16 14 17 22 18 10 12 18 22 26 33 39 43 48 47 44 41 39 39 42 43 42 41 41 39 36 35 33 31 31 33 37 38
20 16 17 18 20 23 23 22 21 20 19 19 15 14 16 16 15 20 18 13 12 12 15 20 16 7 11 15 24 27 35 41 41 45 46 46 43 41 39 41 43 41 40 40 40 38 37 38 35 32 30 31 35 34
18 22 23 23 22 23 23 23 24 22 21 19 17 17 17 15 16 16 10 9 11 15 17 12 7 10 16 22 27 34 40 40 40 43 43 41 40 38 37 40 41 40 39 39 39 38 35 34 31 28 27 29 30 27
23 21 21 21 20 20 22 25 26 25 24 21 21 20 16 12 12 9 7 9 13 14 10 7 9 13 18 26 33 40 39 37 38 37 39 39 38 37 37 39 40 39 38 39 39 38 37 36 34 32 29 28 29 25
18 18 18 17 18 21 24 24 23 22 21 22 24 19 12 15 11 7 8 11 6 4 7 8 9 16 24 32 40 39 38 41 40 38 40 42 41 39 39 39 38 38 38 38 38 38 37 37 36 34 29 25 25 26
16 15 16 16 18 21 19 16 16 17 21 26 22 15 16 15 10 8 10 7 5 5 7 7 14 19 27 37 38 36 38 41 40 41 43 46 46 44 42 41 38 38 37 36 38 38 37 36 35 31 27 24 24 22
14 13 13 15 13 10 9 12 17 21 22 22 20 18 18 12 9 9 8 5 6 9 8 10 15 25 33 33 31 35 36 37 40 43 44 46 47 47 43 39 35 36 38 37 38 38 36 34 31 28 26 22 20 21
12 11 11 9 10 11 13 15 18 19 19 20 21 20 15 10 9 8 11 13 14 13 15 14 21 28 29 26 26 30 33 38 42 43 45 46 48 49 44 38 34 34 35 35 35 35 35 34 32 30 26 23 19 17
10 9 10 12 13 14 14 15 16 18 20 22 22 17 9 6 7 12 16 15 10 9 14 19 26 28 21 21 26 30 36 40 46 45 46 47 49 49 46 39 35 35 34 34 35 38 38 38 36 31 27 24 21 17
10 11 12 12 14 15 13 14 17 20 23 22 17 10 4 5 8 14 17 19 15 16 20 26 24 19 20 23 36 37 40 45 49 47 44 46 47 49 47 46 40 37 36 34 37 39 40 42 41 36 27 22 21 20
12 13 12 12 14 15 14 15 20 23 24 18 14 9 5 7 7 12 19 22 21 18 18 17 16 18 25 27 30 36 41 47 52 47 48 50 51 49 50 48 46 39 36 34 34 36 38 39 37 35 29 27 24 22
13 13 14 15 16 16 18 20 23 23 18 14 11 8 8 8 10 13 15 13 15 14 16 17 19 21 22 34 36 41 46 49 54 58 54 50 52 55 49 45 46 38 38 34 31 32 35 36 36 36 33 27 24 24
13 13 13 15 16 19 22 26 24 18 15 13 12 10 10 9 9 10 8 6 8 11 13 15 18 22 26 32 39 45 49 54 56 58 56 53 57 55 54 49 44 40 34 32 29 27 28 31 34 35 34 32 27 24
11 12 13 15 16 18 19 21 20 16 14 14 14 13 10 11 9 6 2 5 5 12 19 26 31 27 28 35 43 49 52 54 59 59 61 55 61 63 54 58 45 40 34 30 28 26 24 26 29 31 32 31 30 27
18 18 17 17 16 15 14 13 15 17 18 18 14 12 12 14 11 7 6 8 13 18 20 25 31 31 34 36 43 51 55 57 60 62 65 59 66 63 62 61 50 37 29 28 27 26 24 23 23 24 26 29 29 28
16 14 11 9 9 11 14 16 17 17 16 14 15 16 17 18 17 16 18 19 21 26 31 31 32 38 42 46 49 54 59 61 63 65 65 58 63 67 63 57 51 38 27 25 25 24 23 22 22 23 23 23 24 27
13 8 3 5 10 12 14 14 11 14 18 17 17 18 16 16 17 17 16 20 27 34 35 36 44 51 54 54 54 57 61 64 67 69 66 66 69 70 63 54 47 39 30 24 24 24 23 21 20 21 22 22 23 24
3 6 8 8 8 6 5 7 10 12 13 13 15 17 16 16 20 24 25 23 24 26 25 30 41 51 53 57 60 63 65 65 68 71 70 71 73 70 59 49 44 36 29 24 22 22 24 23 21 20 20 20 21 20

GFSWCAN_250_spd_090.txt.gz
Wind_Speed
41 41 42 45 48 51 56 58 62 66 69 71 73 76 80 80 82 88 85 59 20 14 19 16 13 20 24 28 26 22 22 22 20 13 7 8 14 21 30 41 53 69 81 81 79 76 76 80 84 89 93 95 98 99
45 47 50 51 54 57 58 60 64 67 66 71 73 77 78 83 84 92 79 44 18 11 18 12 10 16 18 22 26 23 19 16 16 17 14 11 5 7 15 24 35 46 57 71 82 85 81 79 78 81 87 92 96 99
52 54 54 57 58 60 62 62 63 67 69 72 77 76 83 82 86 80 73 31 17 19 15 16 8 12 18 14 17 20 20 16 14 10 10 10 4 3 4 10 17 25 35 48 61 71 81 86 84 81 79 84 88 93
62 61 61 62 64 63 63 62 65 69 72 74 76 80 84 81 86 77 52 24 18 19 15 15 14 14 16 14 14 13 16 18 18 16 12 11 9 5 5 1 6 14 21 29 37 49 63 74 82 85 86 85 89 90
68 67 67 68 67 65 64 65 68 71 72 72 78 80 79 85 81 54 35 20 16 19 16 13 15 16 15 16 16 14 14 15 16 17 14 12 7 4 6 7 7 7 8 13 22 33 40 50 63 76 85 91 94 93
74 73 71 71 70 69 68 68 71 73 73 74 77 75 78 75 59 38 27 19 18 19 18 13 17 16 15 17 17 16 16 14 14 14 13 5 3 7 6 6 9 12 13 15 19 22 28 37 48 57 66 74 83 94
79 75 73 71 69 67 68 70 72 73 73 69 73 76 76 61 53 32 25 22 22 24 22 19 19 20 21 21 17 18 19 18 18 13 6 3 6 8 13 15 14 18 20 20 22 23 26 31 39 44 51 61 70 76
78 80 77 71 68 66 64 68 70 70 68 70 72 68 70 55 45 28 23 22 23 28 25 21 21 19 20 20 19 18 20 22 20 14 13 10 11 18 22 27 28 27 27 27 28 30 32 36 39 43 47 54 59 66
72 76 73 69 63 63 61 62 63 66 69 67 66 65 68 48 32 26 22 22 23 25 24 21 18 17 20 20 19 19 20 22 15 12 17 17 17 19 26 27 31 33 36 37 36 37 36 37 38 41 49 58 60 62
73 72 67 59 57 58 58 60 62 65 60 66 62 60 57 36 25 25 25 23 21 21 21 18 16 17 19 19 19 20 22 20 17 15 16 19 18 20 26 30 33 35 37 40 39 37 37 39 41 41 41 46 54 60
69 61 61 54 55 56 57 60 60 58 65 56 52 55 42 27 23 24 24 22 21 20 19 17 18 20 19 15 16 20 22 18 18 14 15 19 21 27 32 36 38 40 41 38 36 37 39 41 43 41 43 45 50 53
54 56 53 53 55 55 57 58 55 61 50 52 47 39 27 21 21 20 18 19 21 21 19 17 18 18 10 13 17 23 18 19 18 18 18 26 31 33 40 43 42 41 40 38 38 40 41 42 41 42 44 46 47 48
45 50 52 51 50 53 52 53 53 43 44 40 34 25 21 20 18 17 17 17 19 19 18 16 17 17 17 18 21 20 18 21 20 21 24 28 33 38 42 42 40 38 37 37 38 41 42 42 41 41 40 41 42 44
39 43 46 49 50 47 50 44 42 40 33 29 23 22 20 19 19 19 19 19 19 20 18 17 15 16 17 20 21 20 20 18 19 25 30 33 37 42 43 40 38 39 40 41 43 44 42 40 40 39 39 39 40 42
35 38 39 38 36 35 38 39 35 28 26 21 20 19 20 21 21 19 19 20 20 20 21 18 17 16 18 21 20 19 18 19 27 31 33 35 38 41 41 40 40 41 41 40 42 42 41 40 39 39 37 37 38 40
26 31 31 32 31 33 31 27 25 23 23 17 18 17 19 18 19 20 20 21 21 18 18 17 15 17 21 16 15 17 19 25 31 31 32 35 39 40 40 39 40 39 39 40 40 41 40 40 40 38 36 36 37 38
27 30 33 32 30 29 23 25 22 24 21 18 17 16 17 17 17 18 16 16 18 17 14 13 15 19 14 14 14 17 26 27 28 33 37 37 35 38 37 37 37 36 37 37 37 38 38 39 38 37 36 36 35 35
26 25 28 24 19 21 18 20 21 22 21 21 18 16 16 17 15 13 13 15 12 11 11 13 14 11 11 11 15 25 30 30 33 36 36 34 36 37 39 39 37 35 35 35 36 37 38 40 39 37 34 32 32 32
22 23 21 21 19 21 19 21 21 21 23 24 21 19 18 17 14 12 14 13 10 10 13 11 10 10 10 13 22 30 29 31 33 32 34 36 38 41 43 42 38 33 33 33 34 36 36 37 36 34 33 30 30 30
17 15 14 16 18 19 19 19 21 23 24 23 23 22 18 18 15 17 11 9 8 12 13 9 7 8 10 18 27 26 28 26 29 33 35 38 40 42 44 43 35 31 29 32 34 37 37 37 36 35 33 29 27 27
18 17 17 16 16 17 18 19 23 24 24 25 23 21 21 17 18 13 9 7 10 10 9 10 9 11 16 23 25 23 23 28 34 37 40 41 39 43 46 45 39 32 31 33 35 35 36 37 36 34 31 27 24 24
17 17 15 15 15 16 18 19 18 18 19 18 20 23 19 18 18 12 9 8 10 12 12 13 11 13 19 27 23 23 27 35 40 41 42 41 41 43 45 43 42 40 33 32 34 35 35 36 34 32 28 27 26 23
16 15 13 12 13 11 11 11 12 14 18 21 24 22 20 20 15 9 9 12 12 12 12 14 12 12 21 25 22 27 31 32 36 42 47 44 41 43 45 46 45 42 38 34 33 34 34 34 33 31 29 27 23 22
15 12 11 11 11 12 13 13 15 18 19 21 23 20 20 16 9 10 12 13 12 10 8 9 12 18 21 18 21 24 28 30 38 42 47 45 51 49 44 45 46 41 41 36 33 34 35 33 33 34 32 28 24 22
11 11 11 12 15 18 15 15 16 18 18 21 21 20 16 9 8 10 14 12 11 13 14 14 16 19 14 14 18 25 31 35 39 44 47 53 51 50 57 47 51 47 40 34 31 31 33 34 34 36 36 30 26 23
11 11 13 15 19 19 18 16 16 18 19 20 20 17 13 9 8 7 9 14 16 16 18 19 19 17 20 22 23 24 29 36 41 45 50 51 52 54 57 62 56 54 42 36 32 28 28 32 33 35 36 34 29 25
12 15 15 15 17 20 18 15 16 18 19 21 18 14 10 9 11 10 13 15 19 19 16 13 11 10 15 17 18 24 30 36 42 45 47 52 54 56 57 59 64 59 51 38 33 29 26 27 29 30 32 34 31 28
14 15 15 16 17 17 17 16 17 18 21 18 15 11 9 12 14 16 19 17 15 12 9 9 13 17 22 26 26 29 32 36 42 45 48 55 58 62 62 60 61 63 51 45 34 30 27 24 25 26 27 29 31 30
13 14 15 15 16 16 17 18 20 21 18 14 12 11 12 13 15 14 14 14 14 14 14 16 18 21 26 27 29 34 37 41 44 48 52 56 62 62 68 62 58 64 54 47 38 31 27 25 23 23 23 24 25 27
13 14 14 15 16 16 17 19 20 18 15 14 14 16 17 17 18 18 19 18 18 20 22 23 26 32 34 32 33 36 38 43 49 55 57 58 61 61 67 65 58 63 59 45 40 33 29 25 24 23 22 22 22 22
17 16 15 14 14 13 14 13 13 14 16 18 20 20 18 19 20 22 23 25 26 26 29 31 31 34 37 37 34 42 48 51 53 55 54 57 62 62 65 66 58 64 59 46 37 31 29 27 26 25 23 22 21 20
15 13 11 8 6 7 10 12 14 15 18 19 16 16 16 18 20 22 25 24 24 29 31 32 33 35 41 41 38 43 49 56 59 59 57 61 63 64 67 63 59 66 54 43 35 30 27 27 26 26 27 26 24 22
5 1 3 7 8 8 8 8 6 6 7 7 7 10 15 19 22 22 24 27 32 35 37 36 38 40 40 39 42 46 50 54 56 58 60 63 67 68 66 59 63 59 46 39 33 29 26 25 26 26 25 26 27 26

GFSWCAN_250_spd_093.txt.gz
Wind_Speed
59 55 48 47 48 48 49 50 51 53 57 60 60 62 63 65 69 71 76 76 80 53 29 20 19 15 20 27 27 28 26 24 17 10 4 1 4 15 28 44 64 72 72 73 75 76 76 79 84 88 89 91 93 95
65 64 62 59 57 56 58 58 59 57 59 63 65 65 67 69 70 72 73 74 79 51 26 18 18 13 15 20 19 21 21 16 16 15 14 9 4 4 10 21 35 52 69 73 71 72 73 74 76 79 85 90 93 95
72 70 67 65 64 65 64 61 60 60 62 64 65 65 67 68 73 70 72 72 74 53 23 19 18 18 16 18 17 15 17 16 12 7 8 8 7 5 0 8 16 25 37 50 65 74 76 74 73 74 76 81 86 93
70 74 74 73 71 70 69 67 65 64 62 62 63 65 67 66 68 68 69 71 69 45 22 21 20 18 17 16 15 13 13 13 12 11 6 4 2 2 2 4 5 12 20 28 37 47 58 69 75 79 79 79 81 83
56 55 60 69 73 73 71 68 67 66 65 65 66 66 64 65 61 63 67 66 62 31 19 20 20 17 17 16 14 16 13 14 13 12 11 8 4 3 3 4 5 7 10 15 22 28 36 46 56 66 74 81 85 85
60 61 54 55 61 66 70 71 71 70 66 63 60 59 60 60 59 57 63 62 47 27 20 22 20 17 19 17 16 17 15 15 15 15 14 10 9 9 6 7 6 6 8 12 16 20 25 32 41 46 54 66 77 85
61 60 60 60 57 58 60 63 67 67 65 62 61 58 60 59 61 51 63 58 48 24 20 26 25 23 22 21 21 19 16 16 16 17 17 16 14 9 8 12 14 16 17 18 19 23 27 30 32 36 43 52 59 65
60 60 61 59 60 62 64 63 64 66 65 63 57 53 58 59 57 56 53 59 31 22 22 27 30 25 21 21 19 19 18 18 18 18 20 20 19 15 14 21 22 23 23 25 27 29 31 33 38 42 45 47 50 54
67 65 65 64 62 66 69 68 65 62 56 53 52 52 57 57 55 55 51 44 23 23 24 26 27 24 22 21 19 19 19 20 19 20 21 20 15 19 22 23 23 23 25 29 31 34 36 38 41 45 48 50 53 55
73 70 69 70 70 70 71 65 60 56 56 53 51 52 53 58 58 50 45 29 22 25 24 22 21 21 22 20 16 17 20 18 20 21 24 25 18 25 27 23 26 30 31 33 35 36 39 41 42 41 41 46 50 54
71 72 76 77 77 74 68 60 53 53 54 50 49 53 55 58 49 47 31 25 24 22 19 16 17 19 19 17 19 18 17 19 25 19 23 27 20 26 27 28 30 33 36 39 41 41 40 40 39 40 43 46 48 50
75 68 61 56 51 47 46 47 50 48 48 47 48 49 48 48 41 35 26 23 22 18 19 17 17 17 17 16 14 15 18 25 27 22 24 28 27 31 31 33 35 38 42 44 44 42 40 39 41 42 44 46 47 47
50 44 39 37 37 39 42 42 43 45 45 45 44 46 45 40 34 29 22 21 20 19 16 18 18 16 14 17 20 22 24 26 22 21 24 26 29 33 34 35 37 40 43 43 42 40 40 40 41 43 45 45 45 45
36 34 33 34 36 35 37 41 41 44 47 46 44 41 37 33 30 23 20 19 16 15 15 16 17 15 16 17 20 23 26 22 20 22 25 28 31 32 36 40 42 43 44 43 40 40 41 42 43 43 43 43 43 44
34 33 32 31 31 33 35 39 40 42 43 42 39 35 30 28 24 20 20 19 18 17 16 16 17 18 18 19 20 21 19 17 21 24 27 27 31 35 38 38 40 44 44 43 43 42 42 43 43 43 42 42 43 43
30 30 31 30 32 34 35 37 37 33 32 35 29 27 24 23 20 19 19 20 19 18 18 17 17 19 19 16 18 16 13 18 22 24 26 30 33 33 35 38 40 41 41 42 41 40 39 39 39 41 41 42 43 44
31 32 34 34 33 33 32 29 31 33 28 25 27 25 21 17 15 13 14 17 17 18 20 18 19 19 14 16 12 13 16 20 20 24 27 27 30 32 34 36 39 42 41 37 34 34 34 35 37 39 41 43 43 41
33 33 33 32 29 29 30 30 28 23 24 26 26 23 19 14 12 12 14 16 17 17 18 19 16 14 16 11 12 12 17 18 21 25 27 29 30 32 36 41 40 38 34 30 29 29 31 33 35 38 42 44 43 40
32 32 30 29 28 26 24 23 24 23 25 25 25 23 22 15 12 15 16 17 17 16 17 15 15 16 11 10 10 14 16 19 22 27 31 31 31 34 37 38 42 40 35 30 29 31 31 30 33 36 39 37 35 32
28 28 26 23 23 24 25 25 27 24 28 27 27 26 23 17 14 19 16 14 13 15 15 15 14 13 9 8 12 15 16 18 27 30 27 29 34 36 38 39 42 43 40 35 30 28 28 28 30 33 35 35 32 28
22 21 21 22 19 22 25 25 26 24 24 26 27 24 22 18 19 18 17 15 15 13 14 14 15 10 9 10 15 12 14 25 21 22 25 26 36 40 44 44 42 43 42 37 34 32 30 29 31 33 33 30 26 24
21 21 23 17 17 19 20 20 20 22 25 26 24 23 21 21 21 19 17 14 10 10 12 15 13 10 10 10 14 14 19 19 18 22 28 35 32 38 41 47 47 46 48 42 35 34 33 33 34 34 33 29 25 24
18 17 17 17 17 15 16 18 19 18 18 18 19 20 23 24 23 20 16 13 11 9 10 9 10 12 10 11 12 13 14 22 25 28 28 35 32 41 49 47 53 52 49 49 40 36 35 34 35 37 35 30 25 23
16 16 15 14 13 13 12 10 10 11 15 19 22 25 22 23 21 18 14 10 8 8 9 7 4 6 9 14 15 15 21 26 24 30 32 34 40 42 46 52 56 58 58 53 49 39 36 35 33 34 34 31 27 24
16 14 13 12 11 12 12 11 13 16 18 21 25 22 21 23 17 13 12 11 9 9 10 12 12 11 13 13 18 20 25 25 25 29 32 33 37 43 44 48 54 57 60 62 57 50 38 36 34 31 31 31 29 27
15 13 12 12 15 17 15 14 16 17 17 19 22 21 21 15 12 13 11 11 12 12 11 12 14 17 18 15 18 21 24 23 27 29 33 37 41 43 46 49 52 56 60 63 61 58 48 37 35 33 28 29 29 30
12 12 13 16 19 20 18 18 17 16 16 18 21 22 19 17 15 12 11 12 12 15 19 21 20 20 18 18 21 24 28 33 32 35 39 40 40 43 48 53 53 53 56 60 63 59 53 43 35 33 30 25 25 26
13 15 16 16 18 20 20 17 16 17 19 21 21 16 17 17 14 12 13 17 19 21 21 20 20 22 23 23 24 25 30 33 37 38 38 39 39 42 47 51 54 54 54 57 61 59 61 46 38 33 31 28 24 23
15 17 16 15 16 17 17 16 15 19 23 24 21 17 16 14 13 14 17 19 21 20 20 21 25 28 29 29 30 35 36 36 42 40 40 42 43 47 50 52 52 53 54 55 58 60 60 50 39 34 31 28 26 24
11 11 12 12 13 14 14 15 15 22 25 20 16 14 14 15 16 18 21 22 22 23 23 26 29 32 32 34 40 41 42 41 43 49 42 47 49 50 50 52 52 54 57 56 58 58 58 51 37 33 30 28 26 25
13 12 12 11 11 12 12 12 15 18 18 18 18 19 19 20 21 22 21 20 20 25 28 29 31 32 33 36 39 38 39 44 49 51 51 50 52 55 56 57 58 58 58 57 57 53 57 45 34 31 29 27 27 26
17 16 16 14 13 12 12 13 15 16 17 18 19 21 21 21 19 18 20 19 19 23 29 33 35 36 39 42 44 46 49 49 49 50 51 51 52 55 58 58 59 60 57 53 50 52 44 37 33 30 30 29 27 26
10 7 5 5 7 9 11 13 15 16 15 13 11 10 10 11 14 15 17 21 26 29 30 34 37 40 43 47 48 50 52 51 51 53 54 55 56 58 57 58 57 53 52 50 46 40 36 33 31 30 29 29 28 28

GFSWCAN_250_spd_096.txt.gz
Wind_Speed
69 70 71 69 65 63 62 61 59 58 56 56 57 58 56 61 63 61 60 61 62 59 56 64 43 23 23 22 28 31 32 30 23 17 11 6 5 12 22 35 51 62 74 77 78 77 74 76 84 88 89 93 96 97
48 50 53 62 68 69 67 66 62 62 61 61 62 61 59 60 61 57 56 58 56 53 56 58 43 19 18 20 22 24 22 25 24 19 16 12 5 2 11 20 34 50 62 72 75 75 75 74 74 79 85 87 91 96
47 45 45 44 45 49 58 62 65 64 65 64 63 63 62 60 59 58 57 55 56 56 53 56 40 21 16 17 15 17 17 18 19 17 13 11 9 9 3 6 17 30 48 61 69 71 72 71 73 73 76 81 86 89
50 47 47 47 47 48 49 49 50 52 57 62 63 61 61 59 60 60 61 53 55 55 47 46 36 20 21 18 16 15 14 13 15 16 18 11 7 8 5 2 3 12 23 36 53 65 70 72 72 72 73 76 79 83
51 51 50 51 51 50 52 52 52 48 49 51 56 59 61 60 59 59 58 48 50 52 46 46 28 19 16 17 17 15 14 15 13 14 15 15 5 5 5 5 4 4 8 16 26 36 49 62 72 75 75 76 79 82
56 53 49 50 52 54 54 51 50 51 49 48 45 47 50 52 56 55 54 46 48 48 49 46 25 18 18 18 19 18 18 17 14 13 14 16 15 14 11 9 8 8 8 10 13 17 24 34 45 54 64 74 81 82
59 57 52 50 52 51 53 52 50 49 49 48 49 49 50 49 56 51 45 43 47 48 44 41 20 23 22 19 18 20 21 18 16 15 15 17 18 18 15 13 12 13 13 16 18 20 21 24 28 33 41 51 60 68
62 61 60 57 54 54 54 54 54 54 53 53 53 53 52 51 51 50 42 44 46 48 46 34 23 22 23 23 25 25 22 20 18 17 17 20 19 20 19 22 21 22 21 23 23 24 26 28 31 36 38 40 44 51
62 62 63 61 61 59 58 57 58 58 57 58 56 53 51 48 48 50 43 44 45 46 37 30 23 22 24 21 22 22 23 22 19 20 19 22 22 23 21 24 27 28 28 30 28 29 32 34 37 39 42 47 50 53
64 63 61 62 65 66 57 55 56 57 58 60 58 51 48 46 47 45 40 43 41 39 32 27 23 21 21 20 20 22 21 20 22 19 19 23 23 24 26 25 28 30 31 34 38 38 41 43 44 44 45 47 49 51
61 65 68 66 61 56 57 60 62 63 61 53 47 44 47 46 45 36 39 41 40 35 28 25 23 20 22 21 20 22 22 24 22 17 21 26 23 25 27 27 29 32 37 41 43 46 47 47 48 48 48 48 48 49
62 59 59 59 64 65 60 53 45 38 39 41 43 44 42 41 35 35 37 39 35 30 25 24 22 19 18 18 20 20 23 23 19 19 23 26 21 21 25 28 35 41 45 49 49 48 48 48 48 48 48 48 49 50
59 61 64 68 58 46 33 28 25 29 33 33 35 37 38 36 34 35 37 33 30 25 22 20 20 18 17 18 20 22 24 23 24 26 29 22 20 24 30 36 38 40 41 44 45 45 46 48 49 47 47 48 49 49
63 69 60 47 38 27 21 23 28 28 29 33 34 31 32 34 35 38 32 29 25 19 15 16 18 20 17 19 19 19 21 23 24 27 23 23 27 33 32 34 38 39 41 43 45 46 47 47 47 46 45 45 47 48
66 50 40 31 24 22 25 27 27 29 31 30 29 30 33 32 32 29 26 25 19 16 17 18 17 16 17 20 17 16 20 22 24 22 22 26 30 30 32 32 36 40 41 42 44 44 43 43 42 41 41 42 45 47
42 33 23 20 22 22 24 25 27 29 28 28 30 30 27 24 24 24 24 19 18 19 18 18 16 16 19 18 18 18 19 21 18 21 27 26 25 27 32 35 36 36 36 37 38 37 37 36 34 35 38 40 44 47
28 23 22 25 27 27 29 30 30 29 28 28 26 24 22 22 22 21 19 18 19 20 20 19 20 18 18 19 18 19 20 17 19 23 19 20 28 28 27 29 31 35 39 40 39 34 32 31 32 33 37 40 43 42
25 25 25 28 30 29 28 29 30 27 27 27 22 19 21 22 19 18 14 13 17 21 21 21 22 20 16 15 17 20 18 19 18 17 17 28 26 22 25 30 33 35 38 41 39 33 29 27 28 29 32 36 41 40
29 29 29 28 30 27 27 27 26 26 27 25 20 21 21 20 18 16 12 14 18 20 19 18 16 16 17 18 19 17 17 15 15 17 24 22 20 20 24 28 36 43 47 44 41 34 29 26 26 26 30 35 37 35
30 32 29 31 29 27 26 28 24 22 23 21 20 22 20 20 20 17 14 19 19 18 17 16 16 17 18 19 17 16 14 12 15 19 20 21 17 21 28 33 36 41 47 50 49 42 32 30 27 26 29 32 34 34
32 28 29 31 31 28 23 22 23 22 23 23 20 21 22 22 22 20 17 19 17 15 16 16 18 18 20 19 15 14 13 11 13 15 20 17 19 25 29 29 34 38 47 49 54 56 46 37 34 31 30 31 33 33
27 25 25 25 22 22 22 22 24 25 24 24 24 23 25 24 22 21 19 18 18 18 16 15 17 22 21 19 18 14 13 12 15 18 20 23 27 27 31 31 33 37 44 49 54 58 59 52 41 36 33 31 32 32
24 22 21 20 22 21 18 18 20 21 22 23 24 25 25 24 22 20 20 20 18 16 13 13 19 19 19 16 14 14 14 16 18 23 26 27 27 29 34 34 36 40 43 48 52 56 56 57 53 43 37 33 32 33
25 25 24 24 23 17 15 16 18 19 21 22 23 24 23 23 22 24 23 20 16 12 10 14 15 14 13 13 14 17 18 17 21 25 26 28 28 34 39 40 39 40 42 45 49 54 55 56 55 52 42 38 34 32
23 20 18 16 15 14 13 12 11 10 11 15 18 19 22 25 26 24 20 17 13 10 14 16 18 17 14 13 16 20 22 20 20 23 26 33 37 40 43 43 40 43 42 44 48 51 53 53 58 57 50 42 38 34
19 17 16 14 12 11 11 11 13 15 18 23 26 25 24 25 24 20 17 14 13 13 12 13 14 16 18 19 20 21 22 22 22 25 28 32 36 40 43 44 44 44 42 43 44 47 50 51 54 56 57 45 40 36
16 15 12 10 11 14 14 13 15 18 20 25 25 21 23 25 20 17 17 14 14 15 16 17 18 20 22 24 25 26 26 25 27 29 30 35 40 44 44 49 45 43 44 45 47 49 50 50 50 55 55 49 40 35
14 11 10 12 16 18 17 15 16 17 16 19 22 23 23 20 18 16 12 12 15 16 17 20 23 25 25 24 26 28 29 30 32 34 41 45 45 45 46 48 51 52 50 49 50 52 52 52 50 48 50 46 37 34
11 11 13 15 17 18 17 16 14 15 17 19 22 23 22 21 19 16 14 14 16 20 24 26 28 28 27 27 28 30 31 35 37 40 41 43 44 46 51 52 51 52 53 54 53 56 55 53 49 43 45 41 33 31
12 13 13 13 13 14 14 15 13 13 18 22 27 24 20 18 17 17 17 19 21 24 27 28 29 29 30 32 34 35 38 39 41 44 46 45 48 52 54 55 56 56 56 56 56 57 55 51 46 43 42 35 31 29
14 14 14 13 12 12 12 11 13 16 19 22 22 20 17 16 18 20 22 24 26 28 28 27 26 29 33 37 39 41 38 44 47 48 49 50 53 56 56 56 55 56 56 55 54 54 52 47 43 40 36 32 29 28
15 13 12 13 13 13 13 13 14 18 22 22 22 21 21 23 25 27 26 26 24 23 25 26 26 28 31 36 39 44 47 51 53 55 56 58 61 62 60 56 55 54 54 52 52 50 46 42 37 35 34 32 29 28
15 14 12 11 9 8 8 9 11 13 16 19 21 22 24 25 24 22 22 23 24 25 27 31 34 36 39 42 45 48 51 56 58 61 64 64 61 56 52 49 48 47 45 44 43 42 40 38 36 35 33 30 29 27

GFSWCAN_250_spd_099.txt.gz
Wind_Speed
49 50 49 50 46 48 41 37 34 43 49 53 57 58 57 53 54 57 56 54 56 56 53 56 53 48 50 34 28 30 33 29 28 23 17 6 3 13 25 36 47 56 63 69 76 84 83 75 82 86 89 97 100 102
49 48 47 49 51 47 44 39 39 37 38 38 39 45 52 53 53 54 54 54 54 53 55 57 50 46 49 29 27 23 25 29 26 26 20 13 6 1 8 16 27 39 52 61 68 78 82 85 80 80 80 88 96 100
53 56 54 52 50 51 48 41 41 39 36 37 36 38 40 44 50 52 53 52 50 52 53 49 46 45 46 31 24 22 21 21 22 21 23 20 14 9 0 5 12 22 34 47 57 67 76 79 77 77 76 77 84 95
56 54 52 52 50 49 47 45 45 44 41 40 40 41 38 38 43 47 47 46 45 48 49 45 43 45 43 31 17 21 21 15 18 20 18 19 14 13 10 4 3 10 18 31 44 57 69 76 75 75 75 75 75 80
57 53 50 52 55 55 55 54 47 44 44 41 41 39 37 34 35 39 38 39 38 43 47 42 42 42 41 25 16 20 17 16 17 16 14 14 16 14 13 10 8 4 8 17 26 40 52 66 75 77 77 77 77 76
56 57 54 58 55 54 51 51 47 44 42 43 42 40 38 36 36 36 37 38 36 44 47 39 40 44 40 20 21 19 19 18 19 16 15 13 14 14 15 13 8 6 5 5 10 19 31 46 61 71 78 80 78 77
54 54 55 54 52 55 53 50 50 48 47 45 42 43 42 40 40 40 39 39 36 43 43 39 40 43 35 20 23 22 18 18 19 20 18 17 14 15 15 14 11 12 9 8 9 9 12 20 32 47 61 72 79 80
54 52 53 50 51 49 50 48 49 49 50 49 47 46 46 45 43 41 39 40 38 42 41 39 39 38 29 23 24 24 27 26 25 23 20 19 17 18 19 16 13 17 19 18 18 18 19 21 24 28 33 38 47 59
55 54 55 55 55 53 51 51 50 51 51 53 54 53 50 45 44 42 40 37 36 42 42 35 37 34 26 23 28 25 24 23 24 23 22 21 19 20 23 21 18 14 19 23 24 25 26 26 27 30 32 35 38 42
52 51 53 53 50 49 50 52 55 56 58 59 55 51 48 46 44 41 40 30 40 42 36 33 35 31 24 22 24 24 23 22 23 21 21 22 18 23 27 26 20 17 17 21 26 30 31 34 38 40 41 43 45 45
50 48 47 48 49 53 55 60 57 55 52 51 50 49 50 47 43 33 34 33 41 37 32 35 31 26 22 24 24 23 25 23 22 23 22 23 19 24 28 28 20 21 24 27 31 36 41 44 47 49 49 51 51 52
44 45 48 52 56 59 53 50 52 55 54 53 48 41 38 28 24 33 31 38 33 30 32 33 28 23 24 25 24 25 24 21 21 22 20 21 24 27 29 26 23 26 32 36 39 44 48 51 52 55 56 56 55 55
46 50 53 58 53 52 52 56 54 45 32 24 19 18 18 25 35 35 32 32 32 31 34 28 25 23 25 24 22 20 22 21 20 21 22 27 28 30 27 25 29 34 38 42 44 46 49 50 52 54 55 55 55 55
52 55 55 52 52 55 57 45 31 19 18 28 32 29 34 35 25 25 28 27 31 33 28 24 22 22 22 23 21 21 21 19 18 20 24 25 27 28 25 31 33 34 36 39 44 48 49 50 52 52 54 52 49 48
52 55 54 52 56 51 36 24 19 23 25 26 26 24 21 24 26 24 27 30 31 27 22 21 22 21 22 24 21 22 20 17 16 23 25 26 27 25 26 27 29 34 34 35 37 39 39 40 44 44 41 38 38 39
55 55 54 55 44 30 21 18 17 19 20 20 21 21 20 20 22 24 26 26 25 21 20 20 18 19 21 22 22 20 19 16 20 25 26 25 25 27 26 31 32 29 29 27 33 39 38 35 33 31 32 32 33 35
53 54 52 36 27 20 20 19 17 16 18 18 18 17 18 20 21 23 24 23 20 19 21 21 22 23 21 20 19 19 19 21 24 24 23 24 28 25 28 26 27 19 23 28 33 38 38 32 28 27 28 29 30 33
52 43 29 23 22 21 21 20 20 20 20 20 19 19 19 19 22 24 23 19 17 20 24 22 23 25 20 19 19 20 22 25 23 22 23 24 23 20 24 25 23 24 25 26 33 39 43 40 33 29 29 28 30 32
31 24 22 20 21 20 21 20 20 20 20 20 19 19 18 19 23 23 20 16 16 18 23 24 26 21 21 23 23 23 23 21 21 21 19 15 16 20 20 22 23 26 27 28 32 36 41 44 43 39 32 30 30 32
20 20 19 18 16 16 18 19 17 17 17 15 19 20 19 20 22 23 20 16 17 19 24 23 19 20 23 25 24 23 21 20 21 19 16 14 17 18 24 24 25 29 30 33 35 36 40 43 45 45 42 35 34 33
20 18 16 17 16 16 17 19 22 19 17 17 19 20 20 21 23 22 23 20 18 23 20 18 20 23 22 22 21 20 19 21 20 19 15 17 22 24 24 24 31 35 36 38 41 40 40 44 43 46 46 44 39 37
18 16 16 15 16 17 19 20 21 19 18 19 20 20 21 21 23 22 22 20 15 19 19 21 22 20 21 21 19 20 21 20 19 18 18 22 25 22 25 32 36 42 44 42 42 43 41 42 44 46 47 48 44 39
19 17 15 15 16 17 19 19 19 19 20 21 22 22 23 21 22 22 21 17 20 22 22 21 19 20 20 19 20 23 23 22 20 20 22 25 26 24 27 30 34 41 43 46 46 42 43 43 45 49 49 49 48 45
17 17 18 16 17 19 21 18 17 20 21 22 22 22 22 21 21 21 18 20 23 21 18 17 17 17 20 22 24 24 19 19 20 22 24 27 26 23 26 32 34 38 44 45 48 47 47 46 47 49 54 49 49 48
18 16 16 17 18 20 20 17 15 16 18 19 20 21 23 23 23 21 20 22 21 20 17 16 15 18 19 21 21 21 21 22 24 28 28 28 25 27 30 34 39 46 46 48 50 50 50 52 53 52 53 54 46 47
19 18 17 16 16 15 14 13 13 13 13 15 18 20 20 20 21 22 22 22 20 16 13 13 17 19 21 23 25 25 25 25 27 29 32 31 32 34 33 37 42 44 43 46 53 55 54 56 58 57 55 55 49 47
17 16 16 15 13 11 11 10 11 10 13 17 20 22 22 24 23 20 20 17 15 13 13 14 16 17 19 20 21 25 28 31 32 34 36 34 35 38 38 40 44 48 48 49 52 54 58 60 59 59 59 56 53 49
17 16 14 12 12 14 14 13 14 15 19 20 19 19 19 20 20 19 13 17 17 14 14 16 17 19 22 25 30 32 33 35 33 32 35 35 37 39 43 44 47 49 51 51 55 59 62 62 61 59 59 56 53 52
15 13 11 12 15 17 14 13 13 13 15 19 20 17 17 21 23 20 17 16 15 15 16 18 21 24 29 31 33 33 33 32 33 36 38 39 42 44 46 48 52 54 56 58 60 64 66 64 59 57 56 54 54 49
12 12 13 14 16 16 14 13 12 11 12 14 16 20 21 21 21 21 20 19 20 21 23 25 26 28 32 34 36 38 36 35 34 38 42 44 48 49 53 56 58 59 61 64 67 67 62 57 55 53 51 50 45 41
12 12 12 12 13 13 13 13 13 11 11 14 16 21 24 24 21 20 21 22 24 26 28 31 33 36 38 37 38 36 36 36 37 40 43 47 50 52 55 59 61 64 66 65 60 56 53 51 49 47 45 44 43 39
14 13 11 11 13 14 13 12 11 9 10 14 19 23 24 24 24 24 24 26 29 31 34 37 38 40 39 39 38 40 42 44 46 48 50 54 57 59 59 63 63 59 54 49 46 47 46 45 44 43 41 39 37 34
15 13 11 10 9 9 10 10 11 13 15 17 18 20 23 25 26 28 31 34 37 39 40 39 38 39 40 41 43 45 47 50 54 57 60 61 62 58 50 49 47 46 45 44 43 41 39 38 38 37 35 33 31 30

GFSWCAN_250_spd_102.txt.gz
Wind_Speed
51 54 51 48 45 44 40 39 38 42 41 42 42 41 35 32 30 34 41 43 46 45 47 51 49 49 53 49 47 50 40 32 25 25 19 2 18 31 37 30 46 55 66 75 77 82 80 84 78 72 77 84 90 96
49 46 45 40 41 42 44 46 44 41 42 43 41 39 38 35 31 31 31 36 41 44 39 48 45 46 47 47 44 48 36 30 26 18 19 11 5 30 31 32 28 46 60 74 81 76 74 84 80 87 81 86 88 97
48 51 46 43 42 43 44 41 41 43 40 41 39 38 41 40 34 32 33 32 35 43 34 46 39 41 43 45 40 44 25 21 23 19 16 15 11 2 6 13 22 34 48 64 78 80 82 78 74 82 89 88 86 91
48 47 47 48 45 45 44 43 40 42 44 45 45 45 42 38 35 33 32 30 29 33 32 36 32 40 47 42 39 42 21 18 18 17 16 14 15 14 6 3 6 15 28 43 59 72 84 87 86 86 86 86 85 78
48 51 49 44 39 42 45 44 47 47 46 43 44 39 38 36 36 34 32 29 27 28 31 31 29 42 42 41 38 41 20 20 17 17 13 13 12 12 12 12 6 3 9 19 31 45 58 69 81 89 88 91 83 78
54 49 48 45 44 44 45 43 42 48 40 41 44 45 42 40 36 35 32 30 29 30 31 32 31 42 40 39 37 38 23 18 18 21 17 13 16 13 11 12 12 10 5 7 12 20 30 41 52 65 75 81 85 82
50 49 44 44 48 47 46 42 41 42 42 41 42 42 40 39 38 36 34 36 33 32 32 32 31 39 40 38 37 35 22 22 19 18 16 19 17 16 15 13 14 13 11 10 6 8 11 17 27 40 52 63 69 72
47 47 46 47 45 46 44 45 44 44 43 42 43 43 42 40 40 39 41 41 38 34 31 31 32 40 41 39 36 34 22 23 24 23 23 22 19 18 17 17 15 18 16 14 15 15 14 13 14 17 23 34 48 61
44 46 45 45 48 47 47 46 44 45 44 42 44 45 45 44 45 46 45 41 37 34 31 30 35 45 43 37 35 27 25 25 22 22 21 23 21 18 19 18 16 20 20 20 19 19 20 21 22 22 23 25 29 35
46 46 45 46 47 47 47 45 44 41 41 42 44 47 49 50 48 47 44 41 36 35 27 31 36 43 40 35 33 30 25 27 29 26 23 22 20 19 22 18 18 23 21 19 19 22 23 23 26 29 30 33 37 37
42 42 43 44 47 46 43 41 42 44 47 50 52 54 50 46 46 45 44 41 38 35 30 28 39 40 36 34 33 28 26 24 24 24 21 21 20 23 21 21 22 27 23 20 21 22 25 26 31 36 37 41 43 44
42 44 47 48 43 40 40 42 45 49 54 53 47 48 49 50 51 49 47 40 37 24 28 39 39 32 35 33 30 28 25 25 25 23 22 24 20 21 21 24 25 28 20 23 25 29 34 37 40 42 46 48 49 49
43 45 39 36 36 39 42 45 49 53 47 49 52 49 41 35 33 36 36 32 24 24 32 35 32 33 32 31 28 27 24 24 21 21 19 19 20 19 22 23 26 24 26 29 32 34 38 43 47 50 52 55 55 55
42 37 35 36 39 42 45 48 50 47 51 47 33 24 19 23 24 26 22 19 24 33 31 30 30 34 33 30 28 24 21 20 20 18 16 18 18 22 22 26 24 27 27 32 36 37 39 42 47 48 46 44 43 44
40 37 37 39 41 44 46 52 47 50 37 24 21 20 19 22 26 26 23 29 27 27 28 29 31 30 28 25 25 23 22 21 19 13 16 16 21 24 27 24 27 29 34 33 31 32 33 38 41 42 34 32 33 34
39 39 40 42 44 46 49 47 49 32 23 29 31 31 28 32 31 25 24 24 25 26 27 29 26 26 22 20 20 21 23 20 14 17 17 19 22 26 23 27 29 28 25 23 26 28 33 34 36 39 34 28 27 28
39 39 40 44 46 47 45 45 29 22 24 30 28 28 26 24 21 20 21 22 23 24 25 23 22 19 19 19 19 23 20 15 16 19 18 21 24 21 24 23 22 19 22 24 26 31 37 36 36 39 40 41 38 34
40 42 43 45 44 45 40 24 23 24 22 24 25 22 19 19 17 18 20 23 24 23 22 21 19 18 19 22 22 19 18 17 15 22 21 24 21 21 20 16 17 17 21 27 28 31 36 38 39 38 39 42 42 40
43 44 42 40 44 34 22 26 28 24 22 19 17 15 17 17 18 20 23 23 21 18 19 20 17 20 24 23 22 20 18 18 19 24 25 20 18 21 17 18 18 17 23 27 28 32 33 38 39 40 41 42 45 46
37 37 40 37 27 23 26 25 25 25 22 22 21 20 19 19 21 23 22 20 19 15 18 19 19 19 19 24 25 23 21 22 20 23 20 17 22 21 18 18 17 20 23 26 33 36 38 40 43 43 43 45 48 51
37 34 26 21 22 27 27 25 23 20 17 17 18 19 21 21 23 23 22 20 18 14 14 13 13 15 19 23 26 23 24 22 21 20 19 21 21 21 21 23 22 22 24 28 33 39 42 44 44 45 45 49 51 52
24 20 23 26 25 24 24 22 19 17 15 15 17 19 21 23 23 22 23 20 17 17 17 23 22 23 25 26 20 20 21 21 20 19 22 23 22 23 24 26 24 22 24 30 33 38 44 43 43 48 47 51 53 55
22 24 24 21 18 19 17 16 15 14 15 16 20 21 21 21 20 21 23 21 19 21 20 21 26 26 23 21 22 21 23 22 21 23 25 24 23 24 27 28 25 25 28 30 33 41 44 46 44 47 51 55 58 60
24 21 17 14 13 14 14 15 15 15 16 18 20 22 21 21 23 23 21 20 19 21 19 20 19 19 19 21 22 25 24 22 22 23 25 25 26 29 30 32 34 33 35 35 35 38 44 46 48 50 53 58 61 65
18 16 14 12 12 13 15 16 15 12 16 22 23 23 22 23 26 23 19 17 18 18 18 19 20 20 18 20 21 22 22 24 25 27 28 28 29 32 34 34 37 37 39 39 40 44 47 50 51 53 57 60 64 67
15 12 11 11 10 12 15 16 14 12 14 17 20 22 22 20 15 11 14 15 18 15 18 17 15 16 16 17 20 21 22 23 25 27 29 30 33 37 39 40 41 40 41 40 43 47 50 52 55 57 60 63 67 69
12 11 10 10 12 13 13 12 12 12 13 15 18 18 14 8 9 7 6 11 15 15 16 17 16 14 14 17 20 22 21 22 25 29 33 35 39 42 43 44 41 40 42 42 45 50 51 55 58 60 62 66 68 67
11 11 13 14 13 11 11 10 9 10 11 13 16 22 36 31 26 20 13 15 20 19 19 19 17 17 18 20 21 24 26 27 30 34 38 41 44 43 41 40 42 46 47 48 50 53 57 59 60 63 66 68 66 58
16 17 14 11 11 13 13 14 15 17 17 19 22 29 34 30 28 29 34 36 25 21 21 22 20 20 21 23 26 28 31 33 36 39 41 41 41 43 44 44 47 49 49 51 54 58 61 64 65 66 65 61 56 52
16 13 11 13 17 16 14 13 16 18 19 19 19 19 18 21 27 28 25 23 22 22 23 24 24 25 27 29 32 34 35 37 43 45 45 46 46 46 49 49 51 53 54 56 61 64 68 66 65 59 54 52 51 48
9 10 13 17 19 17 15 16 16 14 13 16 19 17 18 23 25 25 27 28 27 27 28 30 29 30 33 36 38 40 43 46 49 48 47 47 46 48 52 54 56 58 61 63 64 65 62 57 55 53 50 47 43 40
19 18 17 16 17 15 12 10 8 8 7 9 13 18 20 22 21 23 27 30 30 30 31 33 35 37 40 42 46 49 50 49 49 49 48 50 51 53 58 61 63 64 62 58 53 51 50 47 46 44 41 38 37 36
13 12 11 12 12 11 10 11 13 14 12 13 15 17 21 24 26 30 30 31 32 34 36 39 41 45 48 50 49 48 49 51 53 54 56 58 60 62 61 59 57 54 53 51 47 45 42 40 38 36 34 34 34 32

GFSWCAN_250_spd_105.txt.gz
Wind_Speed
51 53 51 48 50 45 41 39 41 41 40 39 38 39 38 39 39 36 37 35 33 31 32 37 37 35 30 45 44 45 46 48 47 30 23 20 14 14 22 23 31 42 47 63 65 64 67 73 78 84 85 85 85 84
56 54 51 51 42 43 41 41 41 41 38 40 39 38 37 39 35 34 33 38 36 30 32 34 30 31 30 39 33 43 45 45 42 30 17 15 10 13 10 8 12 33 47 61 64 61 64 67 74 75 76 76 81 85
57 54 50 47 45 42 44 45 47 44 40 41 39 37 39 39 38 39 39 39 34 29 31 30 28 27 28 36 34 40 43 41 40 29 19 13 13 6 12 11 16 18 32 53 66 65 70 75 79 78 77 75 81 80
53 53 50 48 41 42 43 45 45 45 40 37 39 41 43 42 42 40 37 32 30 31 29 28 23 25 29 28 31 41 42 38 38 27 21 14 8 5 4 9 15 20 32 42 61 71 74 75 79 79 80 80 79 82
55 55 53 52 45 42 43 46 47 38 36 39 43 41 38 40 40 35 36 35 32 32 31 28 26 23 28 32 28 37 40 35 34 28 19 18 14 7 2 1 4 7 14 32 50 64 76 79 81 82 84 85 83 85
52 50 45 39 38 39 44 42 39 35 37 42 42 43 39 36 35 36 39 37 35 30 31 27 28 28 27 33 27 35 41 32 31 29 21 20 17 13 10 7 7 1 4 10 23 42 59 69 79 85 85 87 87 86
43 46 41 37 40 44 42 40 37 36 42 43 40 38 38 38 37 37 38 37 34 30 29 28 29 27 33 31 27 34 37 32 31 31 18 20 17 17 15 13 10 10 8 5 11 15 27 41 56 69 77 84 88 87
47 48 44 42 39 40 37 36 39 40 37 39 40 41 39 41 38 37 38 36 36 33 32 31 33 35 36 30 27 38 38 36 30 27 21 19 21 22 19 16 14 10 11 15 12 13 16 20 24 31 39 52 64 74
39 43 45 42 39 38 37 40 42 41 41 40 40 40 39 38 35 37 37 36 37 36 36 35 38 34 33 29 29 36 38 30 28 28 22 21 21 21 22 19 15 13 11 15 18 19 17 22 24 26 26 28 33 40
37 40 42 43 41 39 39 39 41 41 42 43 41 38 38 37 37 38 39 40 41 40 39 37 36 36 33 23 37 38 35 27 29 25 21 23 26 25 24 19 17 17 17 19 20 16 18 19 23 25 28 32 34 37
37 39 39 40 40 39 38 39 40 42 42 42 40 41 41 42 45 45 47 46 43 39 37 39 35 38 29 25 36 35 32 26 27 24 20 25 25 23 22 18 19 18 18 20 22 15 17 20 24 27 31 35 38 42
39 40 39 38 38 37 37 41 43 44 40 38 41 44 46 50 50 44 42 41 40 40 41 37 36 38 34 26 37 32 27 27 28 24 22 25 24 23 16 19 19 19 20 22 22 21 22 24 27 30 34 37 39 43
39 38 37 37 37 38 40 44 39 35 36 40 44 49 51 49 50 51 50 50 50 46 42 41 37 32 23 32 37 30 27 30 27 23 24 20 19 15 16 16 15 18 23 22 23 23 26 27 29 29 33 37 40 42
38 36 38 38 38 41 41 36 35 36 38 41 47 50 49 51 42 34 29 28 32 36 35 30 28 24 30 27 26 26 28 25 22 24 21 18 17 14 14 16 18 24 21 24 24 24 22 20 21 27 30 32 32 31
39 39 39 39 39 39 35 35 36 36 40 45 48 48 44 29 19 15 16 21 23 28 29 27 24 27 23 24 25 27 27 24 24 22 19 18 15 14 14 17 24 21 23 23 20 16 15 18 21 26 30 33 34 28
40 39 40 40 39 35 34 36 36 39 42 45 44 36 17 14 18 22 25 23 20 22 22 24 25 26 24 24 27 28 27 23 21 23 18 17 17 13 14 19 19 20 17 12 12 14 17 23 23 26 29 33 35 38
42 42 42 38 35 35 36 37 38 41 43 42 31 24 22 21 25 23 24 26 18 21 22 23 23 23 23 23 25 25 23 18 18 19 16 19 17 15 17 18 18 16 11 12 16 18 19 21 27 31 35 37 38 39
39 38 36 35 34 35 36 38 38 42 40 30 24 27 28 26 22 26 26 23 22 23 23 23 19 18 18 21 21 18 13 15 19 22 19 21 13 13 19 20 17 15 15 15 17 16 20 25 32 35 35 38 40 38
34 33 32 34 35 36 37 40 38 39 29 23 28 25 23 22 25 24 24 20 19 19 20 16 17 16 20 19 20 16 18 18 18 17 17 15 15 20 26 22 22 18 14 16 17 19 22 25 28 35 34 35 37 42
35 34 34 35 35 37 38 36 35 25 24 26 26 25 24 24 23 20 18 18 18 18 17 17 16 18 18 22 21 18 16 11 12 21 21 19 24 30 26 22 24 19 18 21 18 21 26 26 32 34 35 38 41 46
34 33 32 33 34 31 35 29 22 26 28 27 25 23 20 22 19 17 18 17 18 19 16 14 15 11 11 22 20 14 20 25 33 31 23 22 29 28 23 22 22 22 23 24 23 24 31 31 35 41 38 40 45 48
28 29 30 30 33 29 22 21 26 32 31 25 22 22 22 22 22 21 20 17 16 17 16 14 11 11 13 17 16 13 14 17 18 21 21 23 27 25 23 22 24 24 26 30 30 33 34 37 39 41 47 48 51 53
25 26 30 27 23 22 25 28 29 28 26 23 22 22 21 21 22 20 17 18 20 19 16 16 14 15 18 19 19 15 23 23 21 21 25 26 25 25 24 24 25 27 29 34 37 39 42 41 41 42 47 49 53 56
27 22 19 25 27 27 28 28 28 26 24 20 20 21 19 19 18 18 18 18 20 19 18 18 18 17 20 24 22 21 22 21 22 26 30 26 25 27 28 27 26 30 34 37 41 43 45 46 43 42 47 49 52 55
22 26 29 28 29 27 27 26 24 22 21 20 18 17 17 17 18 17 17 16 17 20 23 23 19 18 17 18 20 18 18 22 28 29 28 25 27 29 31 32 32 36 40 44 46 47 47 47 46 46 47 51 54 58
31 29 25 24 23 24 23 21 19 18 16 19 20 19 20 22 20 16 17 17 15 16 17 18 18 20 18 16 15 23 23 22 22 24 25 24 26 27 30 33 37 40 44 49 50 48 46 47 50 51 52 54 55 56
25 23 22 21 19 19 18 17 16 15 15 19 21 23 21 16 13 12 9 3 8 9 13 12 14 16 17 17 17 17 17 18 20 21 21 23 27 31 34 38 41 46 51 50 47 46 47 48 50 52 54 55 59 63
21 20 18 16 15 15 14 13 15 15 16 19 20 18 15 15 18 21 24 15 14 11 13 14 15 18 19 19 17 16 18 21 23 25 27 31 33 36 40 43 47 49 49 51 50 50 50 52 54 56 58 60 63 66
17 16 16 16 16 14 13 13 13 15 18 21 29 34 31 19 17 22 23 23 16 16 10 11 16 20 21 23 22 23 23 23 26 30 33 36 38 43 47 50 52 54 53 53 52 52 54 56 58 61 65 65 64 61
19 18 16 15 14 16 16 17 18 22 29 35 33 28 8 13 19 24 25 23 26 19 16 22 28 28 28 28 28 29 30 33 36 38 40 41 44 49 52 53 55 57 56 54 55 58 60 62 63 65 65 60 57 55
14 11 12 16 19 21 21 22 22 24 32 39 35 29 26 20 21 25 26 27 28 28 30 33 35 34 34 35 36 37 40 42 44 47 49 50 52 56 56 54 55 56 58 60 63 64 66 67 66 62 58 54 50 47
14 16 19 21 22 23 22 19 19 22 24 25 28 29 34 31 31 35 35 34 36 38 38 39 41 40 39 40 41 43 45 49 52 54 58 59 58 57 57 59 61 62 62 63 65 65 63 60 57 53 49 45 40 37
17 20 22 20 19 18 17 18 19 19 20 22 25 29 33 35 35 33 31 29 29 30 32 34 36 39 43 46 48 51 53 57 59 59 59 60 61 62 63 63 61 60 58 57 55 54 53 51 46 42 38 38 37 35

GFSWCAN_250_spd_108.txt.gz
Wind_Speed
50 49 48 48 52 52 48 48 46 42 41 39 37 37 40 38 35 34 37 36 37 33 32 32 32 29 30 31 28 24 33 42 42 46 48 49 31 21 5 5 12 32 56 63 71 73 69 73 74 85 86 88 94 97
42 45 46 47 48 50 53 50 46 44 44 43 41 38 43 40 41 36 37 41 38 34 38 36 32 29 29 28 24 25 33 33 36 41 41 42 29 23 6 8 10 19 32 45 69 73 72 66 70 74 84 91 91 90
41 43 45 49 51 52 53 54 51 49 46 45 42 45 44 43 39 38 39 43 38 37 37 32 28 27 28 25 25 21 26 26 37 40 39 36 30 20 13 1 8 11 23 42 56 65 67 69 71 71 75 79 84 91
38 39 41 45 48 49 50 49 47 44 39 38 44 45 42 37 36 37 42 40 38 39 34 29 26 29 28 26 21 20 32 29 32 40 32 30 26 19 17 14 6 5 18 33 40 48 60 70 73 73 76 76 76 82
40 42 43 40 44 46 45 48 45 40 41 41 42 44 39 34 37 38 37 36 39 36 29 27 28 29 28 24 26 26 25 30 28 35 28 27 26 20 11 5 8 7 12 25 40 44 51 65 70 73 72 73 78 80
49 46 42 46 49 48 48 49 49 46 39 41 44 38 34 35 38 37 36 36 37 31 29 29 30 26 27 26 29 28 27 24 24 32 28 27 26 17 14 10 8 4 7 11 23 37 51 65 67 68 70 73 74 77
54 49 46 46 41 39 44 42 46 40 39 41 38 34 36 37 38 38 35 36 35 33 30 31 30 28 28 29 30 31 28 20 30 29 29 27 23 18 14 12 11 9 5 5 8 16 29 49 70 70 70 70 70 70
51 51 44 44 40 41 35 35 35 36 37 38 35 34 37 36 37 34 34 34 33 31 30 33 33 32 31 31 30 29 24 26 24 30 25 27 24 19 20 20 19 14 11 8 4 9 18 25 37 53 69 74 72 71
38 44 45 40 41 41 40 41 37 38 37 37 34 35 38 38 34 34 34 31 31 30 31 34 35 32 33 33 31 29 28 25 25 26 28 25 22 24 22 20 18 15 13 14 10 7 11 21 24 27 35 46 60 72
33 36 42 42 40 37 41 45 42 39 36 35 36 37 38 37 37 37 33 30 30 29 32 33 33 32 35 34 32 30 29 25 26 29 26 24 23 22 22 22 19 16 17 17 18 15 16 15 23 29 34 36 39 45
30 32 35 35 35 36 40 43 40 40 37 40 39 39 39 39 38 36 36 36 35 38 39 40 38 40 41 38 31 30 31 24 28 31 25 23 21 24 24 20 16 18 16 16 17 18 17 17 18 19 23 27 31 36
31 33 33 33 34 38 38 38 39 39 39 37 40 40 40 41 38 38 40 42 43 46 47 41 39 39 39 33 31 33 33 23 29 25 20 24 28 23 25 21 16 17 17 15 17 18 19 19 19 21 24 27 31 33
34 35 35 34 34 35 35 35 38 39 38 38 42 43 42 37 38 42 46 50 49 45 44 38 37 38 35 33 34 31 27 25 27 26 27 26 20 22 20 19 18 15 14 14 16 17 19 20 22 24 24 25 24 25
36 36 37 35 34 36 36 37 37 37 38 39 42 40 36 36 40 47 50 49 50 43 39 43 46 39 36 36 34 34 23 25 26 26 26 22 21 19 19 17 16 12 12 19 19 18 19 19 17 11 14 15 18 17
37 37 36 36 34 34 36 37 36 36 38 41 36 35 35 40 44 47 49 36 24 19 23 31 39 42 38 34 29 22 24 27 28 28 21 19 13 16 18 14 12 12 17 19 17 16 14 10 8 11 13 12 16 19
37 37 36 35 35 35 36 36 35 34 35 32 32 34 37 40 42 34 20 15 15 16 21 25 27 26 28 22 21 25 28 25 21 21 21 16 16 19 18 13 14 16 17 17 14 16 14 10 6 9 15 18 20 21
36 38 37 36 36 37 36 36 34 32 31 30 32 36 35 36 22 14 14 17 23 24 21 25 24 24 19 20 23 25 20 20 24 22 16 17 17 18 16 14 16 15 15 14 17 17 9 6 9 13 16 17 20 22
39 39 37 36 35 35 35 35 33 30 29 32 33 33 34 21 16 14 18 17 20 22 20 20 20 22 23 23 20 17 19 23 20 15 16 16 20 20 17 16 13 13 15 16 15 13 12 12 15 20 22 25 25 28
39 40 40 37 36 35 32 29 27 29 31 33 33 33 19 23 21 25 25 19 20 23 22 20 21 22 22 21 17 16 18 16 13 12 15 19 21 22 21 16 16 19 18 17 17 17 18 19 23 25 24 31 34 36
34 35 37 38 35 30 27 27 29 31 32 31 30 21 21 27 26 27 22 22 24 23 19 17 19 21 22 17 16 15 18 18 21 19 15 16 20 16 20 19 21 24 20 18 20 21 22 26 32 34 32 37 42 42
30 30 29 29 28 28 28 28 30 29 26 28 20 23 28 22 19 22 25 24 21 19 16 14 16 14 13 17 17 19 19 20 17 17 15 20 21 23 22 21 26 26 23 22 23 23 26 27 29 33 36 39 41 43
28 30 29 28 28 29 29 28 25 28 23 20 21 22 24 25 24 24 23 20 18 15 12 14 14 11 18 21 17 24 29 30 25 20 16 17 18 24 28 28 30 27 25 25 25 28 32 32 34 38 43 43 45 47
21 25 26 26 26 26 24 26 26 19 21 24 25 24 23 22 24 25 20 19 18 14 13 13 12 14 15 13 16 24 26 31 36 33 27 20 21 25 26 29 30 29 30 31 32 34 36 36 40 43 46 50 50 50
19 20 20 21 21 25 25 19 21 21 26 29 26 23 23 22 23 24 21 18 15 14 15 17 14 12 13 14 18 19 19 19 21 24 26 25 24 24 30 32 33 33 35 36 36 39 39 39 40 47 50 51 50 50
17 17 19 23 22 20 23 25 26 26 27 27 24 23 23 23 21 19 18 17 16 17 18 18 17 17 17 18 19 19 22 22 21 24 27 26 24 27 33 34 33 35 36 37 39 41 44 43 46 48 49 50 51 48
18 17 17 18 21 23 24 25 27 26 25 25 24 21 21 21 19 19 20 19 19 18 19 19 20 21 22 22 19 17 18 20 20 21 26 29 29 30 32 32 31 32 33 35 36 40 45 50 52 51 53 55 53 50
16 21 23 24 25 25 26 26 26 25 25 24 22 20 19 18 17 17 18 19 18 18 18 18 18 17 18 19 21 19 20 19 21 25 27 26 24 28 28 28 29 31 35 39 40 45 50 51 53 54 56 54 52 54
28 26 24 23 23 23 23 24 22 23 20 19 20 19 19 18 17 15 17 18 17 17 13 11 15 18 18 20 21 19 19 22 23 23 24 24 18 18 35 41 39 40 41 45 49 50 52 56 56 59 58 55 57 59
25 24 23 22 22 21 20 19 18 17 16 17 17 18 19 21 22 21 23 23 19 14 13 15 14 14 13 15 17 19 21 25 28 29 29 29 30 33 38 42 45 46 48 50 54 58 56 58 57 57 58 60 63 64
22 20 19 18 18 18 15 13 13 15 19 21 21 22 21 19 19 19 21 23 24 23 16 13 17 17 19 22 25 27 28 29 31 34 36 38 40 43 44 46 49 52 55 57 57 59 61 63 64 65 65 67 67 66
21 20 17 16 16 18 16 17 22 28 32 31 22 18 17 16 21 21 18 19 21 28 25 24 28 31 34 36 38 40 42 43 44 45 47 49 49 51 53 54 56 59 62 64 63 62 63 65 66 66 66 64 62 61
18 18 20 20 21 22 22 27 36 42 38 24 28 27 27 26 22 22 24 25 27 29 32 35 36 40 43 44 43 42 42 43 45 47 50 55 57 60 62 62 63 63 64 65 66 66 66 65 63 61 60 57 55 53
16 20 19 18 20 24 25 24 23 30 33 29 29 31 29 29 29 29 29 31 32 33 36 40 43 41 40 40 41 42 45 47 50 51 54 56 58 59 59 59 57 57 57 56 55 54 52 52 51 50 49 47 45 44

GFSWCAN_250_spd_111.txt.gz
Wind_Speed
38 34 34 37 40 41 46 48 51 53 52 47 49 45 44 41 40 40 42 42 39 39 34 37 38 37 35 37 34 30 33 31 29 28 31 35 39 43 26 10 24 38 49 50 53 57 55 65 76 82 83 86 91 94
40 37 35 34 34 37 40 44 46 50 50 45 47 44 42 42 40 39 41 39 41 39 36 40 38 36 35 33 27 29 31 30 21 25 30 33 36 38 25 19 13 27 40 54 56 57 61 61 69 76 83 85 89 91
39 38 37 35 33 35 39 41 42 44 43 43 45 45 43 41 43 41 43 44 46 42 34 40 37 38 36 31 29 30 27 19 24 27 29 31 33 37 32 12 14 17 19 36 51 57 60 63 64 68 76 85 87 89
38 38 37 36 36 33 36 40 40 42 43 41 44 45 47 46 42 44 43 38 37 34 34 38 34 36 33 28 30 30 25 26 29 27 26 26 29 33 31 22 13 10 12 16 27 40 55 62 65 66 68 75 80 87
38 38 40 39 38 36 35 39 44 43 43 45 44 44 40 37 36 36 38 39 37 34 35 31 35 37 30 28 29 26 26 27 28 27 24 24 27 27 24 20 18 16 10 9 15 28 40 48 59 64 68 65 76 79
41 40 41 42 43 42 40 38 41 46 43 41 43 39 38 41 38 37 40 38 34 35 34 35 36 32 29 28 28 26 26 25 27 30 21 21 20 21 24 19 14 16 17 12 10 17 25 33 40 52 67 69 69 70
44 43 45 49 49 46 43 42 42 42 41 41 41 41 38 35 36 37 35 35 36 37 36 34 36 31 30 28 30 29 26 24 26 24 26 22 22 21 21 18 16 12 15 17 15 11 16 26 33 40 47 63 73 71
45 47 50 52 49 46 46 43 40 36 43 47 46 45 40 36 37 36 34 34 35 33 34 34 34 32 31 32 32 31 28 26 27 26 27 23 23 22 21 18 18 18 21 15 16 12 11 13 25 35 41 51 61 72
47 48 47 43 37 37 41 41 42 41 38 35 37 40 38 35 35 35 33 34 33 32 34 33 33 32 30 32 33 32 31 28 27 27 25 25 23 20 19 20 21 18 15 17 17 16 11 11 14 19 32 45 53 60
46 46 41 33 31 32 37 39 41 37 35 38 33 36 35 36 35 33 33 33 36 35 33 32 31 30 31 33 34 32 32 30 30 28 26 28 24 24 20 21 21 19 19 20 20 20 23 18 12 13 21 28 36 48
45 40 31 28 28 33 38 38 34 35 38 40 33 35 34 33 33 36 37 37 37 36 35 33 33 31 30 31 31 31 33 34 34 28 30 29 27 23 17 19 22 20 19 21 20 19 22 23 20 14 15 20 26 29
38 31 26 25 28 32 34 34 33 33 40 37 39 35 34 35 35 38 39 37 39 39 39 35 36 38 38 37 37 37 37 38 35 30 29 30 30 23 22 21 20 23 20 20 19 16 20 21 21 21 20 21 24 28
32 26 25 28 29 30 31 31 30 32 33 36 35 36 38 38 39 40 41 42 44 41 42 42 43 44 46 46 43 39 36 33 32 28 33 36 21 22 25 22 22 23 23 19 16 16 17 18 21 24 24 25 27 29
26 26 29 32 31 29 27 26 29 33 33 35 36 37 38 38 39 41 44 43 39 43 46 50 53 55 54 48 44 39 35 33 30 36 36 23 21 26 24 21 20 21 19 17 14 16 17 19 21 21 22 22 21 22
25 28 33 34 32 29 28 28 29 29 29 30 33 36 35 36 38 41 38 38 42 50 53 54 52 49 47 44 42 38 35 31 36 37 29 22 26 25 23 23 22 20 18 15 15 19 18 16 16 17 18 18 18 19
26 31 35 35 35 32 32 32 31 31 31 30 30 30 34 36 38 36 35 39 48 47 38 29 27 25 30 40 40 36 35 36 35 30 23 27 27 24 25 24 24 19 17 17 18 18 15 15 18 19 16 17 17 17
29 35 37 35 34 34 34 33 31 29 29 29 30 32 34 32 31 32 37 39 30 21 12 13 17 22 30 33 33 33 30 30 26 25 26 25 25 26 21 26 21 17 16 16 17 13 14 19 18 15 14 17 18 20
33 37 37 37 35 33 30 31 31 30 29 32 31 29 27 28 28 32 30 19 14 15 11 12 18 18 21 24 30 27 24 23 25 27 26 24 25 25 27 22 21 16 11 11 13 14 17 17 17 16 15 20 23 28
35 36 36 35 35 33 32 31 31 30 31 30 29 27 28 27 28 26 18 10 12 12 13 18 22 22 26 26 24 22 23 26 24 23 25 25 22 23 18 18 19 19 18 14 14 17 18 17 19 22 23 26 31 34
35 39 37 36 34 34 34 34 31 29 28 25 24 26 28 27 24 21 18 17 15 14 15 18 21 18 18 19 20 21 22 23 24 25 25 26 20 17 16 18 22 25 22 19 18 21 22 21 22 23 24 25 29 33
33 36 38 36 34 34 35 30 28 26 24 23 25 27 26 21 20 24 26 24 20 14 13 18 17 15 17 19 21 23 22 22 23 25 24 23 18 17 18 18 18 22 23 23 24 26 26 24 24 27 29 30 35 39
29 30 31 33 34 34 32 30 29 25 23 25 25 24 21 18 24 25 24 24 20 18 17 17 15 15 17 20 19 19 19 19 22 24 28 29 26 23 25 24 23 22 24 25 28 30 31 29 30 34 34 36 40 39
25 27 27 27 26 26 26 24 23 24 26 23 23 17 23 25 24 22 21 20 20 21 21 18 18 20 17 14 14 14 17 24 25 28 26 32 23 16 17 21 23 24 24 25 29 31 33 34 35 36 38 41 44 44
18 20 24 26 25 24 24 24 24 22 23 20 18 22 23 23 24 21 22 21 20 20 20 20 19 16 15 14 13 12 17 21 27 33 34 34 39 34 31 28 28 29 26 29 32 33 33 36 39 41 43 45 46 46
14 15 18 19 19 19 19 19 21 20 18 21 22 21 19 19 20 20 21 22 20 20 20 18 18 18 16 15 18 19 20 25 27 25 27 28 32 32 32 32 32 32 33 35 35 35 37 39 38 39 42 46 48 49
14 15 13 11 14 18 19 15 15 19 22 24 23 21 20 19 20 19 20 21 20 20 20 20 21 21 23 23 22 21 20 22 27 32 27 26 27 27 28 30 31 34 36 37 36 36 37 38 41 43 48 51 53 55
13 10 11 11 12 13 16 18 20 18 18 20 20 18 17 17 18 19 19 19 19 18 18 19 19 21 23 23 22 21 21 21 23 25 27 28 25 29 31 32 33 34 35 35 35 36 38 42 45 47 50 55 58 60
11 9 12 15 17 18 17 17 18 18 17 15 15 15 14 17 18 17 16 17 17 20 21 21 21 19 19 17 16 16 17 18 20 23 25 27 30 30 31 32 34 38 39 40 43 46 49 54 57 56 58 60 62 64
12 16 17 16 16 16 16 15 15 15 15 15 18 19 20 19 18 19 19 17 20 20 21 21 21 15 13 12 15 15 16 17 19 21 24 28 30 33 34 36 37 39 42 47 52 57 59 63 64 59 63 66 66 65
17 17 16 17 18 19 19 18 18 16 15 14 16 20 22 22 21 20 19 19 20 20 21 20 19 17 18 20 21 23 23 25 27 28 32 36 38 41 43 44 46 49 51 53 54 62 60 63 67 73 71 74 72 69
17 17 16 15 15 16 17 17 16 16 17 18 19 20 19 19 18 17 16 14 13 15 19 23 25 26 25 23 25 27 32 36 39 40 42 44 45 47 49 51 53 53 56 59 59 63 66 68 69 70 70 70 71 68
15 15 15 16 15 15 13 15 21 25 25 24 25 25 25 24 19 20 19 20 21 22 23 25 26 28 30 34 38 41 45 48 50 49 48 48 49 51 52 54 56 56 56 59 60 61 61 61 61 61 60 58 58 57
14 16 18 17 15 13 16 23 21 27 26 24 22 20 18 16 17 19 20 22 24 26 29 34 38 40 42 44 46 46 46 48 50 51 52 51 50 49 48 48 48 48 47 46 46 47 47 47 47 48 47 47 46 46

GFSWCAN_250_spd_114.txt.gz
Wind_Speed
41 38 38 38 38 37 35 32 33 37 39 44 47 50 51 53 50 49 44 43 44 41 37 35 40 38 35 37 39 37 34 33 31 31 32 28 32 32 34 41 32 17 16 31 37 42 42 47 59 75 79 84 85 84
41 40 37 37 37 37 36 35 31 31 33 38 44 47 49 50 49 46 46 43 42 40 36 33 37 36 39 38 38 36 35 34 32 28 28 30 31 29 31 37 35 17 10 26 39 40 47 45 52 68 82 81 84 85
41 41 37 36 36 36 35 34 30 29 30 32 38 43 44 48 47 44 45 40 40 39 37 40 38 37 36 33 33 32 33 31 28 29 27 29 29 27 29 32 35 19 10 10 27 42 45 52 51 55 70 80 81 82
42 42 38 37 37 36 37 34 32 29 29 33 34 36 39 41 41 40 43 42 40 37 40 37 36 32 30 33 31 32 33 28 28 28 26 25 27 26 26 27 30 22 14 10 10 26 46 50 56 54 57 69 78 82
44 43 41 39 38 37 37 37 35 31 28 30 32 33 32 33 35 42 39 39 39 37 40 37 38 33 33 31 32 33 29 25 25 25 25 24 26 26 23 24 26 26 13 11 9 10 24 46 55 60 58 58 63 78
44 45 44 41 38 40 39 39 38 37 34 33 35 35 38 37 40 39 39 37 35 34 31 34 37 33 33 31 32 34 26 25 27 24 23 24 27 25 23 23 24 24 14 12 10 9 11 19 35 53 57 64 59 63
46 46 43 42 39 39 39 41 42 40 41 38 38 39 39 38 37 38 35 32 34 36 34 35 34 33 33 33 33 30 27 25 26 24 23 23 25 24 22 22 23 24 18 13 15 10 9 10 20 30 47 59 61 66
45 45 43 41 40 41 42 45 48 47 43 44 39 39 39 38 36 35 35 34 33 33 33 34 35 33 30 30 32 31 29 24 25 24 24 24 25 25 24 22 22 23 21 17 13 11 9 7 12 23 28 38 50 61
43 43 42 40 41 43 45 45 43 41 42 42 39 40 39 40 38 36 33 32 35 33 35 33 32 29 29 31 31 31 27 26 26 26 26 25 23 26 24 23 23 23 23 22 16 12 10 10 7 10 19 30 34 43
41 41 39 39 39 42 42 36 32 33 39 40 38 35 38 44 43 39 37 35 35 35 36 33 32 30 31 30 27 28 26 25 26 27 27 27 27 27 25 26 23 23 24 24 22 20 14 13 14 12 11 17 23 31
38 38 38 39 39 39 34 28 27 32 40 39 40 40 36 34 33 34 35 34 34 35 35 34 33 33 33 29 27 26 26 25 25 26 28 31 34 31 26 27 26 24 25 24 25 24 20 19 19 16 17 14 15 22
35 35 36 36 37 34 27 25 29 34 36 36 34 33 34 32 32 34 32 32 34 37 38 36 35 35 34 32 33 31 29 28 28 29 28 34 41 31 24 24 23 26 26 23 24 24 19 23 19 18 19 20 18 19
33 33 34 33 32 26 23 26 31 33 34 32 33 35 36 34 31 31 29 32 36 38 39 38 38 38 40 40 38 37 35 34 32 30 31 41 37 29 23 22 26 27 26 25 23 25 22 25 18 18 19 21 22 20
33 32 30 29 25 23 24 27 31 33 33 31 30 34 31 31 31 34 35 36 37 38 38 40 43 45 43 44 42 41 39 37 34 36 43 39 27 23 24 29 28 27 28 26 24 24 26 21 18 20 19 21 22 22
34 30 28 25 23 25 27 28 30 30 27 27 27 29 28 29 31 32 33 35 36 41 43 44 45 44 46 48 50 48 47 45 45 51 41 34 29 29 32 32 28 29 30 28 25 25 25 19 20 19 19 20 18 19
32 27 25 24 26 29 30 29 28 26 28 28 28 28 29 30 31 33 35 36 38 40 44 44 44 48 54 57 60 60 57 57 54 50 37 31 29 33 33 29 28 29 28 25 25 24 22 19 21 21 19 19 21 21
30 27 26 27 28 33 33 31 29 27 25 23 23 25 25 27 30 31 34 37 37 36 36 44 46 40 36 36 35 36 41 47 46 36 30 28 32 34 29 28 28 28 25 23 22 20 18 19 20 20 19 21 23 20
31 28 27 29 32 38 36 33 30 27 25 26 25 25 27 29 29 31 33 31 29 32 33 26 21 16 13 15 17 25 31 32 28 26 30 35 34 27 29 31 27 27 26 24 20 18 16 17 19 16 17 19 21 22
32 30 31 33 34 36 37 32 29 28 28 26 25 26 27 29 30 30 26 25 27 23 16 13 10 10 12 15 20 21 23 24 28 32 33 32 27 28 30 28 27 26 27 24 20 17 15 15 15 16 17 19 22 25
32 32 33 36 38 36 33 32 29 28 27 26 26 27 27 28 27 24 22 21 16 11 9 7 6 5 8 12 16 19 22 23 23 23 24 26 29 30 30 30 24 26 29 27 26 23 21 20 18 19 22 25 26 27
34 33 36 37 38 38 34 31 29 28 27 26 26 26 24 24 21 21 18 18 18 11 6 9 13 16 16 16 19 19 20 20 21 25 27 29 30 28 28 26 27 30 30 29 28 27 26 25 24 26 27 28 29 32
33 34 36 35 34 35 35 33 31 28 25 25 24 22 23 22 21 19 17 21 19 19 15 15 16 17 17 16 19 20 21 22 23 25 27 28 29 28 28 31 28 25 26 27 27 28 28 26 25 27 30 32 34 37
31 32 36 35 35 33 32 30 27 26 26 24 22 22 22 22 19 17 21 22 23 18 16 16 17 15 15 14 14 16 19 21 23 26 26 28 31 31 28 26 24 27 27 27 29 30 28 26 28 30 33 35 37 39
29 30 32 32 31 29 28 27 26 22 20 21 21 21 21 19 17 24 23 21 18 16 16 18 18 18 15 14 16 17 19 17 18 23 27 30 29 31 31 31 25 22 21 24 27 31 31 30 31 34 35 37 39 40
26 26 25 26 26 24 22 21 20 20 20 19 20 19 16 18 23 23 20 16 17 15 17 18 20 21 18 17 16 15 13 12 12 14 24 32 31 31 32 31 32 36 41 42 39 36 35 36 37 38 39 40 41 42
21 21 21 21 21 20 19 19 19 18 19 16 15 18 19 17 17 15 14 16 17 17 16 17 21 22 20 19 19 16 16 18 19 20 21 23 26 28 29 31 33 35 36 37 37 36 37 39 39 40 42 42 43 44
19 18 17 14 13 14 16 17 18 15 16 21 21 18 15 13 13 14 15 15 16 17 19 21 22 22 21 20 22 24 25 27 28 28 27 25 25 26 28 32 33 34 35 37 40 42 42 41 41 43 45 48 51 54
13 9 8 11 14 16 17 20 21 22 22 21 19 15 14 13 14 14 14 15 16 18 19 20 20 18 19 20 23 24 24 22 22 24 23 24 24 25 25 27 31 36 37 37 38 41 44 47 48 49 50 53 59 60
4 5 10 16 19 20 21 21 21 20 18 18 17 16 15 13 13 14 15 15 17 16 14 15 17 18 18 19 18 19 22 21 20 20 21 21 21 22 25 30 32 34 37 40 42 45 48 51 53 54 56 58 64 67
14 17 17 18 19 18 17 16 15 13 13 13 14 15 16 16 14 14 13 12 13 14 14 14 16 17 20 23 21 22 23 23 24 25 27 30 32 34 36 39 41 44 47 49 51 52 55 56 56 57 60 63 71 73
12 12 12 12 11 11 13 14 14 15 16 15 15 15 16 17 16 15 15 16 17 18 20 21 19 19 20 20 20 21 21 26 30 33 36 39 43 46 47 47 49 50 51 53 54 55 57 58 59 59 60 67 73 79
11 10 10 13 13 14 15 15 16 17 16 16 17 19 18 15 14 16 16 16 18 18 18 18 20 24 28 30 32 35 36 35 36 38 39 41 44 47 49 51 51 52 54 55 56 55 55 55 55 56 57 60 64 67
12 11 10 10 10 9 13 17 17 13 13 12 12 13 13 12 11 10 12 15 18 20 22 25 30 34 37 39 40 41 42 44 45 45 45 44 43 42 42 42 43 44 45 45 46 46 46 45 46 47 47 49 50 51

GFSWCAN_250_spd_117.txt.gz
Wind_Speed
52 47 46 42 39 37 35 35 34 35 34 32 31 35 39 40 43 45 48 49 51 51 44 39 37 40 37 37 36 35 34 34 34 36 36 30 29 29 27 31 33 41 36 17 13 28 35 35 40 47 56 63 70 85
51 47 46 43 40 38 34 34 35 33 33 32 30 31 33 35 38 42 45 46 47 47 42 40 38 39 38 36 31 31 33 34 31 33 31 29 27 26 25 28 28 34 36 21 9 27 35 36 39 45 54 59 67 80
48 47 45 44 41 40 36 34 34 32 31 31 28 28 29 29 31 37 41 42 44 44 40 42 39 38 38 36 33 34 30 29 31 31 32 29 25 22 21 25 24 28 32 20 11 16 31 38 34 38 47 56 61 71
46 47 46 44 41 40 37 35 35 33 32 32 30 26 28 28 32 36 38 38 39 40 38 38 37 38 39 36 35 29 28 30 29 30 29 27 24 19 21 24 22 24 29 24 13 9 23 35 41 39 41 52 59 68
47 46 46 45 41 40 39 36 36 34 32 33 32 27 26 28 27 30 33 33 35 40 38 37 39 36 35 37 34 32 31 27 31 30 27 24 22 18 20 21 19 19 24 26 12 7 6 25 41 47 43 44 52 63
46 45 44 45 42 41 40 38 36 35 34 33 34 30 27 29 31 30 31 32 32 30 33 39 36 33 34 35 33 30 29 29 29 28 26 24 21 18 16 19 18 16 18 24 19 10 7 8 25 44 49 49 47 51
44 45 46 45 43 40 39 37 36 36 35 35 34 35 32 30 30 30 27 30 29 32 35 35 31 31 34 30 31 29 29 30 29 29 28 25 20 20 18 18 16 16 16 21 22 15 10 6 8 20 41 50 53 52
45 45 44 41 40 40 37 37 35 37 35 35 36 37 38 36 36 33 30 31 32 32 31 33 35 34 30 31 31 30 29 27 27 28 26 22 20 21 20 20 17 16 15 19 22 20 15 8 6 6 18 33 50 54
43 43 42 40 39 38 35 34 35 38 39 39 41 42 42 42 38 35 34 34 31 30 30 31 32 29 30 29 29 28 26 24 23 27 25 21 22 24 20 21 20 17 16 16 19 20 16 14 12 8 4 12 25 43
40 38 37 37 37 35 33 33 35 36 37 39 37 37 45 45 39 39 35 35 34 34 32 29 27 30 30 29 28 27 25 24 23 24 24 24 26 28 24 22 21 21 18 18 17 20 17 13 13 15 10 7 8 18
34 33 33 34 33 31 31 32 35 35 36 31 29 33 42 43 39 43 39 36 35 33 33 31 30 30 29 30 31 26 25 23 23 23 23 26 32 31 26 24 22 23 21 21 19 20 20 16 13 17 14 15 15 14
31 30 30 30 30 29 29 32 32 32 27 25 27 35 40 41 38 42 42 40 38 35 34 33 30 29 30 32 31 29 28 24 24 26 22 26 36 28 23 24 24 22 22 24 20 19 21 19 17 14 15 16 17 19
30 29 29 29 28 27 29 30 28 24 21 24 31 37 38 38 34 31 31 32 31 31 33 32 30 32 34 33 32 31 28 26 27 30 30 33 31 22 21 25 24 22 25 27 20 21 23 21 20 15 16 15 16 17
30 29 28 28 27 27 27 26 22 19 22 28 35 36 35 33 31 31 29 30 32 32 31 33 33 34 35 35 34 33 32 33 32 39 39 37 31 23 24 22 20 26 31 27 22 23 27 23 22 17 17 15 16 18
31 30 30 29 27 24 23 20 19 23 29 31 33 33 32 30 32 31 30 31 31 29 30 32 34 34 36 38 39 40 38 35 40 46 42 37 37 33 29 27 29 33 29 29 27 27 25 24 25 18 19 17 18 19
34 32 31 29 24 21 19 21 25 29 31 31 31 30 29 32 34 35 34 31 29 31 33 33 33 37 40 42 45 46 43 43 47 47 45 44 41 38 36 33 33 31 30 30 28 28 26 24 22 19 20 20 20 20
36 34 31 26 22 19 22 26 29 32 30 28 26 26 30 32 31 29 28 28 29 29 31 34 37 41 43 44 47 50 54 56 57 54 49 49 48 43 38 37 36 32 33 31 29 29 26 23 20 19 21 20 21 21
37 34 30 26 23 22 28 30 29 30 30 30 29 28 26 25 24 25 26 26 27 29 31 35 35 38 42 45 42 39 38 35 38 45 50 60 59 52 46 37 33 33 33 30 30 28 24 22 18 20 21 20 21 19
35 32 29 27 25 28 34 33 32 32 31 29 26 25 23 23 24 23 25 27 28 30 27 30 34 30 24 19 17 15 14 16 20 22 28 34 36 36 34 31 32 32 30 31 30 25 26 23 22 22 19 19 18 19
35 33 31 29 28 33 39 37 34 32 30 26 25 23 22 21 21 23 24 25 24 23 25 22 14 7 7 6 6 11 16 19 21 24 29 30 29 29 29 29 30 32 32 29 25 24 27 25 24 20 19 19 20 20
35 34 32 30 31 36 41 37 35 32 28 26 24 23 23 21 20 20 21 17 20 20 15 12 10 8 5 3 9 11 14 18 19 19 19 19 22 24 27 30 32 31 30 27 25 28 31 31 30 28 27 26 26 23
36 35 33 33 36 36 40 37 33 32 28 26 24 23 21 21 20 19 18 17 18 18 18 13 10 8 9 7 7 7 8 8 10 12 16 20 24 25 28 29 29 26 25 25 25 25 28 31 31 33 32 31 30 28
37 35 34 36 39 36 36 37 34 31 28 26 24 22 21 19 18 18 19 19 19 22 19 15 12 10 12 13 12 13 16 17 18 18 20 22 24 26 27 26 23 21 23 23 25 28 29 28 28 30 33 34 34 33
35 35 37 38 39 39 38 34 32 29 26 23 22 21 20 18 18 19 19 15 23 23 19 13 12 10 12 12 11 12 12 12 15 19 22 25 26 26 24 22 25 26 27 28 29 28 25 23 24 28 31 34 39 41
32 35 37 36 34 33 32 31 29 26 26 24 22 19 17 18 20 18 18 23 24 19 15 13 12 12 11 11 12 13 13 13 13 14 13 16 21 23 26 27 29 29 31 32 33 32 33 36 39 37 38 38 39 41
30 31 33 32 31 29 27 26 25 24 21 19 18 17 18 19 18 20 22 21 17 15 15 14 14 12 13 15 14 15 16 17 16 14 14 13 14 15 18 23 27 31 33 35 38 36 38 39 37 39 39 41 42 43
27 27 27 28 26 25 23 21 20 21 20 18 17 16 14 16 20 19 19 17 16 16 16 15 15 15 16 17 18 18 18 18 19 21 22 24 25 27 27 28 27 26 31 34 35 35 36 38 38 39 41 42 43 44
24 23 22 21 21 22 22 20 20 18 16 15 18 20 18 16 15 15 14 13 13 14 14 15 15 16 18 19 19 20 20 21 23 25 24 22 22 23 23 24 26 28 29 31 32 35 37 39 41 41 43 47 47 48
14 11 12 14 16 18 19 17 16 19 24 25 23 20 17 14 12 11 11 11 11 10 10 11 11 13 15 18 20 19 17 15 16 21 24 25 25 24 23 23 25 27 29 32 34 36 39 42 45 47 49 52 56 58
11 13 15 17 18 19 20 22 22 22 22 20 18 15 12 9 7 7 7 8 9 8 9 11 13 15 15 15 16 18 21 22 23 25 27 29 32 32 34 35 36 38 41 43 45 49 50 53 55 56 56 56 57 58
23 23 22 22 21 20 20 19 18 17 15 13 10 8 8 8 8 9 10 11 13 13 14 15 16 16 16 17 15 16 18 21 22 26 31 32 33 36 39 42 46 49 51 52 54 58 60 59 58 59 59 60 60 60
20 20 21 19 17 15 14 13 11 11 10 10 8 9 10 11 10 7 8 10 11 12 11 11 12 14 17 21 25 28 30 33 35 36 38 39 40 42 44 45 47 49 51 52 53 54 54 54 53 53 53 53 53 52
15 13 12 10 10 10 10 11 9 9 8 8 6 6 5 5 6 6 5 6 10 15 18 20 22 25 28 31 32 33 34 35 36 36 35 35 36 36 36 37 38 39 40 41 42 43 44 45 46 47 47 48 48 49

GFSWCAN_250_spd_120.txt.gz
Wind_Speed
91 76 66 57 48 43 41 37 37 37 35 35 30 29 30 28 26 31 35 40 48 53 53 52 49 48 45 42 39 38 35 31 29 28 31 32 30 33 35 31 27 29 33 36 36 20 18 23 29 30 31 37 52 68
85 73 60 50 45 41 40 37 36 37 35 34 32 28 29 29 27 30 35 36 41 47 48 48 50 48 46 41 40 38 35 30 26 28 29 30 31 33 32 28 25 28 29 32 31 19 18 25 28 31 32 30 43 62
83 67 55 45 42 39 39 37 35 36 35 35 34 29 28 28 27 27 28 31 36 41 46 48 45 45 46 43 39 37 34 31 28 29 28 29 30 31 28 24 23 24 24 26 29 18 15 26 31 30 32 34 41 54
77 62 50 43 40 38 39 38 37 35 34 36 35 31 29 29 27 27 26 26 29 34 36 40 43 44 44 41 41 37 35 31 29 30 28 27 28 29 26 22 23 22 21 22 25 21 13 23 31 33 30 33 36 41
68 55 45 43 40 38 39 39 38 35 35 35 35 33 29 30 28 27 26 26 27 30 34 37 39 41 41 40 38 34 31 31 29 31 29 25 26 27 24 22 20 19 19 18 19 21 14 11 31 36 34 33 36 39
57 47 41 38 38 38 40 39 39 34 36 35 35 35 30 29 29 27 28 28 31 31 33 34 37 41 41 37 35 32 29 31 33 31 28 28 27 25 24 21 19 18 19 18 18 20 15 9 14 36 39 37 36 38
49 42 38 37 36 37 39 38 39 36 36 35 35 35 31 29 30 28 31 29 29 30 32 34 35 37 37 34 34 32 30 32 30 29 27 26 26 23 24 21 18 17 18 17 16 17 19 11 10 13 37 44 43 40
44 40 37 36 36 37 40 40 38 36 35 35 35 36 32 31 31 30 32 31 31 33 33 34 34 32 32 32 27 27 29 29 28 28 26 26 25 24 24 21 18 16 16 17 16 16 17 15 9 8 14 35 49 47
41 37 36 36 36 38 38 36 36 35 34 34 35 36 32 31 31 35 33 35 35 35 33 31 30 32 30 26 27 27 28 27 26 27 25 23 23 27 25 22 19 17 15 15 16 16 16 19 12 8 6 15 31 52
38 37 35 36 35 35 35 34 35 33 33 33 34 34 36 35 36 38 39 38 36 33 33 32 30 26 26 27 29 29 29 27 24 24 25 21 24 28 25 24 23 19 16 16 17 17 17 17 18 13 10 9 9 21
34 33 32 32 32 30 31 31 32 31 30 31 33 33 33 36 39 43 44 43 40 34 32 31 28 27 28 29 28 29 28 25 24 23 22 23 28 29 24 23 22 19 17 18 15 18 21 16 17 15 15 14 15 14
31 28 28 28 25 25 26 27 28 29 29 30 31 32 33 31 36 45 45 45 42 36 34 32 32 31 29 29 31 30 28 27 24 23 21 28 34 26 22 19 19 20 21 19 17 21 21 16 17 16 15 16 17 17
27 26 25 23 22 23 25 27 27 26 27 27 28 27 25 28 35 44 45 44 43 38 37 36 35 35 34 35 34 31 29 28 27 24 24 29 25 24 18 17 19 19 20 19 18 23 21 19 19 19 18 18 18 17
26 24 23 23 23 23 24 25 25 25 25 23 22 22 24 29 37 41 41 39 40 38 35 32 34 36 38 37 34 32 30 28 27 28 30 28 26 25 27 26 25 22 20 22 26 23 21 20 21 21 20 21 20 17
26 25 23 23 23 25 25 26 24 22 21 20 21 24 29 35 37 35 33 33 35 37 36 32 32 34 37 35 34 33 33 33 35 35 33 33 30 33 35 34 31 25 23 25 24 23 23 24 23 22 22 22 23 20
27 26 25 25 25 25 25 23 21 19 18 21 24 30 33 35 35 33 31 31 31 33 33 31 32 34 36 34 33 35 37 40 41 38 39 41 37 37 40 40 37 34 31 27 24 23 26 28 26 25 26 24 23 20
29 28 28 28 27 25 23 20 17 17 22 25 28 32 34 33 31 30 31 31 31 29 29 30 30 29 31 35 38 41 43 45 46 47 47 46 44 42 44 44 40 36 33 31 26 28 31 30 28 29 26 23 22 21
30 31 30 30 28 24 22 19 19 24 28 28 29 30 31 29 29 31 34 32 30 28 27 27 30 34 36 39 41 46 51 54 53 52 52 52 50 50 49 45 46 42 37 31 30 33 32 31 30 30 23 24 24 23
32 33 33 31 26 25 22 22 26 29 30 29 27 27 26 27 29 30 30 28 26 27 29 32 33 35 39 41 42 44 48 47 45 42 43 45 54 63 59 51 47 41 38 36 36 34 33 33 31 29 27 27 24 22
32 33 34 32 29 26 24 28 30 31 32 30 28 27 27 27 28 27 26 26 26 28 30 32 34 38 35 36 31 24 24 24 25 23 24 30 37 46 54 57 53 49 44 40 34 33 31 31 31 28 28 28 27 25
33 33 34 33 30 28 28 33 32 32 32 31 31 29 27 25 24 23 23 23 25 28 29 30 27 26 21 11 10 7 5 2 4 9 13 14 16 21 28 30 32 34 33 31 31 32 32 31 29 30 32 31 29 28
35 36 35 35 33 30 34 37 35 34 33 32 29 27 25 24 24 23 23 23 22 21 19 18 15 16 14 9 7 6 7 5 5 6 9 12 16 19 22 23 24 26 28 30 32 32 32 31 29 32 34 34 31 32
38 38 37 35 32 34 41 40 36 34 33 30 27 25 24 23 23 22 20 18 16 16 16 17 19 17 17 16 14 12 12 12 10 10 9 10 12 15 18 22 25 27 29 29 29 27 25 24 25 29 33 35 34 35
40 40 38 34 34 39 43 40 35 32 31 29 26 23 23 22 22 21 18 16 17 17 17 21 19 17 13 14 14 12 12 12 13 14 14 16 17 19 24 26 27 27 28 26 23 22 22 24 26 29 30 31 31 31
40 37 36 38 37 40 41 38 34 31 29 27 25 24 22 22 20 18 16 16 17 19 25 24 21 18 18 15 14 13 11 11 12 12 13 14 16 18 21 22 21 20 21 23 24 25 27 30 30 28 29 36 37 36
37 38 40 38 35 35 35 33 31 29 27 25 23 22 21 20 18 18 17 16 20 24 25 23 22 17 15 14 14 13 11 13 15 17 15 12 11 11 11 12 16 20 24 26 29 31 32 33 35 36 36 38 43 46
37 38 38 36 35 33 31 29 27 27 25 24 22 21 18 17 18 18 14 17 23 22 23 20 18 16 14 13 13 14 14 15 17 18 17 18 19 20 21 22 24 26 27 28 29 31 33 35 36 38 40 40 41 44
34 33 32 30 29 27 25 24 23 22 21 20 17 16 18 17 16 17 16 18 19 16 16 17 16 16 16 17 17 17 18 19 20 21 22 23 26 27 28 27 26 28 30 33 33 33 34 35 36 38 41 43 44 46
27 27 26 25 23 21 21 20 19 17 17 16 15 16 18 19 17 17 15 14 13 13 14 14 16 15 15 16 17 19 20 21 24 25 25 18 18 20 23 26 27 29 30 31 32 34 36 39 41 42 43 45 46 48
22 22 22 21 21 20 20 19 17 15 15 18 22 20 17 15 13 12 13 13 13 12 12 13 14 15 17 18 19 18 18 19 20 21 24 25 28 30 32 33 35 37 39 41 42 43 44 46 48 50 52 54 55 57
16 17 18 18 18 17 16 16 18 21 23 21 19 17 15 13 12 11 11 11 10 10 10 11 13 16 17 17 18 20 19 19 21 24 26 28 30 33 35 38 41 43 44 46 49 51 53 55 57 60 62 63 64 63
24 24 24 23 22 21 20 19 18 17 16 15 14 12 11 10 9 8 7 9 9 11 9 8 8 10 13 15 18 22 26 29 32 35 36 37 39 40 42 43 43 45 46 47 48 49 50 52 53 54 55 56 56 56
21 21 20 20 19 18 18 16 14 14 12 11 9 7 7 7 7 9 10 9 6 7 11 15 18 21 23 26 29 31 33 35 37 37 36 35 34 35 35 36 37 38 39 41 42 43 45 46 47 49 50 51 51 53

GFSWCAN_250_spd_123.txt.gz
Wind_Speed
90 94 90 86 83 83 75 58 42 35 34 34 33 34 34 31 30 28 26 26 32 37 41 44 47 50 50 50 52 48 48 44 41 39 34 30 29 31 33 33 36 37 38 35 35 39 43 35 19 16 23 28 33 41
95 93 86 87 84 80 68 49 38 35 34 34 34 33 34 32 30 29 28 25 29 34 39 43 46 48 51 50 49 49 47 44 39 36 33 31 27 30 32 31 35 37 35 34 32 35 36 29 18 14 21 27 34 33
95 90 86 87 84 73 56 42 36 35 34 35 34 33 33 33 31 28 28 26 27 32 36 41 47 48 48 49 49 50 48 44 40 34 32 32 29 31 31 32 32 34 32 32 30 32 33 26 16 17 19 21 25 31
93 90 90 86 79 64 47 38 34 34 34 36 35 33 33 35 32 29 29 28 26 28 33 39 44 50 51 50 50 48 45 44 39 35 33 31 31 32 31 30 30 31 29 29 26 28 30 26 18 19 22 21 21 28
93 90 87 85 71 51 40 34 34 35 34 36 36 33 33 35 33 30 31 30 27 26 28 34 40 44 47 50 50 47 45 43 39 37 34 30 31 33 33 28 29 28 28 27 24 23 10 26 18 18 26 28 23 25
91 88 85 75 56 41 34 33 33 35 35 36 37 32 33 34 32 29 31 32 27 27 28 30 36 40 44 46 45 43 43 41 39 37 33 32 33 33 30 27 28 27 26 26 22 20 20 21 20 12 26 33 31 28
88 83 78 61 45 35 31 31 32 34 36 37 38 34 31 33 34 31 30 34 29 29 30 30 33 37 38 40 42 43 41 39 39 35 32 32 34 33 28 28 28 27 26 24 21 18 19 19 20 15 13 31 34 32
81 77 62 49 38 31 30 30 32 34 38 39 39 34 33 35 34 33 31 34 31 31 29 34 35 35 36 38 41 40 38 37 36 34 34 34 33 31 28 27 28 26 26 23 20 17 17 19 19 18 14 15 32 37
75 61 50 42 34 29 29 31 32 34 35 37 39 36 34 35 35 33 31 34 32 33 30 32 33 35 35 36 37 37 35 35 36 35 35 34 32 28 27 26 26 27 27 22 19 19 18 18 18 19 15 14 17 35
58 49 42 35 31 30 30 31 33 34 36 37 36 34 34 34 35 34 33 36 34 34 30 32 32 33 36 35 34 36 37 30 30 32 31 32 30 28 26 25 25 27 25 21 19 20 19 19 20 18 19 14 15 18
46 41 35 29 27 27 28 30 31 32 33 33 34 32 32 34 35 35 33 35 37 37 35 35 36 35 35 36 34 33 30 32 31 34 34 31 29 28 24 23 26 26 27 24 20 21 18 21 22 18 17 15 15 16
37 34 30 25 24 25 26 25 25 27 29 31 31 30 31 34 34 34 37 37 41 39 37 38 38 37 37 35 35 33 32 31 34 34 32 32 32 24 19 18 22 24 23 22 23 22 19 22 25 21 18 18 13 16
31 28 24 22 21 22 22 22 22 23 24 26 28 28 30 31 33 35 39 41 46 44 40 40 38 37 35 32 30 30 32 32 31 31 34 32 28 23 17 15 18 24 24 24 22 23 22 24 25 24 21 19 18 16
27 24 21 19 20 20 20 20 22 23 23 25 25 27 28 30 31 33 35 42 52 49 44 41 37 37 36 31 32 34 31 30 32 34 34 31 26 20 20 20 23 25 27 26 21 23 26 27 25 25 23 22 22 20
25 23 20 20 20 21 21 22 22 23 24 24 25 26 25 24 25 26 33 43 50 49 46 42 37 35 33 32 33 34 33 34 35 35 32 30 28 25 26 25 22 26 30 28 26 23 22 19 22 25 26 26 25 24
24 23 21 21 21 22 22 23 23 23 23 23 22 21 21 22 24 29 38 45 47 47 44 41 37 34 32 32 32 34 38 38 36 37 35 31 33 32 32 33 31 31 31 32 30 29 26 23 24 25 27 28 28 28
24 23 23 22 23 24 23 23 22 20 20 19 19 20 23 25 28 35 40 43 43 41 42 40 39 36 34 34 33 34 36 37 38 38 40 41 40 43 41 39 39 37 37 37 37 36 34 33 28 28 31 30 29 30
25 25 26 25 27 26 25 23 20 18 16 18 21 24 29 31 33 35 36 34 32 33 35 36 35 32 29 29 32 36 38 40 41 43 47 50 50 50 50 50 47 46 44 43 40 36 36 32 31 31 30 31 33 33
30 27 29 29 30 29 26 23 19 18 22 23 25 29 32 33 33 31 30 29 29 29 29 29 30 30 31 31 33 35 38 43 47 50 53 57 60 63 63 60 56 52 48 44 43 44 42 38 37 32 34 33 33 33
35 30 31 32 32 30 26 22 20 26 28 26 27 29 31 32 30 26 27 30 28 27 27 28 30 31 31 33 36 40 44 47 51 55 55 54 53 53 52 51 57 59 51 45 44 42 44 43 38 37 36 34 35 32
36 32 33 35 33 30 27 24 28 31 31 29 28 27 27 26 25 26 26 28 29 29 27 26 26 29 32 35 39 42 45 40 32 27 24 22 24 24 27 35 41 47 50 52 47 42 42 40 38 38 37 37 35 31
37 34 35 37 35 32 27 31 33 34 32 29 27 26 25 25 25 25 25 24 24 23 25 27 30 33 34 33 30 26 20 18 14 9 7 5 3 6 9 11 17 20 25 34 42 46 45 42 38 37 37 36 35 33
39 36 37 38 36 33 32 37 35 35 34 31 29 27 26 25 23 23 23 23 24 26 27 27 27 24 23 19 20 16 13 11 9 7 5 2 3 4 6 10 16 18 20 23 27 30 33 34 35 36 37 36 35 33
39 38 40 39 37 34 38 37 35 35 33 31 29 27 26 25 24 23 23 23 24 22 23 22 22 20 20 21 21 19 19 18 18 17 14 12 9 8 10 12 15 19 22 25 27 29 31 33 34 34 34 33 32 32
41 41 40 38 35 38 41 38 36 35 33 31 28 26 25 23 22 22 22 22 22 22 22 20 21 21 19 19 17 17 20 18 17 16 16 15 14 16 18 21 24 27 30 31 32 32 32 32 33 33 31 31 32 32
42 40 38 35 39 42 40 37 35 34 31 30 28 25 23 22 23 22 22 21 21 21 19 17 19 23 21 20 19 20 18 16 15 16 17 18 17 17 17 18 20 22 25 27 27 28 29 30 32 32 33 35 36 38
39 36 35 38 43 41 37 35 31 29 28 26 24 22 21 21 20 20 20 19 20 17 18 21 23 23 20 22 22 20 18 17 16 16 18 20 21 22 23 22 20 22 22 22 22 21 29 30 33 33 34 42 42 43
38 38 37 38 39 37 35 32 28 25 24 23 23 22 21 21 20 19 19 19 18 22 23 22 22 22 22 21 19 18 18 18 20 20 21 22 23 25 27 29 29 31 33 32 31 33 36 38 39 39 42 44 44 45
37 34 33 33 32 32 29 27 25 24 23 22 22 21 20 18 18 19 17 15 17 21 22 21 20 21 21 21 22 22 23 23 25 25 28 29 29 28 30 30 29 29 30 31 33 35 35 36 37 38 40 41 42 40
30 29 27 26 25 24 23 22 20 19 18 17 17 16 15 14 13 15 16 15 16 18 18 19 20 21 22 22 23 24 25 27 29 30 31 32 32 33 34 36 37 38 38 39 41 42 44 46 47 47 48 49 50 52
24 24 22 20 19 18 18 18 18 16 14 13 13 16 17 15 14 14 14 15 16 17 18 19 20 22 23 25 26 29 31 32 34 35 36 36 37 38 38 40 42 44 46 47 48 49 50 52 54 55 56 57 59 62
20 19 18 17 17 16 15 14 13 12 14 16 16 15 14 14 13 13 13 13 14 16 18 19 19 18 19 21 24 26 28 29 31 32 34 37 40 43 46 48 50 51 52 53 53 54 55 55 56 57 59 60 62 64
19 19 18 19 19 18 17 16 16 16 14 14 14 13 13 12 12 13 14 16 15 15 14 17 20 25 28 30 32 33 35 37 39 40 42 44 45 44 43 43 43 43 44 44 45 45 46 47 48 49 50 51 53 54